     2.11           OBSERVATION DATA    G (GPS)             RINEX VERSION / TYPE
teqc 2010Oct21 OPUS Account 20111026 16:32:14UTC            PGM / RUN BY / DATE
Z 1522                                                      MARKER NAME
1179                                                        MARKER NUMBER
CSMIDDLETON NGS                                             OBSERVER / AGENCY
0220284361 TRIMBLE 5700 NP 1.22 / SP 1.22                   REC # / TYPE / VERS
12234991 TRM41249.00 NONE                                   ANT # / TYPE
  -744023.5498 -5505158.5961  3123435.2155                  APPROX POSITION XYZ
        2.0000        0.0000        0.0000                  ANTENNA: DELTA H/E/N
     1     1                                                WAVELENGTH FACT L1/2
     5    L1    L2    C1    P1    P2                        # / TYPES OF OBSERV
    30.0000                                                 INTERVAL
    15                                                      LEAP SECONDS
  2011     8     2     0     0    0.0000000     GPS         TIME OF FIRST OBS
                                                            END OF HEADER
 11  8  2  0  0  0.0000000  0  7G17G02G04G09G28G27G10
   4844474.70348   3787771.19446  21677813.2194                   21677811.2814
  19748904.15648  15401227.93946  21795062.9064                   21795059.4694
   4759624.23848   3722393.40047  19920430.0314                   19920428.0124
  23862695.59447  18606250.24945  22107029.9224                   22107028.2274
     24615.07447     28971.76845  22252591.9144                   22252589.2274
  17448620.12947  13607834.93245  22439038.9454                   22439037.6174
  28571266.12947  22274943.13944  22837156.8364                   22837156.5474
 11  8  2  0  0 30.0000000  0  7G17G02G04G09G28G27G10
   4844456.91447   3787757.32246  21677810.2974                   21677807.7194
  19648479.06348  15322974.65146  21775952.2504                   21775949.1214
   4734793.79348   3703045.00347  19915704.5864                   19915702.6334
  23825303.64547  18577113.68345  22099914.2194                   22099912.9144
     54785.99247     52481.53945  22258332.9384                   22258331.4064
  17422433.95348  13587430.10445  22434055.6024                   22434054.9844
  28448719.89847  22179452.68444  22813836.4384                   22813836.7584
 11  8  2  0  1  0.0000000  0  7G17G02G04G09G28G27G10
   4844523.53148   3787809.22946  21677822.4224                   21677820.3054
  19548395.82848  15244987.76446  21756907.5784                   21756903.9414
   4710507.74648   3684120.82047  19911083.0234                   19911081.2704
  23788550.34447  18548474.73745  22092920.1414                   22092919.0984
     85326.44947     76279.23545  22264145.0634                   22264142.8674
  17396725.04347  13567397.16845  22429164.0634                   22429162.5234
  28326357.04747  22084105.06945  22790551.8834                   22790551.3134
 11  8  2  0  1 30.0000000  0  7G17G02G04G09G28G27G10
   4844679.90248   3787931.05946  21677852.0004                   21677849.8984
  19448660.69548  15167272.11946  21737928.4064                   21737925.0274
   4686770.42248   3665624.21047  19906566.0704                   19906564.3794
  23752440.41847  18520337.11945  22086048.9064                   22086047.1374
    116241.18447    100368.59145  22270027.7974                   22270024.9064
  17371497.96148  13547739.69645  22424363.0084                   22424361.8284
  28204186.40647  21988907.24444  22767303.6024                   22767303.4964
 11  8  2  0  2  0.0000000  0  8G17G02G04G09G28G27G12G10
   4844921.92647   3788119.62146  21677897.7194                   21677896.1054
  19349270.11748  15089824.94946  21719014.9454                   21719011.6484
   4663575.98448   3647550.62647  19902152.4064                   19902150.3244
  23716968.81347  18492696.90445  22079298.8754                   22079297.4734
    147525.24247    124745.74345  22275980.2344                   22275978.4534
  17346747.39147  13528453.51245  22419653.0634                   22419651.4804
  39192624.46556  30551283.13053  24351776.6954                   24351774.5514
  28082206.73847  21893858.25145  22744091.2974                   22744090.8094
 11  8  2  0  2 30.0000000  0  8G17G02G04G09G28G27G12G10
   4845243.85947   3788370.47646  21677959.0394                   21677956.9844
  19250219.26648  15012642.51746  21700165.8674                   21700162.5664
   4640917.48848   3629894.67347  19897840.6174                   19897838.8404
  23682129.37947  18465549.28845  22072669.4064                   22072667.8134
    179171.98447    149405.49845  22282003.3364                   22282001.4844
  17322466.68448  13509533.46545  22415032.6644                   22415031.5664
  39061711.40646  30449273.07243  24326865.7814                   24326862.8444
  27960415.91047  21798956.37644  22720915.4614                   22720914.7624
 11  8  2  0  3  0.0000000  0  8G17G02G04G09G28G27G12G10
   4845637.45748   3788677.14646  21678034.4144                   21678032.2774
  19151500.85948  14935719.11546  21681380.7814                   21681376.7424
   4618785.69148   3612649.12346  19893629.0554                   19893627.3794
  23647913.42647  18438887.50145  22066158.1564                   22066156.7194
    211173.25847    174341.51445  22288093.1094                   22288091.0704
  17298646.64147  13490972.36745  22410499.7114                   22410498.7304
  38930794.04746  30347259.59643  24301952.3914                   24301950.7424
  27838808.79747  21704197.64545  22697774.4224                   22697773.9694
 11  8  2  0  3 30.0000000  0  8G17G02G04G09G28G27G12G10
   4846103.29748   3789040.13046  21678123.1884                   21678120.8094
  19053116.63348  14859056.12846  21662658.7344                   21662654.9734
   4597179.89548   3595813.43547  19889517.5704                   19889515.5044
  23614321.04347  18412711.61045  22059765.7584                   22059764.2584
    243529.21947    199553.91545  22294250.1174                   22294248.3444
  17275287.20748  13472770.20245  22406054.6884                   22406053.6764
  38799875.17646  30245244.97643  24277038.9924                   24277037.1024
  27717389.39147  21609585.17745  22674668.8594                   22674669.0864
 11  8  2  0  4  0.0000000  0  8G17G02G04G09G28G27G12G10
   4846649.50447   3789465.71446  21678226.6644                   21678224.4964
  18955075.27048  14782660.29946  21644001.8674                   21643998.2814
   4576106.80948   3579392.85847  19885507.5314                   19885505.6294
  23581359.19547  18387027.04045  22053493.5164                   22053492.1684
    276247.16447    225048.37045  22300476.3444                   22300474.2154
  17252395.57847  13454932.53745  22401698.6804                   22401697.3364
  38668964.88346  30143237.00543  24252127.9924                   24252125.8134
  27596169.50447  21515128.17245  22651601.3524                   22651600.6374
 11  8  2  0  4 30.0000000  0  8G17G02G04G09G28G27G12G10
   4847277.94148   3789955.38246  21678346.5234                   21678344.0314
  18857379.26248  14706533.57846  21625410.8594                   21625407.7194
   4555566.46948   3563387.40147  19881598.5704                   19881596.7234
  23549029.01247  18361834.68245  22047341.0634                   22047339.6884
    309328.05147    250825.65345  22306771.1804                   22306769.0514
  17229972.34848  13437459.87545  22397431.4304                   22397430.4494
  38538065.95747  30041237.92044  24227218.6724                   24227216.5944
  27475153.94547  21420830.38645  22628573.0314                   22628572.6804
 11  8  2  0  5  0.0000000  0  8G17G02G04G09G28G27G12G10
   4847990.73448   3790510.79546  21678482.2814                   21678480.0634
  18760031.51648  14630678.24146  21606886.4454                   21606882.8324
   4535560.15648   3547798.05947  19877791.7424                   19877789.8164
  23517332.01247  18337135.70545  22041309.3054                   22041308.1994
    342773.58247    276887.06845  22313135.5864                   22313133.4184
  17208018.76247  13420353.16745  22393253.9454                   22393253.1094
  38407182.71547  29939250.99244  24202312.0634                   24202310.2274
  27354347.98847  21326695.92144  22605583.9844                   22605584.0004
 11  8  2  0  5 30.0000000  0  8G17G02G04G09G28G27G12G10
   4848793.33647   3791136.17246  21678635.3364                   21678632.6454
  18663038.52748  14555099.32346  21588429.0164                   21588425.4844
   4516091.44148   3532627.63347  19874087.0004                   19874085.0434
  23486272.79347  18312933.67445  22035398.7034                   22035397.8054
    376588.18847    303236.08845  22319570.4694                   22319568.6994
  17186539.02748  13403615.68445  22389166.4614                   22389165.0864
  38276322.56347  29837282.12044  24177409.9304                   24177408.7894
  27233760.44947  21232731.67945  22582637.0004                   22582637.1024
 11  8  2  0  6  0.0000000  0  8G17G02G04G09G28G27G12G10
   4849676.37547   3791824.23246  21678802.8204                   21678800.6844
  18566391.71948  14479790.15646  21570037.6334                   21570034.2344
   4497150.11348   3517868.16247  19870482.5084                   19870480.2274
  23455841.42647  18289220.92045  22029608.0394                   22029606.4384
    410762.35947    329865.27345  22326073.4454                   22326070.9734
  17165523.27347  13387239.73945  22385167.3914                   22385166.5944
  38145478.14547  29735325.48744  24152511.4614                   24152510.1054
  27113385.71147  21138933.22445  22559730.0234                   22559729.9734
 11  8  2  0  6 30.0000000  0  8G17G02G04G09G28G27G12G10
   4850648.85948   3792582.00146  21678988.0394                   21678985.6294
  18470100.56648  14404758.13046  21551713.9454                   21551710.6214
   4478743.39848   3503525.25747  19866979.7974                   19866977.8284
  23426045.73447  18266003.47745  22023938.5084                   22023936.5274
    445304.07847    356780.85545  22332646.7814                   22332644.8554
  17144979.03948  13371231.22945  22381257.8444                   22381257.2814
  38014660.05547  29633389.39644  24127616.9224                   24127616.5124
  26993235.78147  21045309.96045  22536866.3444                   22536866.8054
 11  8  2  0  7  0.0000000  0  8G17G02G04G09G28G27G12G10
   4851712.49248   3793410.78046  21679190.6414                   21679188.4574
  18374167.57848  14330005.18046  21533458.5474                   21533454.8054
   4460871.59848   3489599.17746  19863578.8524                   19863577.0594
  23396886.79347  18243282.22045  22018389.2504                   22018387.7734
    480214.43047    383983.66445  22339290.0634                   22339287.6024
  17124907.04347  13355590.66545  22377438.3524                   22377437.4494
  37883871.93847  29531476.64044  24102729.1174                   24102727.7974
  26873315.87947  20951865.92245  22514046.7034                   22514046.6804
 11  8  2  0  7 30.0000000  0  8G17G02G04G09G28G27G12G10
   4852865.69948   3794309.36746  21679410.0314                   21679407.7464
  18278592.05547  14255530.77446  21515271.3444                   21515267.8984
   4443531.42248   3476087.35847  19860279.3524                   19860277.4454
  23368361.94147  18221055.03845  22012961.0634                   22012959.6094
    515491.18047    411472.01045  22346002.9304                   22346000.5234
  17105304.05947  13340315.59445  22373707.8914                   22373706.8984
  37753114.05547  29429587.44644  24077846.8134                   24077845.8164
  26753627.37947  20858602.23145  22491270.7974                   22491271.0434
 11  8  2  0  8  0.0000000  0  8G17G02G04G09G28G27G12G10
   4854113.38347   3795281.57746  21679647.1884                   21679645.2734
  18183379.32048  14181339.06346  21497152.4774                   21497149.0824
   4426726.36748   3462992.50947  19857081.4224                   19857079.4064
  23340475.19547  18199325.09545  22007654.7894                   22007653.3134
    551138.35247    439248.97544  22352786.5864                   22352783.9534
  17086174.10247  13325409.09745  22370067.7734                   22370067.0314
  37622393.09847  29327726.97544  24052970.2034                   24052970.4184
  26634178.88347  20765525.52445  22468540.5394                   22468539.9184
 11  8  2  0  8 30.0000000  0  8G17G02G04G09G28G27G12G10
   4855456.55548   3796328.19446  21679902.7034                   21679901.2274
  18088531.20748  14107431.48446  21479103.9144                   21479100.1334
   4410456.09048   3450314.37846  19853984.6724                   19853983.0594
  23313226.84047  18178092.58045  22002469.5004                   22002468.1644
    587156.08647    467314.72345  22359639.9224                   22359638.2304
  17067517.24648  13310871.24545  22366517.8754                   22366516.5864
  37491712.40247  29225897.91944  24028103.3594                   24028102.5904
  26514974.74647  20672639.24445  22445856.7034                   22445856.4024
 11  8  2  0  9  0.0000000  0  8G17G02G04G09G28G27G12G10
   4856885.38348   3797441.57746  21680174.5944                   21680172.7624
  17994038.34448  14033800.70346  21461122.0634                   21461118.7034
   4394708.90248   3438043.84447  19850988.3834                   19850986.6134
  23286605.12547  18157348.37145  21997403.3524                   21997402.2664
    623533.52747    495660.73645  22366562.5864                   22366560.5634
  17049322.01247  13296693.10445  22363055.0704                   22363054.2624
  37361062.96547  29124093.20644  24003241.9224                   24003240.7234
  26396007.65647  20579937.65745  22423218.4224                   22423217.3484
 11  8  2  0  9 30.0000000  0  8G17G02G04G09G28G27G12G10
   4858405.21148   3798625.85346  21680463.8674                   21680462.2544
  17899906.59448  13960451.30846  21443209.5864                   21443206.2464
   4379488.23848   3426183.58747  19848091.9534                   19848089.9534
  23260614.62147  18137096.01245  21992457.6804                   21992456.2234
    660275.23447    524290.59345  22373554.3364                   22373552.4144
  17031592.54348  13282877.90645  22359681.7814                   22359680.6094
  37230452.16047  29022318.59944  23978387.1334                   23978385.7464
  26277286.30947  20487427.57045  22400626.5004                   22400625.2114
 11  8  2  0 10  0.0000000  0  8G17G02G04G09G28G27G12G10
   4860012.60948   3799878.36146  21680770.0634                   21680767.9804
  17806133.33248  13887381.27346  21425365.3444                   21425361.5554
   4364789.63348   3414730.13047  19845294.8984                   19845293.1484
  23235251.09847  18117332.21645  21987631.6564                   21987629.7664
    697377.21147    553201.18245  22380614.6564                   22380612.8794
  17014324.44147  13269422.19445  22356395.6174                   22356394.5434
  37099879.29347  28920573.56744  23953539.8834                   23953538.6524
  26158811.04747  20395109.21445  22378081.1094                   22378079.9184
 11  8  2  0 10 30.0000000  0  8G17G02G04G09G28G27G12G10
   4861713.42248   3801203.66046  21681093.6564                   21681091.6484
  17712725.06648  13814595.64246  21407590.2344                   21407586.4614
   4350617.07448   3403686.58746  19842598.0704                   19842596.0784
  23210519.28548  18098060.66545  21982924.9924                   21982923.3954
    734844.45347    582396.39245  22387744.2274                   22387743.0944
  16997522.13748  13256329.46345  22353198.1884                   22353197.2504
  36969351.45746  28818863.63743  23928701.1414                   23928698.8244
  26040590.89147  20302989.66645  22355584.5704                   22355583.6764
 11  8  2  0 11  0.0000000  0  8G17G02G04G09G28G27G12G10
   4863508.92648   3802602.75746  21681435.2504                   21681432.7704
  17619683.55548  13742095.79146  21389884.8674                   21389881.2894
   4336970.21548   3393052.67046  19840001.1644                   19839998.8754
  23186419.10247  18079281.28045  21978339.1334                   21978337.2344
    772677.31647    611876.47445  22394943.7734                   22394942.5864
  16981185.49247  13243599.58945  22350089.2034                   22350088.2544
  36838871.93047  28717191.30144  23903871.8054                   23903870.1684
  25922630.40647  20211072.47045  22333137.0474                   22333137.2734
 11  8  2  0 11 30.0000000  0  8G17G02G04G09G28G27G12G10
   4865394.53947   3804072.06046  21681794.1094                   21681791.8984
  17527004.53148  13669878.40546  21372248.5944                   21372244.8484
   4323842.18848   3382823.04947  19837502.6804                   19837501.0434
  23162944.59847  18060989.44545  21973871.5784                   21973870.8364
    810869.86347    641636.86745  22402211.7734                   22402210.3834
  16965308.27747  13231227.70545  22347068.0394                   22347067.0164
  36708437.80147  28615554.37644  23879051.3444                   23879049.3754
  25804927.74247  20119356.15245  22310739.1724                   22310738.6524
 11  8  2  0 12  0.0000000  0  8G17G02G04G09G28G27G12G10
   4867373.81648   3805614.35446  21682170.8134                   21682168.6954
  17434692.07848  13597946.65646  21354681.9454                   21354678.4964
   4311235.20348   3372999.43247  19835104.2114                   19835102.1414
  23140098.21947  18043187.05945  21969524.4384                   21969522.6414
    849424.74247    671679.56745  22409548.2114                   22409547.0634
  16949892.77747  13219215.58745  22344134.8444                   22344133.6914
  36578054.35246  28513956.93243  23854239.7424                   23854236.9964
  25687489.67247  20027846.02545  22288391.1564                   22288390.8284
 11  8  2  0 12 30.0000000  0  8G17G02G04G09G28G27G12G10
   4869441.67248   3807225.66746  21682564.5474                   21682561.7304
  17342741.90248  13526297.20546  21337184.6024                   21337181.5164
   4299142.54348   3363576.58046  19832802.6724                   19832800.7934
  23117873.39847  18025868.98945  21965294.9924                   21965293.3204
    888336.25447    702000.16945  22416953.2424                   22416951.4734
  16934932.89547  13207558.49445  22341287.7894                   22341286.9224
  36447718.84046  28412396.84244  23829437.5864                   23829435.1484
  25570314.70747  19936540.89045  22266093.3364                   22266093.0354
 11  8  2  0 13  0.0000000  0  8G17G02G04G09G28G27G12G10
   4871595.39147   3808903.87546  21682974.4064                   21682972.0084
  17251151.72348  13454928.27746  21319755.5864                   21319752.0354
   4287559.75448   3354551.03347  19830598.4774                   19830596.4264
  23096266.27347  18009032.26945  21961183.4384                   21961182.0234
    927600.68847    732595.76045  22424425.1414                   22424423.5394
  16920424.09447  13196252.91945  22338526.8834                   22338525.5984
  36317430.40246  28310873.46744  23804645.1724                   23804642.7424
  25453403.35547  19845441.20045  22243846.1024                   22243844.9694
 11  8  2  0 13 30.0000000  0  8G17G02G04G09G28G27G12G10
   4873838.69148   3810651.88046  21683401.4924                   21683399.1484
  17159925.70748  13383843.10846  21302396.2114                   21302392.4184
   4276488.73048   3345924.26746  19828491.7194                   19828489.8164
  23075279.03947  17992678.55345  21957189.7974                   21957188.7664
    967220.70347    763468.43645  22431964.3054                   22431962.8134
  16906368.85247  13185300.74945  22335852.6954                   22335851.4534
  36187194.39546  28209390.90644  23779861.6174                   23779859.3914
  25336762.25847  19754552.09945  22221649.8674                   22221649.0164
 11  8  2  0 14  0.0000000  0  8G17G02G04G09G28G27G12G10
   4876175.75447   3812472.94246  21683845.7814                   21683843.4024
  17069067.70748  13313044.70746  21285105.8984                   21285102.5314
   4265931.43048   3337697.79446  19826482.9694                   19826480.8284
  23054913.86347  17976809.56645  21953314.3754                   21953313.1214
   1007199.44947    794620.67145  22439572.3524                   22439570.7544
  16892769.41447  13174703.76245  22333264.8364                   22333263.6844
  36057017.00846  28107954.01444  23755089.5554                   23755088.0704
  25220398.57847  19663879.14745  22199507.0004                   22199505.6054
 11  8  2  0 14 30.0000000  0  8G17G02G04G09G28G27G12G10
   6454022.82847   5041964.15046  21984100.1414                   21984098.1214
  18553998.40648  14470133.60646  21567678.8834                   21567675.4694
   5831302.96148   4557467.82146  20124363.2274                   20124361.0824
  24610586.89148  19189022.30845  22249349.0164                   22249347.4614
   2622950.55947   2053647.42345  22747039.6954                   22747037.9964
  18455041.55147  14392058.65745  22630555.3444                   22630554.1914
  37502320.64547  29234164.72844  24030122.2114                   24030119.9924
  26679736.11347  20801025.34845  22477209.6254                   22477208.5704
 11  8  2  0 15  0.0000000  0  8G17G02G04G09G28G27G12G10
   6456543.69547   5043928.43446  21984579.4534                   21984577.6054
  18463875.55548  14399908.05746  21550528.9454                   21550525.1334
   5821764.66048   4550035.37746  20122547.9064                   20122546.0274
  24591458.93447  19174117.37745  22245709.1644                   22245707.9184
   2663639.18047   2085352.80445  22754782.2664                   22754780.9414
  18442346.39847  14382166.30245  22628139.3284                   22628138.5744
  37372261.85947  29132820.27044  24005372.5234                   24005370.4694
  26563933.69147  20710789.75645  22455172.6564                   22455172.1844
 11  8  2  0 15 30.0000000  0  8G17G02G04G09G28G27G12G10
   6459154.60947   5045962.88246  21985076.5944                   21985074.5354
  18374118.89148  14329967.83546  21533449.0394                   21533445.3834
   5812730.89848   4542996.07246  20120829.1414                   20120826.9104
  24572945.68447  19159691.44945  22242185.9844                   22242185.2464
   2704679.53947   2117332.26444  22762591.8444                   22762590.0984
  18430099.06347  14372622.89945  22625808.4534                   22625807.2934
  37242263.39547  29031522.79444  23980634.7344                   23980632.7154
  26448414.78547  20620775.09045  22433190.3444                   22433189.1804
 11  8  2  0 16  0.0000000  0  8G17G02G04G09G28G27G12G10
   6461855.74648   5048067.64846  21985590.7114                   21985588.3404
  18284728.73048  14260313.20246  21516438.7424                   21516435.0984
   5804200.19948   4536348.77446  20119205.7034                   20119203.6764
  24555045.62947  19145743.33745  22238779.5474                   22238778.9264
   2746070.89147   2149585.21745  22770468.4064                   22770466.9264
  18418298.16447  14363427.38045  22623563.3204                   22623561.7584
  37112327.77747  28930274.33144  23955909.2734                   23955906.4924
  26333182.59047  20530983.83245  22411262.5314                   22411261.5124
 11  8  2  0 16 30.0000000  0  8G17G02G04G09G28G27G12G10
   6464646.40647   5050242.16246  21986121.2034                   21986119.6454
  18195704.78948  14190943.93046  21499497.6724                   21499494.4224
   5796169.67648   4530091.21946  20117677.4694                   20117675.5984
  24537756.27347  19132271.08345  22235489.6414                   22235488.5784
   2787810.94147   2182109.85744  22778411.0784                   22778409.4964
  18406941.10247  14354577.68545  22621402.1954                   22621400.2974
  36982455.68447  28829075.35144  23931195.1094                   23931192.4574
  26218239.53947  20441417.89145  22389389.6024                   22389388.4844
 11  8  2  0 17  0.0000000  0  8G17G02G04G09G28G27G12G10
   6467527.59447   5052487.21846  21986670.0314                   21986667.6054
  18107048.65248  14121861.26846  21482626.9694                   21482623.1644
   5788638.53948   4524222.80646  20116244.5234                   20116242.6374
  24521076.96547  19119274.20445  22232315.8284                   22232314.6024
   2829899.93047   2214906.42844  22786421.1174                   22786418.8244
  18396027.31647  14346073.44545  22619324.9534                   22619324.1724
  36852650.02347  28727928.10744  23906493.8364                   23906491.7894
  26103589.79347  20352080.49145  22367572.4144                   22367571.2304
 11  8  2  0 17 30.0000000  0  8G17G02G04G09G28G27G12G10
   6470502.70747   5054805.44946  21987236.2424                   21987234.2194
  18018763.60548  14053067.76146  21465826.9064                   21465823.4804
   5781608.00848   4518744.47647  20114906.6024                   20114904.6484
  24505009.39547  19106753.99045  22229258.3284                   22229256.7624
   2872339.64147   2247976.28445  22794496.6724                   22794495.9774
  18385558.43047  14337915.84445  22617332.7894                   22617332.0044
  36722916.24247  28626836.89244  23881805.7424                   23881804.1764
  25989239.59847  20262976.52645  22345811.7584                   22345811.4534
 11  8  2  0 18  0.0000000  0  8G17G02G04G09G28G27G12G10
   6473569.37547   5057195.04646  21987819.5164                   21987818.0124
  17930847.62548  13984561.83946  21449096.9144                   21449093.4144
   5775073.75048   4513652.83546  20113662.8984                   20113661.1884
  24489549.73447  19094707.48645  22226316.4064                   22226315.1414
   2915126.56647   2281316.67345  22802639.4064                   22802637.4534
  18375530.53947  14330101.89145  22615424.2734                   22615423.7114
  36593253.90247  28525801.38144  23857132.0394                   23857130.2304
  25875190.20347  20174106.91345  22324108.7424                   22324107.8594
 11  8  2  0 18 30.0000000  0  8G17G02G04G09G28G27G12G10
   6476727.60247   5059655.97846  21988420.8054                   21988418.3714
  17843301.08648  13916343.79446  21432437.5784                   21432433.5554
   5769033.85548   4508946.40946  20112513.9774                   20112511.9384
  24474696.25848  19083133.33145  22223490.4224                   22223489.0084
   2958259.50847   2314926.68045  22810847.4384                   22810845.7154
  18365942.10547  14322630.34345  22613600.2584                   22613599.1414
  36463664.55147  28424822.70944  23832471.9844                   23832470.0514
  25761444.49647  20085473.95145  22302464.2734                   22302462.3014
 11  8  2  0 19  0.0000000  0  8G17G02G04G09G28G27G12G10
   6479982.15648   5062191.98246  21989040.0314                   21989037.4884
  17756129.21548  13848417.69646  21415849.3914                   21415845.4614
   5763491.22348   4504627.46447  20111459.1414                   20111457.1994
  24460452.07047  19072033.94845  22220779.5864                   22220778.1914
   3001742.41047   2348809.42144  22819121.3984                   22819120.2934
  18356796.18847  14315503.63845  22611859.6954                   22611858.8634
  36334155.40647  28323906.55444  23807827.2344                   23807825.3364
  25648010.52747  19997083.88345  22280877.9844                   22280877.0824
 11  8  2  0 19 30.0000000  0  8G17G02G04G09G28G27G12G10
   6483330.15648   5064800.81546  21989677.2584                   21989674.8284
  17669328.64148  13780780.90946  21399331.7734                   21399328.0084
   5758440.47348   4500691.81646  20110497.8754                   20110496.0824
  24446811.89547  19061405.21845  22218183.4924                   22218182.5514
   3045570.43047   2382961.03845  22827462.0474                   22827460.9534
  18348087.55147  14308717.65645  22610202.6804                   22610201.3284
  36204724.64547  28223051.51744  23783196.7734                   23783195.4304
  25534887.65647  19908936.24545  22259351.1484                   22259350.2704
 11  8  2  0 20  0.0000000  0  8G17G02G04G09G28G27G12G10
   6486769.73447   5067480.99046  21990331.6174                   21990329.5864
  17582898.56648  13713432.85046  21382884.7274                   21382880.7274
   5753878.11748   4497136.73847  20109629.7814                   20109627.8244
  24433772.47747  19051244.61645  22215702.7034                   22215701.5164
   3089740.93447   2417379.57545  22835867.4064                   22835866.2424
  18339813.05147  14302269.97045  22608628.0944                   22608626.6884
  36075373.11347  28122258.15744  23758582.3914                   23758580.2304
  25422077.92247  19821032.59845  22237884.2974                   22237883.1484
 11  8  2  0 20 30.0000000  0  8G17G02G04G09G28G27G12G10
   6490303.26647   5070234.38246  21991004.3444                   21991001.7704
  17496841.30548  13646375.27646  21366508.3834                   21366504.4844
   5749804.40648   4493962.41546  20108854.7274                   20108852.5474
  24421334.50847  19041552.64545  22213335.4694                   22213334.3524
   3134254.93047   2452065.74145  22844338.5554                   22844336.4414
  18331973.16447  14296160.95645  22607136.2344                   22607135.3204
  35946105.06347  28021529.88344  23733983.5234                   23733981.3014
  25309586.54747  19733377.01145  22216478.0394                   22216476.7074
 11  8  2  0 21  0.0000000  0  8G17G02G04G09G28G27G12G10
   6493934.27047   5073063.72746  21991695.1024                   21991692.7854
  17411160.23048  13579610.83546  21350203.6884                   21350200.0234
   5746220.40248   4491169.68646  20108172.4454                   20108170.6804
  24409499.04748  19032330.21545  22211083.3754                   22211082.1994
   3179114.33647   2487021.05445  22852874.3674                   22852874.0704
  18324569.38747  14290391.74645  22605727.2814                   22605726.4614
  35816925.56347  27920870.56044  23709400.7194                   23709399.0204
  25197419.92247  19645974.48745  22195133.8134                   22195132.2934
 11  8  2  0 21 30.0000000  0  8G17G02G04G09G28G27G12G10
   6497654.48847   5075962.58346  21992403.1024                   21992400.7074
  17325847.30148  13513133.26546  21333969.2584                   21333965.5274
   5743116.00448   4488750.67646  20107581.9224                   20107580.1724
  24398256.68847  19023569.91445  22208943.9924                   22208942.6374
   3224309.94947   2522238.37944  22861474.8914                   22861473.6954
  18317591.91447  14284954.72445  22604399.5704                   22604398.7424
  35687828.68447  27820275.64744  23684835.2814                   23684833.1914
  25085573.11347  19558821.19645  22173849.7424                   22173848.6644
 11  8  2  0 22  0.0000000  0  8G17G02G04G09G28G27G12G10
   6501468.23047   5078934.32346  21993128.9224                   21993126.4924
  17240906.95748  13446946.02046  21317805.4224                   21317801.6374
   5740493.20747   4486706.94046  20107082.7344                   20107080.7894
  24387609.38347  19015273.29045  22206918.1724                   22206916.6294
   3269844.59047   2557719.86944  22870140.6254                   22870138.7304
  18311043.03547  14279851.66345  22603153.6334                   22603152.4454
  35558820.28947  27719749.68044  23660285.3754                   23660283.5394
  24974053.13347  19471922.55645  22152627.8594                   22152626.9654
 11  8  2  0 22 30.0000000  0  8G17G02G04G09G28G27G12G10
   6505378.04747   5081980.92646  21993872.7584                   21993870.5594
  17156342.10248  13381051.35946  21301713.4224                   21301709.6684
   5738352.52348   4485038.85846  20106675.1804                   20106673.5904
  24377557.48447  19007440.61245  22205005.0474                   22205004.4184
   3315719.71547   2593466.62644  22878869.7344                   22878868.2234
  18304923.23447  14275082.95445  22601988.4534                   22601988.1334
  35429904.82447  27619296.14244  23635753.3674                   23635751.1604
  24862865.48447  19385282.88245  22131469.3054                   22131468.6094
 11  8  2  0 23  0.0000000  0  8G17G02G04G09G28G27G12G10
   6509381.08247   5085100.16246  21994634.8594                   21994632.4104
  17072149.63748  13315446.88246  21285692.3134                   21285688.4654
   5736688.48448   4483742.19846  20106358.7814                   20106356.5554
  24368096.18047  19000068.14945  22203204.5864                   22203203.6524
   3361930.05547   2629474.65844  22887663.3594                   22887662.4144
  18299227.59447  14270644.75845  22600905.0554                   22600904.5084
  35301081.08647  27518914.03044  23611239.0704                   23611236.9344
  24752010.22747  19298902.19345  22110374.7584                   22110373.8204
 11  8  2  0 23 30.0000000  0  8G17G02G04G09G28G27G12G10
   6513474.09448   5088289.51646  21995413.8834                   21995411.6454
  16988326.70348  13250130.34146  21269741.2584                   21269737.4414
   5735495.91448   4482812.92246  20106131.8754                   20106129.7384
  24359220.38747  18993151.95045  22201515.9774                   22201514.8634
   3408471.31347   2665740.52844  22896519.8674                   22896519.1054
  18293951.02747  14266533.10945  22599900.6724                   22599900.1454
  35172348.14847  27418602.69344  23586741.6724                   23586739.8204
  24641487.25047  19212780.42345  22089342.8524                   22089342.1174
 11  8  2  0 24  0.0000000  0  8G17G02G04G09G28G27G12G10
   6517660.70347   5091551.79346  21996210.0944                   21996207.9264
  16904876.63748  13185104.34146  21253860.8834                   21253857.4654
   5734776.16448   4482252.07746  20105994.7664                   20105992.6484
  24350931.49247  18986693.04745  22199938.6174                   22199937.3444
   3455346.31347   2702266.43844  22905439.8594                   22905438.4884
  18289095.28147  14262749.37245  22598977.2034                   22598975.9494
  35043711.74247  27318366.57044  23562263.4304                   23562260.9964
  24531303.19547  19126922.75645  22068375.4774                   22068374.9064
 11  8  2  0 24 30.0000000  0  8G17G02G04G09G28G27G12G10
   6521948.64547   5094893.02146  21997026.5314                   21997024.0274
  16821807.43048  13120375.12946  21238053.3984                   21238049.7854
   5734534.96948   4482064.12646  20105948.9384                   20105946.9614
  24343235.37547  18980696.05745  22198474.1644                   22198473.0514
   3502560.85547   2739056.94744  22914424.6334                   22914423.0474
  18284666.21947  14259298.12145  22598134.0164                   22598133.2114
  34915181.57447  27218213.23644  23537804.9384                   23537802.9344
  24421469.05947  19041337.75145  22047474.3204                   22047474.0984
 11  8  2  0 25  0.0000000  0  8G17G02G04G09G28G27G12G10
   6526331.58247   5098308.27345  21997860.4384                   21997857.7664
  16739112.76248  13055937.75646  21222317.0944                   21222313.3554
   5734763.55948   4482242.25146  20105992.4384                   20105990.6334
  24336123.11347  18975154.02545  22197120.4224                   22197119.4304
   3550107.28547   2776106.05145  22923473.1334                   22923470.8284
  18280655.38747  14256172.75445  22597370.9844                   22597370.2854
  34786752.75447  27118138.85244  23513365.5634                   23513363.2734
  24311981.20347  18956022.57945  22026639.7664                   22026638.9534
 11  8  2  0 25 30.0000000  0  8G17G02G04G09G28G27G12G10
   6530808.21148   5101796.52745  21998712.1724                   21998710.0164
  16656791.25448  12991791.14746  21206652.1094                   21206648.0904
   5735458.27748   4482783.57646  20106124.5554                   20106122.4884
  24329591.71947  18970064.61645  22195877.7504                   22195876.6334
   3597982.60947   2813411.45344  22932583.3984                   22932581.7424
  18277059.47747  14253370.68645  22596686.8204                   22596685.7854
  34658425.91847  27018143.95245  23488946.3674                   23488944.0314
  24202841.45747  18870978.64645  22005870.8594                   22005870.1804
 11  8  2  0 26  0.0000000  0  8G17G02G04G09G28G27G12G10
   6535379.55948   5105358.59446  21999582.2814                   21999579.6804
  16574843.52348  12927935.79446  21191057.7034                   21191054.3284
   5736617.43048   4483686.81447  20106345.2424                   20106343.4144
  24323639.36347  18965426.38345  22194745.6804                   22194744.2384
   3646185.91447   2850972.41744  22941756.3914                   22941754.1174
  18273877.02347  14250890.84645  22596081.1334                   22596080.5594
  34530203.78547  26918230.62444  23464546.1884                   23464544.1294
  24094052.89547  18786208.39045  21985169.3284                   21985168.4844
 11  8  2  0 26 30.0000000  0  8G17G02G04G09G28G27G12G10
   6540048.16048   5108996.45146  22000470.6884                   22000468.4654
  16493272.71948  12864374.15546  21175535.2814                   21175531.3594
   5738242.00048   4484952.71246  20106654.2974                   20106652.5474
  24318266.72747  18961239.91045  22193722.6724                   22193721.3524
   3694719.15647   2888790.46844  22950991.7344                   22950989.8054
  18271109.20747  14248734.05545  22595554.3674                   22595553.3204
  34402091.68447  26818403.06344  23440166.6954                   23440165.2894
  23985621.76647  18701716.65045  21964535.2734                   21964534.6134
 11  8  2  0 27  0.0000000  0  8G17G02G04G09G28G27G12G10
   6544812.45348   5112708.86646  22001376.9384                   22001374.8204
  16412077.01648  12801104.79446  21160084.2664                   21160080.5204
   5740327.84048   4486578.04047  20107051.3054                   20107049.4144
  24313469.61747  18957501.87645  22192810.1174                   22192808.3134
   3743578.72747   2926862.78644  22960289.0394                   22960287.8094
  18268751.87547  14246897.13645  22595106.1094                   22595104.7114
  34274089.35547  26718661.01345  23415809.0634                   23415807.4654
  23877549.41847  18617504.47545  21943969.7664                   21943968.5904
 11  8  2  0 27 30.0000000  0  8G17G02G04G09G28G27G12G10
   6549672.10947   5116495.57946  22002301.9454                   22002299.5004
  16331255.74648  12738127.20446  21144704.6484                   21144700.4844
   5742871.97348   4488560.47647  20107535.5084                   20107533.7504
  24309245.77747  18954210.53345  22192005.8364                   22192004.9184
   3792762.72347   2965187.90644  22969648.2274                   22969647.1604
  18266802.60947  14245378.19145  22594734.9774                   22594733.8554
  34146198.81647  26619006.09344  23391472.2344                   23391470.2704
  23769838.05947  18533573.57845  21923472.9304                   21923472.0634
 11  8  2  0 28  0.0000000  0  8G17G02G04G09G28G27G12G10
   6554627.43047   5120356.83246  22003244.7584                   22003242.7464
  16250809.09848  12675441.52446  21129396.0004                   21129392.0744
   5745872.57448   4490898.61046  20108106.4304                   20108104.7854
  24305593.07847  18951364.26145  22191310.4694                   22191309.8364
   3842269.85247   3003764.81844  22979069.7194                   22979068.2384
  18265259.51647  14244175.75945  22594441.0474                   22594440.4064
  34018421.92647  26519439.70744  23367156.6334                   23367155.4224
  23662491.08247  18449926.62245  21903045.6414                   21903044.5274
 11  8  2  0 28 30.0000000  0  8G17G02G04G09G28G27G12G10
   6559681.21947   5124294.83946  22004206.3754                   22004204.8754
  16170739.92248  12613049.98646  21114159.2424                   21114155.4184
   5749329.97347   4493592.68746  20108764.2274                   20108762.2504
  24302512.09447  18948963.46945  22190724.4064                   22190723.6914
   3892100.74247   3042594.00644  22988552.2194                   22988550.8244
  18264123.39547  14243290.42945  22594224.9454                   22594224.3244
  33890763.51247  26419965.68344  23342864.5084                   23342862.7154
  23555514.02048  18366567.94345  21882688.8594                   21882688.0434
 11  8  2  0 29  0.0000000  0  8G17G02G04G09G28G27G12G10
   6564832.35547   5128308.68846  22005186.8364                   22005184.8444
  16091046.95748  12550951.59646  21098994.0784                   21098990.4414
   5753240.90248   4496640.17246  20109508.5944                   20109506.8364
  24299999.25047  18947005.38545  22190246.5634                   22190245.4734
   3942253.66447   3081674.13744  22998096.2344                   22998094.5084
  18263390.99647  14242719.70745  22594086.2974                   22594085.0204
  33763224.74647  26320584.85544  23318594.6884                   23318592.5274
  23448908.65248  18283498.85045  21862402.3754                   21862401.2934
 11  8  2  0 29 30.0000000  0  8G17G02G04G09G28G27G12G10
   6570084.99248   5132401.63646  22006186.8914                   22006184.0984
  16011734.35548  12489149.58246  21083901.5164                   21083897.5904
   5757606.64848   4500042.06547  20110339.2664                   20110337.1414
  24298056.21947  18945491.32445  22189876.5314                   22189875.5904
   3992730.61347   3121006.74044  23007701.5784                   23007700.1954
  18263064.11347  14242464.94945  22594023.3594                   22594022.7934
  33635811.37547  26221301.74844  23294348.5004                   23294346.5474
  23342681.89848  18200724.79545  21842187.8914                   21842187.2154
 11  8  2  0 30  0.0000000  0  8G17G02G04G09G28G27G12G10
   6575434.88748   5136570.34445  22007204.4614                   22007202.3164
  15932797.62548  12427640.47346  21068880.3914                   21068876.6564
   5762420.89848   4503793.42046  20111255.6884                   20111253.3914
  24296676.39847  18944416.08845  22189614.4064                   22189613.0824
   4043525.82847   3160587.37844  23017367.3594                   23017366.5044
  18263135.94947  14242520.90445  22594037.2274                   22594036.2194
  33508521.14847  26122114.59345  23270125.8284                   23270123.9414
  23236832.28548  18118244.63245  21822045.3524                   21822044.8594
 11  8  2  0 30 30.0000000  0  8G17G02G04G09G28G27G12G10
   6580882.37948   5140815.14346  22008241.3754                   22008239.6414
  15854236.71148  12366424.20346  21053930.6954                   21053926.6414
   5767681.36348   4507892.49046  20112256.7344                   20112254.4924
  24295857.61747  18943778.04645  22189458.3834                   22189457.1604
   4094637.92247   3200414.89344  23027093.5164                   23027092.6524
  18263604.87547  14242886.28945  22594126.6884                   22594125.6094
  33381356.52047  26023025.33645  23245927.5704                   23245924.9844
  23131363.25448  18036061.00445  21801975.4534                   21801974.5434
 11  8  2  0 31  0.0000000  0  8G17G02G04G09G28G27G12G10
   6586426.85948   5145135.48546  22009296.4144                   22009294.2704
  15776050.74248  12305500.08246  21039052.1884                   21039048.2464
   5773384.84048   4512336.74047  20113341.7664                   20113340.0744
  24295596.77747  18943574.76945  22189409.2344                   22189407.6884
   4146064.29747   3240487.29144  23036880.2344                   23036879.0354
  18264467.75447  14243558.65045  22594290.6884                   22594289.9454
  33254318.67647  25924034.85945  23221752.9534                   23221751.1994
  23026276.78948  17954175.50445  21781978.1334                   21781976.4804
 11  8  2  0 31 30.0000000  0  8G17G02G04G09G28G27G12G10
   6592070.50448   5149533.11346  22010370.0784                   22010368.6484
  15698241.78148  12244869.74446  21024245.6884                   21024241.7304
   5779531.54348   4517126.38346  20114511.4384                   20114509.6054
  24295893.39547  18943805.87045  22189465.9454                   22189464.7424
   4197805.81647   3280805.26644  23046726.3594                   23046724.8984
  18265724.73447  14244538.08545  22594529.7424                   22594529.2854
  33127412.03947  25825146.59344  23197602.9534                   23197600.9264
  22921577.54748  17872591.72045  21762053.9534                   21762053.1954
 11  8  2  0 32  0.0000000  0  8G17G02G04G09G28G27G12G10
   6597813.41847   5154008.08646  22011462.8134                   22011461.0984
  15620809.59448  12184532.99346  21009510.8754                   21009506.9884
   5786118.76248   4522259.26146  20115765.1884                   20115763.2034
  24296745.12547  18944469.52545  22189627.8054                   22189626.3674
   4249860.61747   3321367.37444  23056632.3284                   23056631.0704
  18267373.58247  14245822.87945  22594843.7194                   22594842.9884
  33000638.22347  25726361.86145  23173479.0784                   23173477.0004
  22817268.72348  17791312.17045  21742205.1174                   21742204.1214
 11  8  2  0 32 30.0000000  0  8G17G02G04G09G28G27G12G10
   6603655.41847   5158560.28546  22012574.9534                   22012572.9064
  15543754.09448  12124489.77046  20994847.7894                   20994843.5634
   5793143.70748   4527733.24446  20117101.9454                   20117099.6724
  24298149.13747  18945563.53945  22189895.1484                   22189893.5704
   4302226.80947   3362172.13944  23066596.2274                   23066595.9844
  18269411.77347  14247411.06545  22595231.7034                   22595230.9384
  32873999.00847  25627681.98845  23149380.1174                   23149377.9384
  22713352.82848  17710338.79445  21722430.3754                   21722428.8674
 11  8  2  0 33  0.0000000  0  8G17G02G04G09G28G27G12G10
   6609599.12947   5163191.74246  22013705.5234                   22013703.9024
  15467077.28148  12064741.61846  20980256.6724                   20980252.5004
   5800606.49648   4533548.40446  20118521.8054                   20118519.9224
  24300105.18447  18947087.70045  22190267.1484                   22190265.7504
   4354905.04747   3403220.02244  23076621.4694                   23076620.4264
  18271839.55547  14249302.82145  22595693.6414                   22595692.9064
  32747499.21947  25529110.75245  23125308.2424                   23125305.7664
  22609835.06648  17629675.65245  21702731.6174                   21702730.3444
 11  8  2  0 33 30.0000000  0  8G17G02G04G09G28G27G12G10
   6615646.76247   5167904.16845  22014856.6954                   22014854.6684
  15390781.31648  12005290.23546  20965738.0004                   20965734.2424
   5808506.86748   4539704.51246  20120025.4384                   20120023.5664
  24302613.22747  18949041.98745  22190744.3594                   22190742.8244
   4407896.01247   3444511.63244  23086705.7584                   23086704.2664
  18274656.86347  14251498.11845  22596229.7974                   22596229.5474
  32621143.23847  25430651.60845  23101264.0864                   23101261.6054
  22506720.52748  17549326.70345  21683109.4454                   21683108.2544
 11  8  2  0 34  0.0000000  0  8G17G02G04G09G28G27G12G10
   6621792.56347   5172693.11146  22016026.5164                   22016023.8054
  15314859.94148  11946130.73146  20951290.4774                   20951286.5474
   5816836.52748   4546195.16546  20121610.7274                   20121608.3484
  24305664.73847  18951419.76945  22191324.7814                   22191324.2384
   4461192.19547   3486041.02044  23096847.6884                   23096845.7194
  18277855.49647  14253990.51745  22596838.8754                   22596837.8524
  32494927.26647  25332301.53945  23077245.2664                   23077243.3874
  22404006.10948  17469289.54545  21663564.0234                   21663562.3204
 11  8  2  0 34 30.0000000  0  9G17G02G04G09G28G27G12G10G05
   6628036.82847   5177558.74646  22017214.2664                   22017211.9104
  15239312.87548  11887262.92046  20936914.3594                   20936910.3094
   5825593.20748   4553018.53346  20123277.0164                   20123274.7584
  24309257.08247  18954218.96445  22192008.8134                   22192007.3914
   4514791.73847   3527806.82844  23107046.7424                   23107045.9104
  18281433.23047  14256778.33945  22597519.5784                   22597518.1764
  32368852.97347  25234061.87345  23053253.9454                   23053252.4184
  22301694.64548  17389566.37045  21644094.4534                   21644093.1524
  40756738.32056  31771173.30353  24243902.1334                   24243902.1254
 11  8  2  0 35  0.0000000  0  9G17G02G04G09G28G27G12G10G05
   6634368.50848   5182492.51045  22018419.5394                   22018417.6134
  15164129.20348  11828678.26346  20922607.5864                   20922603.7894
   5834763.44148   4560164.17446  20125021.7194                   20125020.2774
  24313376.66047  18957428.99545  22192792.9224                   22192791.3164
   4568682.13347   3569799.25644  23117301.6334                   23117301.0474
  18285376.75047  14259851.18645  22598269.6484                   22598268.9144
  32242911.57847  25135925.78145  23029288.2274                   23029286.4654
  22199778.10248  17310150.92545  21624700.2894                   21624698.6724
  40617731.55146  31662856.53943  24217450.2114                   24217449.9224
 11  8  2  0 35 30.0000000  0  9G17G02G04G09G28G27G12G10G05
   6640788.44148   5187495.04145  22019641.0474                   22019638.9144
  15089309.16448  11770376.96046  20908369.5944                   20908365.8364
   5844345.39848   4567630.62046  20126845.4384                   20126843.3094
  24318021.46947  18961048.31245  22193676.8134                   22193675.3054
   4622862.27747   3612017.46144  23127612.3914                   23127611.1054
  18289684.53947  14263207.86545  22599089.6334                   22599088.8594
  32117106.30547  25037895.75145  23005348.0704                   23005346.0514
  22098260.04748  17231045.97046  21605381.9694                   21605380.5824
  40478671.33246  31554498.13843  24190986.7034                   24190987.2584
 11  8  2  0 36  0.0000000  0  9G17G02G04G09G28G27G12G10G05
   6647296.06648   5192565.90945  22020879.6414                   22020877.7194
  15014851.67248  11712358.16446  20894201.1094                   20894196.7704
   5854335.67248   4575415.25346  20128746.2424                   20128744.3984
  24323188.27747  18965074.36545  22194660.0164                   22194658.5474
   4677329.73047   3654459.55944  23137977.3834                   23137975.9804
  18294353.10547  14266845.67245  22599977.7814                   22599977.1684
  31991438.04347  24939972.47745  22981434.0314                   22981431.9804
  21997142.10548  17152252.80445  21586140.0634                   21586138.6024
  40339559.77046  31446099.69244  24164514.8134                   24164516.4734
 11  8  2  0 36 30.0000000  0  9G17G02G04G09G28G27G12G10G05
   6653898.87547   5197710.94045  22022135.9144                   22022134.0634
  14940763.95348  11654627.49446  20880102.2194                   20880098.3674
   5864739.31648   4583521.98246  20130726.0234                   20130723.8984
  24328881.82447  18969510.88145  22195743.1804                   22195741.9264
   4732089.69947   3697129.59744  23148397.4384                   23148396.5274
  18299387.72746  14270768.72545  22600936.4614                   22600935.5044
  31865916.43847  24842163.44745  22957548.1804                   22957546.2544
  21896434.45748  17073779.33345  21566976.0634                   21566974.1684
  40200405.78146  31337668.23744  24138034.8364                   24138036.0274
 11  8  2  0 37  0.0000000  0  9G17G02G04G09G28G27G12G10G05
   6660602.98847   5202934.91145  22023411.7584                   22023409.3164
  14867051.64148  11597189.35946  20866075.3834                   20866071.5634
   5875559.66848   4591953.42346  20132785.1884                   20132783.3554
  24335105.16447  18974360.21045  22196927.1954                   22196926.3404
   4787146.48047   3740030.90944  23158874.8134                   23158873.5864
  18304791.74247  14274979.60145  22601964.6414                   22601964.2194
  31740549.39547  24744474.84945  22933691.8984                   22933689.9734
  21796145.85948  16995632.42845  21547891.4224                   21547889.9224
  40061218.06346  31229210.45644  24111548.1564                   24111548.2504
 11  8  2  0 37 30.0000000  0  9G17G02G04G09G28G27G12G10G05
   8242825.55947   6435835.59145  22324498.5234                   22324496.4844
  16369133.99248  12767643.16646  21151912.3284                   21151908.3444
   7462211.31648   5828305.34946  20434715.3054                   20434713.1024
  25917272.75847  20207218.03245  22498003.8754                   22498002.7384
   6417914.00447   5010758.76444  23469199.6644                   23469198.0664
  19885979.90647  15507074.23045  22902854.4534                   22902853.5354
  33190760.69547  25874509.65045  23209657.9614                   23209655.7384
  23271699.80147  18145414.75345  21828680.1954                   21828678.7384
  41497421.65647  32348330.31144  24384848.2034                   24384848.8634
 11  8  2  0 38  0.0000000  0  9G17G02G04G09G28G27G12G10G05
   8249729.66447   6441215.39346  22325812.4224                   22325810.8014
  16296168.80948  12710787.20846  21138027.3524                   21138023.4614
   7473855.25848   5837378.55046  20436930.9224                   20436928.7034
  25924544.93847  20212884.65345  22499388.0864                   22499386.6054
   6473556.83246   5054116.75144  23479788.3134                   23479786.2734
  19892113.10546  15511853.30345  22904022.0314                   22904020.8794
  33065707.10947  25777065.34345  23185860.5234                   23185858.1484
  23172254.90648  18067925.24846  21809756.2504                   21809755.1254
  41358171.57846  32239823.93944  24358350.3364                   24358350.4614
 11  8  2  0 38 30.0000000  0  9G17G02G04G09G28G27G12G10G05
   8256738.15647   6446676.53345  22327145.8834                   22327144.4734
  16223580.64548  12654225.02946  21124214.2664                   21124210.4304
   7485910.93048   5846772.58246  20439224.5554                   20439222.6334
  25932341.54347  20218959.88945  22500871.5394                   22500869.8594
   6529493.53547   5097703.70444  23490432.9844                   23490430.8714
  19898611.18047  15516916.71045  22905258.6564                   22905257.2584
  32940816.96147  25679748.36045  23162094.9454                   23162092.5044
  23073239.71147  17990770.58746  21790914.4774                   21790913.0864
  41218897.52046  32131298.84144  24331847.5394                   24331847.7894
 11  8  2  0 39  0.0000000  0  9G17G02G04G09G28G27G12G10G05
   8263851.64848   6452219.48845  22328499.4774                   22328498.0984
  16151369.87148  12597956.92346  21110472.9064                   21110469.0044
   7498376.73848   5856486.19446  20441596.9534                   20441594.7704
  25940660.39547  20225442.09145  22502454.7664                   22502452.9384
   6585723.39147   5141519.07444  23501132.9774                   23501131.9734
  19905472.57447  15522263.21345  22906564.2504                   22906563.2974
  32816093.17247  25582561.00445  23138360.8754                   23138358.7854
  22974657.81347  17913953.57146  21772154.8594                   21772153.1604
  41079602.74646  32022757.64844  24305339.7424                   24305340.5514
 11  8  2  0 39 30.0000000  0  9G17G02G04G09G28G27G12G10G05
   8271071.80547   6457845.55246  22329873.4844                   22329872.1024
  16079537.08648  12541983.33646  21096803.6724                   21096799.7504
   7511251.23848   5866518.26546  20444047.1094                   20444044.9884
  25949499.69147  20232329.83045  22504136.1484                   22504135.6094
   6642245.38347   5185562.15144  23511888.5394                   23511887.1374
  19912695.71147  15527891.58145  22907938.5084                   22907937.6524
  32691539.15247  25485505.92445  23114659.1644                   23114656.5784
  22876512.82848  17837476.97946  21753478.3914                   21753477.4454
  40940291.19146  31914203.33344  24278829.6564                   24278830.4494
 11  8  2  0 40  0.0000000  0  9G17G02G04G09G28G27G12G10G05
   8278400.11347   6463555.93045  22331268.0944                   22331266.3134
  16008083.77748  12486305.46246  21083206.6954                   21083202.8794
   7524533.55548   5876868.12046  20446574.5004                   20446572.3634
  25958858.28147  20239622.22045  22505917.2114                   22505915.6764
   6699059.57046   5229832.85544  23522700.3444                   23522698.3134
  19920279.82047  15533801.25045  22909381.9224                   22909381.4264
  32567158.82447  25388586.22745  23090990.4304                   23090987.8014
  22778809.06348  17761344.21446  21734886.0784                   21734884.8014
  40800966.70346  31805639.01344  24252316.6094                   24252317.6334
 11  8  2  0 40 30.0000000  0  9G17G02G04G09G28G27G12G10G05
   8285832.64547   6469347.49645  22332682.8524                   22332680.6294
  15937005.51248  12430919.82346  21069680.8754                   21069676.5354
   7538217.24248   5887530.72146  20449178.3524                   20449176.4774
  25968729.19147  20247313.80945  22507795.7974                   22507794.8444
   6756160.09046   5274326.67144  23533566.0084                   23533564.8404
  19928218.51647  15539987.19945  22910892.1884                   22910892.2774
  32442950.34447  25291800.42845  23067354.0704                   23067351.8094
  22681545.54348  17685554.49146  21716377.3134                   21716375.8244
  40661627.67647  31697063.30844  24225801.5164                   24225802.1294
 11  8  2  0 41  0.0000000  0  9G17G02G04G09G28G27G12G10G05
   8293365.91047   6475217.55845  22334116.0234                   22334113.5084
  15866298.02348  12375823.10946  21056225.3284                   21056221.9104
   7552295.89148   5898501.09346  20451857.2344                   20451855.2154
  25979105.89847  20255399.52245  22509770.4844                   22509769.2154
   6813541.33246   5319039.25043  23544485.5164                   23544484.0234
  19936505.62547  15546444.65345  22912469.4614                   22912469.1764
  32318911.81347  25195147.04745  23043750.5164                   23043748.3364
  22584720.54748  17610106.46146  21697952.5944                   21697950.7234
  40522272.66447  31588475.17444  24199283.1024                   24199283.6294
 11  8  2  0 41 30.0000000  0  9G17G02G04G09G28G27G12G10G05
   8301007.78148   6481172.24545  22335570.3284                   22335568.1214
  15795968.75048  12321021.09846  21042842.3594                   21042838.4024
   7566774.50848   5909783.12146  20454612.4844                   20454610.9184
  25989993.37147  20263883.27745  22511842.2894                   22511841.1604
   6871208.78146   5363974.82644  23555459.2504                   23555458.6294
  19945146.14847  15553177.47745  22914114.0474                   22914113.4924
  32195053.44147  25098634.08345  23020180.5944                   23020178.5434
  22488344.43448  17535008.22946  21679612.4774                   21679610.7704
  40382912.10946  31479882.69844  24172763.5004                   24172763.6174
 11  8  2  0 42  0.0000000  0  9G17G02G04G09G28G27G12G10G05
   8308753.27047   6487207.66645  22337044.3914                   22337042.0634
  15726011.98448  12266509.35246  21029529.9614                   21029525.8914
   7581645.51648   5921370.91046  20457442.7424                   20457440.6764
  26001383.33247  20272758.53745  22514009.5314                   22514008.6764
   6929155.48446   5409127.98544  23566486.0864                   23566486.0594
  19954132.30946  15560179.65345  22915823.0634                   22915823.1954
  32071372.01647  25002258.97845  22996645.0944                   22996642.8794
  22392415.16047  17460258.18646  21661357.7194                   21661355.7464
  40243543.00846  31371283.54144  24146242.4304                   24146241.8404
 11  8  2  0 42 30.0000000  0  9G17G02G04G09G28G27G12G10G05
   8316606.62147   6493327.16245  22338538.5314                   22338536.7814
  15656431.57848  12212290.87546  21016289.3134                   21016285.0904
   7596910.64848   5933265.81546  20460347.4064                   20460345.5704
  26013277.17247  20282026.43645  22516273.1334                   22516272.1844
   6987383.89546   5454500.67044  23577566.8524                   23577566.0784
  19963466.05547  15567452.66245  22917600.1254                   22917599.0634
  31947873.96547  24906026.75945  22973143.9534                   22973141.6644
  22296939.41447  17385861.54746  21643188.9064                   21643187.5904
  40104172.50446  31262683.30944  24119720.8914                   24119720.6374
 11  8  2  0 43  0.0000000  0  9G17G02G04G09G28G27G12G10G05
   8324565.68847   6499529.02345  22340053.1254                   22340051.0784
  15587224.30548  12158363.15846  21003119.3674                   21003115.5314
   7612564.55148   5945463.65246  20463326.2974                   20463324.6294
  26025669.28547  20291682.59245  22518631.1804                   22518630.2424
   7045889.57046   5500089.43544  23588701.0394                   23588699.7154
  19973142.41047  15574992.63945  22919441.3364                   22919440.9104
  31824558.70747  24809937.01145  22949678.0634                   22949675.5704
  22201916.72347  17311817.92346  21625107.0784                   21625105.4614
  39964800.29746  31154081.77344  24093198.5084                   24093199.3954
 11  8  2  0 43 30.0000000  0  9G17G02G04G09G28G27G12G10G05
   8332628.67647   6505811.84745  22341587.5704                   22341585.7234
  15518387.82448  12104724.36146  20990020.3524                   20990016.4844
   7628602.72348   5957960.91146  20466377.9304                   20466376.6764
  26038554.84447  20301723.26245  22521083.0394                   22521082.2624
   7104668.47346   5545891.10344  23599885.4454                   23599885.0084
  19983156.66047  15582795.92045  22921347.3134                   22921346.4494
  31701426.59447  24713989.93945  22926246.7584                   22926244.4144
  22107348.32847  17238128.28546  21607110.9694                   21607109.9304
  39825426.66047  31045479.12944  24066676.4384                   24066677.2854
 11  8  2  0 44  0.0000000  0  9G17G02G04G09G28G27G12G10G05
   8340796.86747   6512176.65845  22343141.8594                   22343140.1134
  15449923.24248  12051375.35846  20976991.9224                   20976987.7734
   7645024.07048   5970756.76046  20469503.0864                   20469501.4844
  26051932.27047  20312147.20445  22523628.6254                   22523627.9924
   7163720.17247   5591905.32044  23611123.0084                   23611121.3244
  19993507.73447  15590861.62744  22923317.2814                   22923316.2074
  31578481.07847  24618188.27845  22902850.8754                   22902848.9414
  22013238.03547  17164795.64046  21589202.3444                   21589201.0744
  39686055.73447  30936878.58944  24040154.8914                   24040155.5354
 11  8  2  0 44 30.0000000  0  9G17G02G04G09G28G27G12G10G05
   8349067.58247   6518621.35745  22344715.5234                   22344713.7274
  15381827.18048  11998313.51846  20964033.8204                   20964029.6884
   7661823.07848   5983846.88846  20472699.6334                   20472697.9654
  26065795.44147  20322949.66045  22526267.3984                   22526265.9534
   7223039.54347   5638128.08643  23622410.5004                   23622409.5784
  20004189.97347  15599185.42345  22925349.5164                   22925348.8524
  31455721.66047  24522531.64845  22879490.4774                   22879488.5784
  21919585.04747  17091819.32946  21571380.7504                   21571379.4064
  39546687.03947  30828279.78444  24013633.9304                   24013634.5474
 11  8  2  0 45  0.0000000  0  9G17G02G04G09G28G27G12G10G05
   8357439.26647   6525144.72845  22346308.8914                   22346306.5704
  15314097.14548  11945536.88846  20951145.1024                   20951141.0784
   7678995.17248   5997227.72746  20475967.6094                   20475966.1254
  26080139.68447  20334126.96745  22528996.5474                   22528995.5864
   7282622.98447   5684556.69443  23633748.9694                   23633747.4264
  20015198.88747  15607763.73544  22927445.0394                   22927444.0944
  31333149.02047  24427020.53445  22856165.7814                   22856163.8324
  21826390.23047  17019200.01546  21553646.1724                   21553645.0784
  39407321.28147  30719683.27644  23987112.5704                   23987114.2584
 11  8  2  0 45 30.0000000  0  9G17G02G04G09G28G27G12G10G05
   8365913.10948   6531747.70145  22347921.6254                   22347919.5744
  15246733.55548  11893045.78746  20938326.5314                   20938322.1294
   7696538.98448   6010898.21446  20479305.8674                   20479304.2774
  26094962.96547  20345677.54545  22531817.4614                   22531816.5864
   7342469.56647   5731190.31543  23645137.5784                   23645136.8204
  20026532.84847  15616595.35944  22929601.5944                   22929601.1484
  31210765.69547  24331656.93445  22832876.5944                   22832874.4884
  21733657.29347  16946940.61546  21535999.8984                   21535998.3134
  39267961.59047  30611091.50544  23960594.2274                   23960594.7624
 11  8  2  0 46  0.0000000  0  9G17G02G04G09G28G27G12G10G05
   8374489.22348   6538430.37445  22349553.1644                   22349551.2584
  15179735.69548  11840839.68046  20925576.7034                   20925572.8484
   7714451.54348   6024856.04246  20482714.7894                   20482712.7974
  26110262.28547  20357599.05645  22534729.0314                   22534727.9924
   7402577.10946   5778027.28343  23656575.0394                   23656574.8714
  20038189.39847  15625678.38145  22931819.9614                   22931819.5514
  31088573.84047  24236442.56845  22809624.3284                   22809622.5904
  21641388.31647  16875042.74446  21518441.3364                   21518440.0124
  39128610.56646  30502506.47144  23934075.2194                   23934077.3094
 11  8  2  0 46 30.0000000  0  9G17G02G04G09G28G27G12G10G05
   8383162.98448   6545189.12745  22351204.1484                   22351202.3324
  15113097.96148  11788914.19246  20912895.9774                   20912891.8054
   7732725.31348   6039095.34746  20486192.3674                   20486190.2194
  26126029.14547  20369884.89045  22537729.3364                   22537728.0824
   7462938.43046   5825061.95243  23668062.1954                   23668061.4654
  20050160.60247  15635006.54144  22934097.7114                   22934097.0004
  30966570.69947  24141375.20945  22786408.1094                   22786405.8954
  21549580.37147  16803504.11946  21500970.9694                   21500969.4964
  38989265.56347  30393926.10944  23907560.3204                   23907560.6524
 11  8  2  0 47  0.0000000  0  9G17G02G04G09G28G27G12G10G05
   8391938.15247   6552026.92245  22352874.5164                   22352871.9264
  15046824.35248  11737272.43146  20900284.6564                   20900280.9024
   7751361.91048   6053617.34246  20489738.5474                   20489736.4804
  26142264.96547  20382536.13645  22540818.8054                   22540818.1294
   7523555.97746   5872296.32543  23679596.9224                   23679596.7814
  20062448.19947  15644581.25544  22936436.0394                   22936435.6024
  30844762.87947  24046460.06245  22763228.6954                   22763226.2114
  21458240.69147  16732330.37946  21483589.6334                   21483587.7464
  38849933.49247  30285355.82944  23881045.1484                   23881046.4384
 11  8  2  0 47 30.0000000  0  9G17G02G04G09G28G27G12G10G05
   8400814.67247   6558943.67245  22354563.2584                   22354561.2584
  14980913.23448  11685913.13546  20887742.2734                   20887738.0434
   7770357.85948   6068419.37546  20493353.6414                   20493351.6804
  26158965.87147  20395549.80145  22543997.1024                   22543995.9024
   7584426.74246   5919727.97643  23691180.0554                   23691180.6024
  20075048.76247  15654399.85344  22938833.8524                   22938833.1024
  30723151.71147  23951698.15845  22740087.1484                   22740084.3164
  21367370.88347  16661522.76846  21466297.9224                   21466296.0664
  38710616.28547  30176797.11144  23854534.3524                   23854534.9104
 11  8  2  0 48  0.0000000  0  9G17G02G04G09G28G27G12G10G05
   8409787.60247   6565935.54945  22356270.1024                   22356268.3794
  14915358.95748  11634831.89446  20875267.6564                   20875263.3984
   7789705.81648   6083495.69846  20497035.2974                   20497033.3874
  26176123.63347  20408919.45645  22547262.3834                   22547260.7074
   7645543.80146   5967351.62143  23702810.4064                   23702809.4574
  20087954.67247  15664456.35044  22941289.8754                   22941289.5474
  30601734.50447  23857087.36945  22716982.0314                   22716979.6564
  21276968.59447  16591079.46046  21449095.1884                   21449093.0204
  38571311.58247  30068248.15544  23828025.8204                   23828026.7074
 11  8  2  0 48 30.0000000  0  9G17G02G04G09G28G27G12G10G05
   8418861.30947   6573005.93845  22357997.4694                   22357995.1954
  14850165.15248  11584031.55246  20862861.5394                   20862857.5354
   7809406.88348   6098847.17946  20500784.1884                   20500782.5354
  26193739.08247  20422645.75345  22550614.0234                   22550613.0124
   7706909.07046   6015168.62543  23714488.5004                   23714487.5314
  20101167.07047  15674751.70644  22943804.0084                   22943803.3094
  30480517.65247  23762632.73845  22693914.9924                   22693913.0314
  21187039.87147  16521005.16746  21431981.9924                   21431980.1954
  38432025.50447  29959713.69644  23801520.4144                   23801520.4884
 11  8  2  0 49  0.0000000  0  9G17G02G04G09G28G27G12G10G05
   8428038.67247   6580157.12745  22359743.6954                   22359741.5474
  14785334.14847  11533513.90946  20850524.7974                   20850520.6804
   7829461.41848   6114474.08246  20504600.4774                   20504598.6334
  26211812.14547  20436728.62445  22554053.7194                   22554052.2504
   7768523.78146   6063179.97043  23726213.0704                   23726212.3014
  20114686.19547  15685286.04545  22946377.1484                   22946376.1374
  30359505.85547  23668337.85345  22670887.1484                   22670884.8054
  21097590.01647  16451304.01946  21414960.0314                   21414958.6764
  38292763.47347  29851197.96444  23775019.2504                   23775019.5824
 11  8  2  0 49 30.0000000  0  9G17G02G04G09G28G27G12G10G05
   8437310.14547   6587381.61445  22361508.0634                   22361506.3134
  14720855.71948  11483270.99346  20838254.8594                   20838250.7814
   7849857.05148   6130366.78546  20508481.5864                   20508479.8714
  26230329.67247  20451157.83545  22557576.9384                   22557575.8634
   7830375.65246   6111376.12143  23737983.9774                   23737982.5274
  20128499.86347  15696049.90045  22949005.1094                   22949004.7624
  30238691.52347  23574196.83845  22647897.3364                   22647894.6914
  21008611.67248  16381970.27646  21398027.7274                   21398026.4384
  38153518.35947  29742695.44844  23748521.5864                   23748521.9494
 11  8  2  0 50  0.0000000  0  9G17G02G04G09G28G27G12G10G05
   8446682.85547   6594685.02045  22363291.6174                   22363289.9574
  14656735.43048  11433307.15946  20826053.4844                   20826049.0554
   7870597.62548   6146528.27046  20512428.2894                   20512426.5474
  26249295.29747  20465936.22445  22561186.5394                   22561185.1844
   7892469.25446   6159760.65043  23749800.0704                   23749799.4414
  20142611.77047  15707046.15844  22951690.6334                   22951690.2464
  30118083.71147  23480216.75145  22624946.1564                   22624943.5394
  20920113.68848  16313010.84746  21381187.2274                   21381186.0514
  38014299.43847  29634213.28044  23722029.0004                   23722029.5354
 11  8  2  0 50 30.0000000  0  9G17G02G04G09G28G27G12G10G05
   8456153.96147   6602065.09345  22365094.1174                   22365092.5984
  14592969.94948  11383619.78946  20813918.7114                   20813914.4574
   7891677.96148   6162954.49746  20516439.9224                   20516438.0084
  26268703.22747  20481059.23945  22564879.2894                   22564878.2194
   7954799.87946   6208329.89644  23761660.7194                   23761660.9414
  20157016.44947  15718270.53944  22954431.9694                   22954431.0434
  29997682.02747  23386397.26845  22602034.1804                   22602031.7344
  20832096.03548  16244425.69746  21364437.9924                   21364436.5984
  37875106.33247  29525751.28644  23695540.7194                   23695541.7194
 11  8  2  0 51  0.0000000  0  9G17G02G04G09G28G27G12G10G05
   8465730.50047   6609527.32745  22366916.4694                   22366914.4104
  14529565.55148  11334213.77746  20801853.4694                   20801849.0904
   7913102.10948   6179648.62946  20520516.7894                   20520514.8984
  26288556.67646  20496529.42045  22568658.0944                   22568656.5664
   8017372.07046   6257087.34443  23773568.0314                   23773567.6604
  20171718.04747  15729726.29944  22957229.4384                   22957228.3834
  29877495.36347  23292745.34845  22579163.5784                   22579161.2194
  20744567.62948  16176221.76146  21347781.8754                   21347780.4184
  37735948.75047  29417316.97744  23669060.3524                   23669060.4574
 11  8  2  0 51 30.0000000  0  9G17G02G04G09G28G27G12G10G05
   8475407.58247   6617067.87445  22368757.9924                   22368755.9184
  14466516.25448  11285084.47246  20789855.6024                   20789851.5944
   7934862.17648   6196604.50046  20524657.7034                   20524655.5824
  26308847.13346  20512340.13945  22572519.0554                   22572517.4534
   8080178.52346   6306027.38744  23785519.9924                   23785519.0824
  20186708.40247  15741407.04544  22960082.2274                   22960081.7384
  29757520.96547  23199258.82545  22556333.6334                   22556331.2114
  20657525.36348  16108396.65646  21331218.2114                   21331216.6724
  37596823.67647  29308907.98245  23642585.4144                   23642586.1994
 11  8  2  0 52  0.0000000  0  9G17G02G04G09G28G27G12G10G05
   8485188.75847   6624689.55545  22370618.6804                   22370617.0634
  14403825.09448  11236234.23046  20777925.6804                   20777921.9734
   7956959.11348   6213822.89346  20528862.6254                   20528860.4144
  26329574.92647  20528491.63745  22576463.3444                   22576461.7074
   8143220.91846   6355151.21543  23797516.4844                   23797515.6644
  20201988.37547  15753313.47545  22962989.9384                   22962989.4694
  29637764.13747  23105941.82845  22533544.3524                   22533541.2854
  20570974.98848  16040954.85046  21314748.5784                   21314746.5864
  37457737.16847  29200529.04645  23616117.9534                   23616118.8524
 11  8  2  0 52 30.0000000  0  9G17G02G04G09G28G27G12G10G05
   8495070.00847   6632389.19545  22372499.0944                   22372497.7544
  14341486.85548  11187659.00546  20766063.1024                   20766059.2194
   7979385.85548   6231298.27146  20533130.1954                   20533128.4064
  26350732.60547  20544978.11245  22580489.5314                   22580488.6764
   8206492.69946   6404453.84343  23809556.7344                   23809556.0704
  20217550.92647  15765440.09344  22965951.2814                   22965951.0594
  29518223.04747  23012792.95145  22510796.2814                   22510794.0474
  20484914.52048  15973894.75046  21298371.7424                   21298369.8754
  37318687.59847  29092178.87845  23589657.8364                   23589658.1804
 11  8  2  0 53  0.0000000  0  9G17G02G04G09G28G27G12G10G05
   8505055.68447   6640170.20745  22374399.5634                   22374397.7624
  14279504.84048  11139361.35446  20754268.5784                   20754264.0944
   8002143.68848   6249031.63246  20537460.7114                   20537459.2344
  26372320.68047  20561799.93845  22584597.4844                   22584596.3754
   8269995.40646   6453936.42343  23821640.9924                   23821640.2894
  20233397.28147  15777787.88344  22968967.2664                   22968966.6414
  29398903.87947  22919816.99745  22488090.8754                   22488088.1374
  20399350.40648  15907221.45246  21282089.3594                   21282087.6484
  37179681.50447  28983862.57445  23563206.1724                   23563206.7424
 11  8  2  0 53 30.0000000  0  9G17G02G04G09G28G27G12G10G05
   8515145.35947   6648032.26945  22376319.3754                   22376317.8594
  14217877.82048  11091340.32246  20742541.0784                   20742536.8754
   8025229.77048   6267020.76946  20541854.1804                   20541851.9414
  26394335.44546  20578954.27845  22588786.6484                   22588785.7424
   8333726.92646   6503597.21843  23833768.6564                   23833768.3364
  20249524.18847  15790354.27745  22972035.7034                   22972035.5514
  29279808.47747  22827015.39845  22465427.6724                   22465425.0234
  20314284.14548  15840936.08446  21265901.7814                   21265900.3404
  37040721.22747  28875581.99545  23536762.7584                   23536762.9384
 11  8  2  0 54  0.0000000  0  9G17G02G04G09G28G27G12G10G05
   8525343.87947   6655979.12745  22378260.6484                   22378258.3834
  14156609.93448  11043599.12046  20730882.5394                   20730878.4964
   8048645.71148   6285266.95246  20546310.0164                   20546308.2704
  26416778.37547  20596442.22445  22593057.5004                   22593056.6294
   8397689.58646   6553438.15443  23845939.7584                   23845939.1684
  20265933.55547  15803140.73544  22975158.3594                   22975157.4654
  29160943.73447  22734393.52745  22442808.3674                   22442806.0274
  20229722.67248  15775044.05846  21249810.0314                   21249808.5474
  36901813.76647  28767342.53645  23510329.1174                   23510329.5664
 11  8  2  0 54 30.0000000  0  9G17G02G04G09G28G27G12G10G05
   8535654.60947   6664013.43845  22380222.4694                   22380220.7504
  14095703.25848  10996139.39346  20719291.9844                   20719287.9414
   8072392.11748   6303770.63946  20550828.4454                   20550826.8134
  26439649.09846  20614263.56145  22597409.7274                   22597408.5004
   8461884.07446   6603459.72743  23858156.1484                   23858155.7424
  20282625.64847  15816147.52544  22978334.6484                   22978334.3164
  29042315.05947  22641955.62045  22420233.8524                   22420231.6054
  20145670.98448  15709549.25046  21233815.6174                   21233814.0904
  36762964.59447  28659148.54244  23483907.5394                   23483907.1054
 11  8  2  0 55  0.0000000  0  9G17G02G04G09G28G27G12G10G05
   8546074.57447   6672132.86645  22382205.6884                   22382203.9574
  14035153.85548  10948958.06746  20707769.9774                   20707765.7074
   8096462.83648   6322527.02546  20555409.3284                   20555407.6134
  26462940.92646  20632413.00445  22601842.0704                   22601841.4304
   8526304.93846   6653657.78243  23870415.4454                   23870414.7074
  20299594.24247  15829369.76844  22981564.2814                   22981563.8674
  28923921.19147  22549700.69245  22397704.9614                   22397702.1684
  20062127.99648  15644450.84646  21217917.9304                   21217916.1994
  36624172.94947  28550999.33744  23457495.3674                   23457494.8364
 11  8  2  0 55 30.0000000  0  9G17G02G04G09G28G27G12G10G05
   8556609.35947   6680341.78445  22384210.1954                   22384208.2664
  13974966.30548  10902058.69546  20696316.8914                   20696312.5864
   8120861.00448   6341538.57046  20560052.1954                   20560050.3484
  26486655.98847  20650892.23845  22606354.8364                   22606354.0554
   8590955.62146   6704034.82943  23882717.7504                   23882716.8444
  20316842.02747  15842809.54844  22984845.8524                   22984845.8094
  28805769.95347  22457634.81345  22375221.0784                   22375218.3164
  19979101.53948  15579754.92946  21202118.8524                   21202117.1954
  36485447.27747  28442901.53844  23431097.3984                   23431096.1724
 11  8  2  0 56  0.0000000  0  9G17G02G04G09G28G27G12G10G05
   8567260.95747   6688641.70545  22386237.1804                   22386235.5434
  13915141.73448  10855442.15246  20684932.7424                   20684928.7464
   8145585.52748   6360804.42946  20564757.1484                   20564754.9454
  26510792.70347  20669700.03945  22610947.6414                   22610947.2814
   8655835.71546   6754590.64943  23895064.2664                   23895063.7344
  20334368.04747  15856466.18044  22988181.0474                   22988180.7624
  28687865.27347  22365761.06845  22352784.4304                   22352781.9614
  19896595.35248  15515464.41146  21186418.1724                   21186416.7734
  36346791.87147  28334858.47045  23404711.4614                   23404711.0084
 11  8  2  0 56 30.0000000  0  9G17G02G04G09G28G27G12G10G05
   8578020.06347   6697025.39945  22388284.3364                   22388282.2774
  13855669.52748  10809100.19046  20673615.0944                   20673610.9344
   8170624.08648   6380314.98446  20569521.5084                   20569520.0824
  26535338.25446  20688826.40745  22615618.9694                   22615617.9064
   8720933.32846   6805316.00943  23907452.1094                   23907451.5274
  20352159.78547  15870329.79444  22991566.6954                   22991566.6294
  28570199.65247  22274073.59945  22330393.4924                   22330390.8954
  19814601.77348  15451573.35846  21170815.4304                   21170813.5744
  36208199.28147  28226864.38844  23378338.5164                   23378338.0864
 11  8  2  0 57  0.0000000  0  9G17G02G04G09G28G27G12G10G05
   8588895.41847   6705499.70045  22390354.1644                   22390352.4574
  13796557.71148  10763039.04746  20662366.4384                   20662362.2894
   8195982.80948   6400075.02346  20574347.2894                   20574345.5864
  26560298.05546  20708275.55245  22620368.5234                   22620367.4574
   8786254.86746   6856215.79543  23919882.0394                   23919881.5354
  20370223.20747  15884405.15644  22995003.9534                   22995004.1054
  28452784.37947  22182581.19945  22308050.0634                   22308047.6054
  19733132.03548  15388090.46946  21155311.9454                   21155310.2274
  36069681.16847  28118928.30244  23351978.9614                   23351978.8364
 11  8  2  0 57 30.0000000  0  8G17G02G04G09G27G12G10G05
   8599889.73847   6714066.68045  22392446.2584                   22392444.1764
  13737807.84048  10717259.95246  20651186.8914                   20651182.4884
   8221661.31348   6420084.23546  20579234.0084                   20579231.7074
  26585670.59447  20728046.34945  22625196.6024                   22625195.7154
  20388557.53547  15898691.57844  22998492.7584                   22998493.0394
  28335623.84047  22091287.31445  22285754.8914                   22285752.6454
  19652190.21548  15325018.95846  21139909.2194                   21139907.5784
  35931242.23447  28011053.91845  23325634.7814                   23325635.0204
 11  8  2  0 58  0.0000000  0  8G17G02G04G09G27G12G10G05
   8611003.60247   6722726.82145  22394561.1484                   22394559.5824
  13679419.53148  10671762.58946  20640075.9384                   20640071.7234
   8247657.23848   6440340.79746  20584180.6174                   20584178.7504
  26611453.01647  20748136.53745  22630103.1954                   22630102.1484
  20407160.51247  15913187.36044  23002032.8364                   23002032.8094
  28218721.02047  22000194.25545  22263508.8914                   22263506.7074
  19571778.85947  15262360.77046  21124607.8364                   21124605.9964
  35792885.70747  27903243.74245  23299306.4064                   23299306.2304
 11  8  2  0 58 30.0000000  0  8G17G02G04G09G27G12G10G05
   8622244.33647   6731485.80645  22396700.3834                   22396697.8094
  13621398.71148  10626551.56446  20629034.9454                   20629030.6604
   8273974.99248   6460848.12846  20589188.6024                   20589187.1024
  26637649.07447  20768549.01745  22635087.4064                   22635087.1604
  20426035.98047  15927895.45044  23005625.4064                   23005624.9614
  28102084.80947  21909308.91145  22241313.7584                   22241311.4144
  19491906.46148  15200122.57646  21109408.0784                   21109406.7034
  35654620.93047  27795505.08645  23272995.1644                   23272995.4534
 11  8  2  0 59  0.0000000  0  8G17G02G04G09G27G12G10G05
   8633616.41447   6740347.16445  22398864.3054                   22398862.6454
  13563749.44948  10581630.07846  20618064.3754                   20618060.2974
   8300616.60948   6481607.82546  20594258.2894                   20594256.8054
  26664259.64547  20789284.50545  22640152.1804                   22640151.0664
  20445185.78947  15942817.35944  23009269.4614                   23009269.5124
  27985721.95747  21818636.60345  22219170.9694                   22219168.3594
  19412579.94547  15138309.71846  21094312.8524                   21094311.3404
  35516455.36347  27687843.72745  23246703.3754                   23246703.0744
 11  8  2  0 59 30.0000000  0  8G17G02G04G09G27G12G10G05
   8645115.91047   6749307.79845  22401052.7974                   22401050.4534
  13506465.87148  10536993.53747  20607163.8834                   20607159.6134
   8327574.66048   6502614.08746  20599388.7664                   20599386.6374
  26691276.69147  20810336.71745  22645292.6414                   22645292.3524
  20464602.45747  15957947.16244  23012964.2424                   23012964.5704
  27869630.25847  21728175.56245  22197079.5314                   22197076.4414
  19333796.87148  15076920.33746  21079320.7664                   21079319.2664
  35378387.00047  27580258.10445  23220429.8754                   23220429.3404
 11  8  2  1  0  0.0000000  0  8G17G02G04G09G27G12G10G05
   8656742.85947   6758367.74445  22403265.2194                   22403263.1724
  13449547.14548  10492641.30146  20596332.7734                   20596328.6884
   8354846.28148   6523864.69346  20604577.9144                   20604576.4224
  26718696.46547  20831702.72945  22650510.9694                   22650509.9304
  20484282.87947  15973282.50944  23016708.9844                   23016709.0664
  27753811.89847  21637927.51045  22175039.9844                   22175037.4454
  19255558.73048  15015955.57046  21064432.8134                   21064431.3834
  35240418.17247  27472750.04645  23194175.3134                   23194174.8284
 11  8  2  1  0 30.0000000  0  8G17G02G04G09G27G12G10G05
   8668489.34847   6767520.83345  22405500.2114                   22405497.8984
  13392984.56648  10448566.57247  20585569.2504                   20585565.1054
   8382420.89848   6545351.38746  20609824.9614                   20609823.5164
  26746508.03547  20853374.05345  22655803.5784                   22655802.1334
  20504216.18847  15988814.89044  23020502.4924                   23020502.4224
  27638261.23847  21547888.06645  22153051.2114                   22153048.9304
  19177859.62948  14955410.83446  21049647.1484                   21049645.3634
  35102543.57847  27365315.43845  23167938.1484                   23167937.6724
 11  8  2  1  1  0.0000000  0  8G17G02G04G09G27G12G10G05
   8680365.88347   6776775.26145  22407760.4144                   22407758.2624
  13336787.48048  10404776.65147  20574874.9924                   20574871.0434
   8410306.15648   6567080.15046  20615131.7584                   20615129.9384
  26774717.82046  20875355.63845  22661171.3594                   22661170.6804
  20524410.13347  16004550.37244  23024345.7344                   23024345.5124
  27522990.78947  21458066.95546  22131116.3984                   22131113.6484
  19100711.96548  14895295.80046  21034966.2734                   21034964.5944
  34964775.84447  27257964.06745  23141721.8364                   23141721.7464
 11  8  2  1  1 30.0000000  0  8G17G02G04G09G27G12G10G05
  10267778.54747   8013720.18445  22709835.0864                   22709833.1564
  14856362.86348  11588861.38146  20864040.9304                   20864036.7424
  10013904.68048   7816637.42646  20920286.2974                   20920284.6214
  28378727.90646  22125233.58945  22966404.8914   22966404.0554   22120267.26247
  17248075.35944                  23328027.0394                   23328026.8524
  28983412.95747  22596058.28246  22409024.9144                   22409022.6254
  20599526.41848  16063203.20146  21320181.3754                   21320179.8714
  36402528.79347  28378291.15245  23415316.9064                   23415316.9654
 11  8  2  1  2  0.0000000  0  8G17G02G04G09G27G12G10G05
  10279891.52047   8023158.84945  22712139.9224                   22712138.0394
  14800869.44148  11545619.76146  20853480.4844                   20853476.4344
  10042378.53948   7838824.83846  20925705.0314                   20925703.1764
  28407699.33647  22147808.67945  22971917.9534   22971916.9694   22140948.76247
  17264190.75244                  23331962.1094                   23331962.4144
  28868685.23448                  22506660.09145                  22387192.9694
  22387190.4774   20523462.23048  16003932.43946  21305706.3984   21305705.1884
  36264958.72347  28271093.81644  23389138.0474                   23389137.8794
 11  8  2  1  2 30.0000000  0  8G17G02G04G09G27G12G10G05
  10292128.71947   8032694.31945  22714468.8914                   22714466.6994
  14745732.15648  11502655.65746  20842988.3914                   20842984.0434
  10071148.58248   7861243.03746  20931179.6174                   20931177.6684
  28437052.29347  22170681.09345  22977503.2664   22977502.6054   22161875.50847
  17280497.24044                  23335945.3444                   23335944.8754
  28754237.97347                  22417480.42246                  22365414.5474
  22365412.0824   20447948.26248  15945090.40446  21291336.8834   21291334.8164
  36127497.28947  28163981.08845  23362980.1414                   23362979.8754
 11  8  2  1  3  0.0000000  0  8G17G02G04G09G27G12G10G05
  10304488.16447   8042325.01345  22716820.6024                   22716819.0864
  14690947.71548  11459966.48446  20832563.4144                   20832559.0044
  10100209.83248   7883888.15846  20936709.7584                   20936707.7274
  28466780.62546  22193845.97045  22983160.7974   22983159.4574   22183042.05947
  17296990.61544                  23339972.4614                   23339972.7504
  28640070.90247                  22328519.09246                  22343689.3594
  22343686.8634   20372983.90248  15886676.63846  21277071.6484   21277069.7074
  35990144.75047  28056953.21445  23336842.7734                   23336842.0084
 11  8  2  1  3 30.0000000  0  8G17G02G04G09G27G12G10G05
  10316965.80547   8052047.83145  22719195.1884                   22719193.3484
  14636510.93048  11417548.22246  20822204.2664                   20822199.9654
  10129555.06648   7906754.56346  20942294.1644                   20942292.0514
  28496876.64546  22217297.37445  22988887.8914   22988886.7344   22204440.91447
  17313664.96344                  23344044.4844                   23344044.7544
  28526182.35947                  22239774.80546                  22322017.2504
  22322014.3834   20298566.81348  15828689.33246  21262910.3134   21262908.7464
  35852899.36747  27950008.86745  23310725.7974                   23310725.4774
 11  8  2  1  4  0.0000000  0  8G17G02G04G09G27G12G10G05
  10329566.36747   8061866.42745  22721592.8524                   22721591.4534
  14582425.21948  11375403.51947  20811912.1174                   20811907.8164
  10159186.16448   7929843.71946  20947932.5164                   20947930.8364
  28527340.84846  22241035.68945  22994684.8914   22994683.7624   22226073.63347
  17330521.56244                  23348161.7734                   23348161.1134
  28412578.73048                  22151252.51946                  22300398.9614
  22300397.0354   20224702.91848  15771133.07946  21248854.6174   21248852.7424
  35715767.95747  27843153.32045  23284630.5474                   23284629.9414
 11  8  2  1  4 30.0000000  0  8G17G02G04G09G27G12G10G05
  10342288.27747   8071779.59845  22724014.0004                   22724011.5474
  14528687.96148  11333530.34047  20801686.3834                   20801682.1094
  10189098.58248   7953152.08246  20953624.8284                   20953623.0204
  28558168.35947  22265057.10245  23000551.1804   23000549.7154   22247935.61747
  17347556.81644                  23352321.9064                   23352321.5434
  28299260.79347                  22062952.84746                  22278835.1564
  22278832.8914   20151392.57448  15714008.14246  21234904.2504   21234902.4384
  35578751.75047  27736387.54945  23258556.8284                   23258556.9064
 11  8  2  1  5  0.0000000  0  8G17G02G04G09G27G12G10G05
  10355136.80947   8081791.41745  22726458.8834                   22726457.4654
  14475302.93848  11291931.63047  20791527.3364                   20791523.1214
  10219294.85248   7976681.63846  20959370.9534                   20959369.1954
  28589360.55147  22289362.63845  23006486.8054   23006486.0124   22270029.02747
  17364772.40844                  23356525.9774                   23356525.9734
  28186235.55148                  21974881.27146                  22257327.4384
  22257324.8324   20078642.10548  15657319.51046  21221060.3444   21221058.5514
  35441857.96147  27629717.16945  23232506.8594                   23232506.1604
 11  8  2  1  5 30.0000000  0  8G17G02G04G09G27G12G10G05
  10368106.85947   8091897.92945  22728927.2504                   22728925.3404
  14422264.17648  11250602.72947  20781434.4844                   20781430.4924
  10249767.09048   8000426.22446  20965169.6724                   20965167.8554
  28620908.48047  22313945.39644  23012490.0704   23012489.4924   22292345.45347
  17382161.76844                  23360772.7664                   23360772.5234
  28073499.88347                  21887035.32446                  22235874.6024
  22235872.2504   20006448.09848  15601064.45246  21207322.2034   21207319.9654
  35305084.34447  27523140.41545  23206479.6884                   23206479.7704
 11  8  2  1  6  0.0000000  0  8G17G02G04G09G27G12G10G05
  10381199.18847   8102099.73045  22731418.7974                   22731416.8594
  14369571.27348  11209543.33246  20771407.5084                   20771403.1484
  10280513.03148   8024384.09246  20971020.3674                   20971018.6294
  28652809.02746  22338802.91145  23018560.5084   23018559.8014   22314882.48447
  17399723.02244                  23365061.5004                   23365061.3674
  27961056.96947                  21799417.51146                  22214476.7734
  22214474.7584   19934812.67648  15545244.67046  21193690.2814   21193687.9384
  35168433.85947  27416659.62845  23180475.9384                   23180475.1094
 11  8  2  1  6 30.0000000  0  8G17G02G04G09G27G12G10G05
  10394416.82848   8112399.15145  22733933.8674                   22733931.7234
  14317225.70348  11168754.58747  20761446.3364                   20761441.9414
  10311533.03148   8048555.52246  20976923.2664                   20976921.4614
  28685061.60947  22363934.74544  23024698.1414   23024697.6214   22337640.14147
  17417456.21544                  23369392.3444                   23369391.6054
  27848912.00847                  21712031.85546                  22193135.9384
  22193134.4494   19863740.80148  15489864.02746  21180165.7274   21180163.8554
  35031912.28947  27310279.26645  23154496.2274                   23154496.1374
 11  8  2  1  7  0.0000000  0  8G17G02G04G09G27G12G10G05
  10407765.24647   8122800.49145  22736474.1174                   22736471.9184
  14265231.44948  11128239.58746  20751552.0164                   20751547.6684
  10342829.02048   8072941.99346  20982878.3754                   20982876.9494
  28717667.62547  22389341.96544  23030902.9454   23030902.1524   22360620.29347
  17435362.77144                  23373764.6334                   23373765.3054
  27737071.76647                  21624883.64746                  22171853.7664
  22171851.6724   19793238.80948  15434927.42246  21166749.7344   21166747.8204
  34895527.17647  27204005.23845  23128543.2814                   23128542.8484
 11  8  2  1  7 30.0000000  0  8G17G02G04G09G27G12G10G05
  10421234.06347   8133295.64745  22739037.0004                   22739035.3324
  14213577.10548  11087989.45947  20741722.6334                   20741718.3834
  10374388.04348   8097533.42546  20988884.2344                   20988882.4964
  28750612.92247  22415013.57844  23037172.2894   23037171.6844   22383809.57047
  17453432.26344                  23378178.2894                   23378177.7154
  27625528.19547                  21537966.60146                  22150627.3594
  22150625.6644   19723297.72748  15380427.88446  21153440.3674   21153438.6054
  34759270.40647  27097831.22445  23102614.1954                   23102614.1954
 11  8  2  1  8  0.0000000  0  8G17G02G04G09G27G12G10G05
  10434827.60547   8143887.99345  22741623.6024                   22741622.1914
  14162265.97748  11048006.77547  20731958.2814                   20731954.0634
  10406211.80548   8122331.16246  20994939.9774                   20994938.3834
  28783897.94947  22440949.90345  23043505.9774   23043505.2464   22407208.94947
  17471665.51844                  23382631.1564                   23382630.3634
  27514287.66847                  21451285.71246                  22129459.6884
  22129457.1484   19653922.82848  15326369.55546  21140238.7424   21140237.0084
  34623148.66047  26991762.40745  23076711.1644                   23076710.7114
 11  8  2  1  8 30.0000000  0  8G17G02G04G09G27G12G10G05
  10448549.40647   8154580.27845  22744234.8054                   22744233.3284
  14111300.22348  11008293.20147  20722259.7114                   20722255.7304
  10438300.86348   8147335.59546  21001046.5474                   21001045.1024
  28817522.43047  22467150.74744  23049904.8134   23049903.9844   22430818.90247
  17490062.81344                  23387123.5474                   23387123.5314
  27403355.82447                  21364845.34846                  22108350.0084
  22108347.5744   19585119.51248  15272756.59046  21127145.6884   21127143.7934
  34487168.14547  26885803.66045  23050834.8054                   23050834.2504
 11  8  2  1  9  0.0000000  0  8G17G02G04G09G27G12G10G05
  10462396.58647   8165370.28645  22746869.8674                   22746867.9454
  14060675.34448  10968845.25447  20712626.4614                   20712621.8284
  10470649.11348   8172542.02346  21007202.2664                   21007200.5434
  28851479.21547  22493610.51945  23056366.6254   23056366.0704   22454632.81347
  17508619.03344                  23391655.0084                   23391655.2034
  27292731.49647                  21278644.59746                  22087298.2664
  22087296.4614   19516885.68048  15219587.39346  21114161.0164   21114159.5514
  34351328.20347  26779954.45145  23024985.4384                   23024984.7114
 11  8  2  1  9 30.0000000  0  8G17G02G04G09G27G12G10G05
  10476372.81647   8176260.81345  22749529.1564                   22749527.8634
  14010393.75048  10929664.79847  20703058.3134                   20703054.0744
  10503257.41048   8197951.06246  21013407.3914                   21013405.6724
  28885768.21547  22520329.15344  23062891.5474   23062890.2274   22478651.22347
  17527334.64844                  23396226.3134                   23396225.6484
  27182420.64148                  21192688.09946                  22066306.9614
  22066304.7664   19449226.29348  15166865.81746  21101286.2894   21101284.4024
  34215634.82847  26674219.42345  22999163.9844                   22999162.7114
 11  8  2  1 10  0.0000000  0  8G17G02G04G09G27G12G10G05
  10490477.99247   8187251.86745  22752213.8674                   22752211.6954
  13960454.10948  10890750.79746  20693554.7584                   20693550.3524
  10536122.75048   8223560.41946  21019661.7504                   21019659.6604
  28920385.37547  22547303.50444  23069479.1024   23069478.6174   22502870.88347
  17546207.03844                  23400834.7664                   23400834.1604
  27072424.85948                  21106977.13046                  22045375.8594
  22045373.2344   19382142.73048  15114592.91546  21088520.4924   21088518.8244
  34080090.65247  26568600.67045  22973370.4924                   22973369.4534
 11  8  2  1 10 30.0000000  0  8G17G02G04G09G27G12G10G05
  10504713.02347   8198344.07645  22754922.2034                   22754920.4224
  13910856.00048  10852102.93247  20684116.7344                   20684112.3204
  10569243.59448   8249368.87146  21025964.2034                   21025962.4104
  28955328.13747  22574531.59244  23076128.3524   23076128.0554   22527289.69146
  17565234.59944                  23405481.3134                   23405481.2274
  26962747.39147                  21021514.19446                  22024504.9534
  22024502.7344   19315637.16048  15062770.41246  21075864.8594   21075863.3674
  33944699.03947  26463100.79945  22947606.4774                   22947605.2934
 11  8  2  1 11  0.0000000  0  8G17G02G04G09G27G12G10G05
  10519075.17247   8209535.32645  22757655.7274                   22757653.7704
  13861595.73448  10813718.31846  20674743.0004                   20674738.5434
  10602614.19948   8275371.93346  21032314.1724                   21032312.4654
  28990589.85946  22602008.20244  23082838.7664   23082837.7074   22551901.53147
  17584412.59744                  23410164.9304                   23410165.6094
  26853387.59448                  20936298.77346                  22003694.3444
  22003691.6954   19249708.09848  15011397.14946  21063319.0554   21063317.5084
  33809459.61347  26357719.50345  22921871.1484                   22921870.0394
 11  8  2  1 11 30.0000000  0  8G17G02G04G09G27G12G10G05
  10533570.46147   8220830.34945  22760413.4844                   22760412.0044
  13812677.62148  10775600.32047  20665434.2664                   20665429.7274
  10636237.41448   8301571.83546  21038712.5634                   21038711.0664
  29026172.52047  22629734.89344  23089610.2194   23089608.9574   22576709.10946
  17603743.12744                  23414885.7664                   23414886.1484
  26744353.19947                  20851336.92946                  21982945.6174
  21982943.1484   19184362.53948  14960478.55046  21050884.4454   21050882.5314
  33674380.62147  26252463.22845  22896166.2034                   22896164.9924
 11  8  2  1 12  0.0000000  0  8G17G02G04G09G27G12G10G05
  10548197.41847   8232227.94945  22763197.3364                   22763195.3484
  13764098.65648  10737746.59246  20656189.7034                   20656185.3094
  10670108.78548   8327965.10346  21045158.0634                   21045156.5744
  29062070.44547  22657707.22744  23096441.0944   23096440.3404   22601707.39146
  17623222.25044                  23419642.5944                   23419643.4614
  26635644.66448                  20766629.00146                  21962259.5084
  21962256.6644   19119599.91448  14910014.18346  21038560.2194   21038558.4024
  33539462.84047  26147332.60145  22870492.5634                   22870491.4414
 11  8  2  1 12 30.0000000  0  8G17G02G04G09G27G12G10G05
  10562958.11747   8243729.79245  22766006.1564                   22766004.2704
  13715859.68048  10700157.77947  20647010.1564                   20647006.0204
  10704227.98448   8354551.47946  21051650.6094                   21051649.1844
  29098282.11347  22685924.05744  23103331.8914   23103330.8554   22626895.46146
  17642849.25144                  23424435.5704                   23424435.8324
  26527266.32048                  20682178.35546                  21941635.4844
  21941632.9064   19055423.73448  14860006.79046  21026347.7274   21026345.9344
  33404711.14147  26042331.33845  22844849.8834                   22844848.9104
 11  8  2  1 13  0.0000000  0  8G17G02G04G09G27G12G10G05
  10577849.20347   8255333.22945  22768840.1804                   22768837.9494
  13667955.87148  10662830.15447  20637894.4144                   20637889.9144
  10738588.28548   8381325.72646  21058189.0944                   21058187.3404
  29134799.81647  22714379.36144  23110280.9224   23110280.5554   22652266.41446
  17662618.77444                  23429263.2894                   23429264.8204
  26419217.06648                  20597984.15646                  21921074.1644
  21921072.1134   18991831.22748  14810454.21346  21014246.7504   21014244.8594
  33270124.23047  25937458.50145  22819238.9534                   22819237.7034
 11  8  2  1 13 30.0000000  0  8G17G02G04G09G27G12G10G05
  10592873.62147   8267040.53545  22771698.5314                   22771697.5394
  13620389.20748  10625765.22347  20628842.6254                   20628838.0944
  10773190.25448   8408288.29146  21064773.6884                   21064772.3054
  29171623.05547  22743072.72944  23117288.0784   23117288.0164   22677820.16046
  17682530.71744                  23434127.1094                   23434127.0864
  26311500.90648                  20514049.50246                  21900576.8674
  21900574.0314   18928826.94947  14761359.98446  21002257.0944   21002255.1294
  33135707.65647  25832718.39845  22793659.7734                   22793658.8714
 11  8  2  1 14  0.0000000  0  8G17G02G04G09G27G12G10G05
  10608029.78147   8278850.52745  22774583.3674                   22774581.5124
  13573156.21548  10588960.30347  20619854.6094                   20619850.2464
  10808029.05948   8435435.39246  21071403.3594                   21071401.8014
  29208746.27047  22771999.87744  23124352.7344   23124352.2934   22703551.64146
  17702581.15744                  23439023.4454                   23439023.9344
  26204118.76248                  20430375.12146                  21880142.6804
  21880140.0554   18866410.10547  14712723.51246  20990379.5554   20990377.6214
  33001462.06647  25728111.52545  22768114.0394                   22768113.3444
 11  8  2  1 14 30.0000000  0  8G17G02G04G09G27G12G10G05
  10623318.72347   8290763.97345  22777492.8134                   22777490.4884
  13526256.62948  10552415.17847  20610929.7194                   20610925.6054
  10843103.07848   8462765.79546  21078077.6884                   21078076.0474
  29246166.45347  22801158.38344  23131473.4694   23131472.7034   22729458.38346
  17722768.13544                  23443953.3594                   23443953.5824
  26097073.60947                  20346963.33046                  21859772.5084
  21859769.7504   18804582.61747  14664546.28146  20978614.2344   20978612.5864
  32867390.93447  25623640.58845  22742600.7894                   22742599.7894
 11  8  2  1 15  0.0000000  0  8G17G02G04G09G27G12G10G05
  10638740.47347   8302780.88445  22780427.1954                   22780425.4454
  13479689.42248  10516129.05347  20602068.5784                   20602064.1414
  10878409.61748   8490277.35946  21084796.5864                   21084794.4804
  29283879.74247  22830545.32044  23138650.1174   23138649.6054   22755537.53546
  17743089.47844                  23448915.2664                   23448916.4414
  25990367.69947                  20263815.87546                  21839467.1094
  21839464.3634   18743345.74648  14616829.26046  20966961.4534   20966959.1094
  32733496.93847  25519307.66245  22717121.7814                   22717120.9304
 11  8  2  1 15 30.0000000  0  8G17G02G04G09G27G12G10G05
  10654293.12147   8314899.81045  22783386.8984                   22783384.4734
  13433451.34448  10480099.39647  20593269.6174                   20593265.1724
  10913944.06348   8517966.51646  21091558.6174                   21091556.6454
  29321880.33247  22860156.10944  23145881.5004   23145880.6644   22781784.05146
  17763541.23744                  23453910.3524                   23453910.8874
  25884001.19547                  20180932.91046                  21819226.2734
  21819223.6414   18682698.49248  14569571.66646  20955420.7894   20955418.3094
  32599780.95347  25415113.48645  22691676.4534                   22691675.3754
 11  8  2  1 16  0.0000000  0  8G17G02G04G09G27G12G10G05
  10669980.17647   8327123.47645  22786371.7274                   22786370.0824
  13387543.99648  10444327.44747  20584533.5634                   20584529.3524
  10949706.53148   8545833.37346  21098363.8364                   21098361.9064
  29360167.53147  22889990.24144  23153167.6174   23153166.8404   22808197.56647
  17784123.12944                  23458936.9534                   23458937.7344
  25777979.10248                  20098318.31346                  21799050.6884
  21799048.0124   18622644.68448  14522776.51946  20943992.6644   20943990.6884
  32466248.04747  25311061.94045  22666265.9614                   22666265.2424
 11  8  2  1 16 30.0000000  0  8G17G02G04G09G27G12G10G05
  10685800.03147   8339450.62945  22789381.9774                   22789380.0554
  13341964.36348  10408810.85246  20575860.2274                   20575855.7074
  10985692.87948   8573874.67146  21105211.4844                   21105209.8364
  29398735.89147  22920043.44844  23160506.7734   23160505.9734   22834773.36346
  17804831.45944                  23463993.8754                   23463995.0234
  25672301.88347                  20015972.45046                  21778940.9454
  21778938.2854   18563184.14548  14476443.64546  20932677.6804   20932675.7304
  32332899.30947  25207153.93145  22640890.3834                   22640889.0394
 11  8  2  1 17  0.0000000  0  8G17G02G04G09G27G12G10G05
  10701754.97347   8351883.03145  22792417.8984                   22792416.6174
  13296713.43048  10373550.39947  20567249.1024                   20567244.6644
  11021902.56348   8602089.98946  21112102.0164                   21112100.4924
  29437583.76647  22950314.46544  23167898.9534   23167898.4454   22861510.32447
  17825665.35944                  23469081.9924                   23469082.1644
  25566973.93847                  19933898.73346                  21758898.3524
  21758895.5944   18504319.81348  14430575.35546  20921476.0234   20921474.3444
  32199739.49247  25103393.10645  22615550.4924                   22615549.5944
 11  8  2  1 17 30.0000000  0  8G17G02G04G09G27G12G10G05
  10717843.11346   8364419.23245  22795479.9534                   22795477.7774
  13251788.03548  10338543.59747  20558700.2734                   20558696.0704
  11058331.03148   8630475.79746  21119034.3674                   21119032.8164
  29476705.42647  22980798.82944  23175343.4224   23175343.3634   22888403.64846
  17846621.13344                  23474200.2274                   23474200.1644
  25461995.61347                  19852097.46246                  21738920.9614
  21738918.5704   18446051.01648  14385171.11146  20910388.2344   20910386.2194
  32066769.43447  24999780.15145  22590247.4774                   22590246.8364
 11  8  2  1 18  0.0000000  0  8G17G02G04G09G27G12G10G05
  10734065.41047   8377059.97345  22798566.9144                   22798565.0204
  13207187.37148  10303789.85247  20550212.6484                   20550208.5474
  11094976.13348   8659030.40246  21126007.6024                   21126005.7464
  29516097.40647  23011493.81544  23182840.1644   23182839.3754   22915450.48846
  17867696.51444                  23479346.7274                   23479347.2114
  25357369.18447                  19770570.39246                  21719011.6024
  21719009.0554   18388379.03548  14340231.93946  20899413.4774   20899411.4774
  31933992.10547  24896317.35945  22564980.6174                   22564979.4574
 11  8  2  1 18 30.0000000  0  8G17G02G04G09G27G12G10G05
  10750430.29747   8389811.80745  22801681.3444                   22801679.3134
  13162918.50048  10269294.63047  20541788.8674                   20541784.5354
  11131843.55948   8687758.25646  21133023.4304                   21133021.2624
  29555764.22747  23042402.97744  23190388.5084   23190387.6254   22942656.08646
  17888895.58444                  23484524.4694                   23484524.2934
  25253105.45747                  19689325.95046                  21699170.0394
  21699168.1414   18331313.43848  14295765.26046  20888554.3364   20888552.0004
  31801418.33647  24793013.20845  22539752.7894                   22539751.2154
 11  8  2  1 19  0.0000000  0  8G17G02G04G09G27G12G10G05
  10766929.96947   8402668.68345  22804820.8364                   22804819.5204
  13118972.40648  10235050.94247  20533426.1094                   20533421.9574
  11168923.00848   8716651.33446  21140079.4304                   21140077.6024
  29595694.74647  23073517.59844  23197986.9924   23197986.6844   22970009.46146
  17910209.82144                  23489729.2424                   23489729.6724
  25149198.51648                  19608359.52046                  21679397.6804
  21679395.4184   18274847.10248  14251765.53946  20877809.1484   20877806.9924
  31669043.10947  24689863.75945  22514562.5554                   22514561.0474
 11  8  2  1 19 30.0000000  0  8G17G02G04G09G27G12G10G05
  10783564.64547   8415630.77345  22807986.0634                   22807984.5204
  13075347.57048  10201057.57647  20525124.3754                   20525120.2974
  11206211.79748   8745707.52946  21147175.2814                   21147173.4774
  29635885.02347  23104834.66544  23205634.5634   23205634.2274   22997507.49247
  17931636.81444                  23494962.2344                   23494962.5164
  25045650.70748                  19527672.92446                  21659693.3284
  21659690.8134   18218980.92248  14208233.46546  20867177.9304   20867176.0164
  31536868.87547  24586870.90645  22489410.3524                   22489409.4964
 11  8  2  1 20  0.0000000  0  8G17G02G04G09G27G12G10G05
  10800338.81347   8428701.52745  22811178.3914                   22811177.0084
  13032047.24648  10167317.07047  20516884.9924                   20516880.5434
  11243711.49648   8774928.06146  21154311.3754                   21154309.5274
  29676335.37547  23136354.37344  23213332.1484   23213332.0084   23025151.22346
  17953177.29644                  23500223.1884                   23500222.5474
  24942468.08247                  19447270.90046                  21640058.0634
  21640055.7304   18163720.02748  14165173.04146  20856661.9774   20856660.2274
  31404902.39847  24484039.95845  22464298.0864                   22464296.8984
 11  8  2  1 20 30.0000000  0  8G17G02G04G09G27G12G10G05
  10817248.75047   8441878.06845  22814396.4224                   22814395.0004
  12989066.25848  10133825.40947  20508705.7344                   20508701.6134
  11281415.52048   8804307.80346  21161486.2274                   21161483.9384
  29717038.01247  23168070.67844  23221077.6954   23221077.6684   23052933.79746
  17974825.99844                  23505509.3364                   23505509.5394
  24839649.05947                  19367152.19846                  21620492.5554
  21620490.2624   18109061.37148  14122581.89246  20846261.2584   20846259.1374
  31273142.49247  24381369.95145  22439225.0474                   22439223.4454
 11  8  2  1 21  0.0000000  0  8G17G02G04G09G27G12G10G05
  10834303.05947   8455167.13645  22817641.7894                   22817640.1294
  12946411.25048  10100587.75146  20500588.8594                   20500584.3594
  11319329.69948   8833851.30746  21168700.9064                   21168699.1024
  29757997.72747  23199987.28944  23228871.7194   23228872.0274   23080860.26646
  17996586.76944                  23510823.8204                   23510823.8984
  24737204.19547                  19287325.04246                  21600997.8524
  21600995.0084   18055013.98048  14080467.05946  20835976.0554   20835973.9924
  31141600.27747  24278869.59245  22414192.9064                   22414192.2544
 11  8  2  1 21 30.0000000  0  8G17G02G04G09G27G12G10G05
  10851499.60246   8468567.01745  22820914.2504                   22820912.7934
  12904079.19548  10067601.73747  20492533.3054                   20492528.6844
  11357449.45747   8863554.99846  21175954.9384                   21175953.0704
  29799208.52747  23232099.53444  23236714.3984   23236714.6334   23108925.57447
  18018455.77344                  23516164.9454                   23516164.8674
  24635133.45347                  19207789.41346                  21581574.2504
  21581571.7114   18001576.84447  14038827.74446  20825807.3204   20825804.9614
  31010275.96947  24176539.01945  22389202.7344                   22389201.7814
 11  8  2  1 22  0.0000000  0  8G17G02G04G09G27G12G10G05
  10868835.96547   8482075.85245  22824213.4304                   22824211.4494
  12862065.45748  10034863.77747  20484538.1724                   20484533.8634
  11395768.81648   8893414.23046  21183246.8524                   21183244.8634
  29840663.26247  23264401.87444  23244602.8834   23244602.7704   23137123.14846
  18040427.87144                  23521530.4144                   23521531.5124
  24533435.65648                  19128544.39246                  21562222.0004
  21562219.1764   17948747.28948  13997661.87646  20815754.2114   20815752.1564
  30879168.90247  24074377.74546  22364253.8834                   22364253.1414
 11  8  2  1 22 30.0000000  0  8G17G02G04G09G27G12G10G05
  10886310.91847   8495692.69245  22827538.6024                   22827536.7034
  12820367.65648  10002371.98747  20476603.5944                   20476599.2734
  11434284.67248   8923426.57146  21190576.0234                   21190574.3284
  29882357.31347  23296890.67544  23252536.4844   23252537.6724   23165449.17246
  18062500.02244                  23526920.9694                   23526921.5234
  24432112.10248                  19049590.98746                  21542940.8054
  21542938.0784   17896525.11748  13956969.29146  20805816.5314   20805814.4574
  30748281.02347  23972387.21746  22339346.6484                   22339346.0354
 11  8  2  1 23  0.0000000  0  8G17G02G04G09G27G12G10G05
  10903923.60946   8509416.86045  22830889.9614                   22830888.2734
  12778983.55948   9970124.65447  20468728.3444                   20468724.1914
  11472993.25048   8953589.08946  21197942.1884                   21197940.3484
  29924286.18447  23329562.47944  23260515.7814   23260516.1604   23193899.46546
  18084669.01044                  23532335.0554                   23532335.5234
  24331163.89547                  18970930.06046                  21523731.2424
  21523728.0044   17844910.23448  13916749.92546  20795994.1414   20795992.3244
  30617614.03947  23870568.85146  22314481.6644                   22314480.9734
 11  8  2  1 23 30.0000000  0  8G17G02G04G09G27G12G10G05
  10921679.61747   8523252.69245  22834268.8594                   22834266.9924
  12737917.59048   9938125.20847  20460913.7734                   20460909.6764
  11511897.36748   8983903.96446  21205345.4694                   21205343.8404
  29966451.16047  23362418.21144  23268539.9534   23268539.7274   23222476.23047
  18106936.55344                  23537773.2114                   23537772.8914
  24230598.43047                  18892567.37046                  21504594.2034
  21504591.3094   17793908.91048  13877008.64346  20786289.1024   20786287.3634
  30487175.85947  23768928.76446  22289660.3524                   22289658.8094
 11  8  2  1 24  0.0000000  0  8G17G02G04G09G27G12G10G05
  10939580.82446   8537201.65945  22837675.5474                   22837673.6804
  12697169.53948   9906373.48947  20453159.8134                   20453155.1804
  11550995.94548   9014370.37546  21212785.5084                   21212784.1454
  30008850.27747  23395456.44444  23276608.4924   23276608.3484   23251177.79746
  18129301.32844                  23543234.0704                   23543234.9064
  24130419.60947                  18814505.97046                  21485530.4224
  21485527.7894   17743523.30548  13837747.13846  20776700.9454   20776699.1994
  30356970.47347  23667470.07445  22264883.0944                   22264882.1294
 11  8  2  1 24 30.0000000  0  8G17G02G04G09G27G12G10G05
  10957622.47347   8551260.07945  22841108.8674                   22841107.0474
  12656733.04748   9874864.53347  20445465.0314                   20445460.6254
  11590281.66448   9044982.60446  21220261.4304                   21220259.7624
  30051474.55147  23428670.08744  23284719.4384   23284718.7974   23279996.10546
  18151757.09544                  23548717.8834                   23548719.3364
  24030624.60548                  18736743.63346                  21466539.9774
  21466537.1804   17693748.89848  13798961.90046  20767229.6484   20767227.3244
  30226995.57447  23566190.99346  22240149.3834                   22240148.5474
 11  8  2  1 25  0.0000000  0  8G17G02G04G09G27G12G10G05

  12551223.71947   9793027.21945  23144360.9844                   23144359.6724
  14192027.68848  11071198.03547  20737621.6484                   20737617.2464
  13205169.85247  10303337.02746  21527564.6414   21527562.3954   31669737.96947
  24689654.51944  23592664.2974   23592664.3444   24884346.26646  19401899.99444
  23854015.9064                   23854016.9614   25506637.64847  19886883.67446
  21747416.1804   21747413.3204   19220007.36348  14988254.22946  21057666.8914
  21057664.4384   31672677.32847  24692696.32346  22515253.5234   22515252.3834
 11  8  2  1 25 30.0000000  0  8G17G02G04G09G27G12G10G05

  12569550.40247   9807307.73445  23147848.0164                   23147846.3674
  14152214.25048  11040174.58047  20730045.2974                   20730041.0824
  13244825.73448  10334237.69946  21535110.6724   21535108.9844   31712804.77747
  24723213.01244  23600859.6644   23600860.0944   24913392.28546  19424533.17344
  23859544.1174                   23859543.7234   25407619.12547  19809726.39446
  21728573.5704   21728570.7074   19171460.92648  14950425.85046  21048428.7274
  21048426.4694   31543174.79347  24591785.32246  22490609.6804   22490608.4024
 11  8  2  1 26  0.0000000  0  8G17G02G04G09G27G12G10G05

  12588024.55547   9821703.16045  23151364.0004                   23151362.5784
  14112715.26248  11009396.15247  20722529.2814                   20722524.5004
  13284667.93848  10365283.54446  21542692.5944   21542690.6174   31756092.27347
  24756943.45444  23609097.5084   23609098.0234   24942552.55946  19447255.39244
  23865091.9384                   23865092.8484   25308997.18847  19732878.13446
  21709806.0944   21709803.7664   19123534.37948  14913080.49946  21039308.5084
  21039306.5984   31413917.28947  24491065.25945  22466013.0784   22466011.4734
 11  8  2  1 26 30.0000000  0  8G17G02G04G09G27G12G10G05

  12606643.85247   9836211.70245  23154906.9534                   23154905.7624
  14073526.62148  10978859.56247  20715071.8914                   20715067.2584
  13324691.05548  10396470.37146  21550308.7114   21550306.8284   31799593.89546
  24790840.73844  23617375.5474   23617375.8914   24971821.00046  19470061.88244
  23870662.1954                   23870662.9264   25210771.22747  19656338.43746
  21691114.3284   21691111.9264   19076225.44548  14876216.41646  21030306.1174
  21030303.9734   31284904.49647  24390535.87346  22441462.5704   22441461.0904
 11  8  2  1 27  0.0000000  0  8G17G02G04G09G27G12G10G05

  12625408.62947   9850833.56345  23158477.7814                   23158476.4964
  14034646.82848  10948563.62247  20707673.2584                   20707668.8984
  13364892.72748  10427796.33346  21557958.9304   21557956.7774   31843305.64546
  24824901.78244  23625693.7504   23625694.0314   25001194.48846  19492950.25044
  23876251.3594                   23876252.4574   25112943.28547  19580108.87946
  21672498.3754   21672495.7274   19029534.61348  14839833.96446  21021421.2504
  21021418.7704   31156139.30147  24290199.41545  22416959.5864   22416957.9654
 11  8  2  1 27 30.0000000  0  8G17G02G04G09G27G12G10G05

  12644315.72747   9865566.32645  23162075.7974                   23162074.3914
  13996071.64147  10918505.04347  20700332.5234                   20700328.1174
  13405267.49248  10459257.17446  21565641.7974   21565639.9694   31887220.98847
  24859121.46144  23634050.6954   23634050.4964   25030667.07446  19515915.77944
  23881859.9144                   23881861.0944   25015512.52747  19504188.81246
  21653958.1884   21653955.5744   18983459.48448  14803931.28046  21012653.2424
  21012650.9144   31027621.18447  24190055.51646  22392503.2114   22392501.7344
 11  8  2  1 28  0.0000000  0  9G17G02G04G09G25G27G12G10G05

  12663371.28947   9880414.78845  23165702.2274                   23165699.8524
  13957805.41848  10888687.21647  20693050.3134                   20693046.1684
  13445818.47348  10490855.32646  21573358.5944   21573356.7154   31931341.84047
  24893501.29844  23642446.2274   23642446.9494                   45488751.40656
  35458041.16653  24449664.1954   24449664.9144   25060241.21546  19538960.49343
  23887488.4064                   23887489.2504   24918486.43447  19428584.07446
  21635494.7424   21635492.0474   18938005.79348  14768512.83446  21004003.5164
  21004001.3874   30899358.66847  24090110.75246  22368096.3134   22368094.5704
 11  8  2  1 28 30.0000000  0  9G17G02G04G09G25G27G12G10G05

  12682566.81347   9895372.31545  23169354.9224                   23169353.0044
  13919838.34448  10859102.48247  20685826.1254                   20685821.4384
  13486534.69548  10522582.23046  21581106.7664   21581104.6884   31975655.71946
  24928031.47644  23650879.3364   23650879.3754                   45353937.83246
  35352991.66043  24424009.8204   24424011.1644   25089905.30546  19562075.27144
  23893132.9454                   23893134.6254   24821858.62547  19353289.69346
  21617106.6414   21617104.1764   18893165.64548  14733572.47046  20995470.7974
  20995468.5354   30771345.36347  23990360.21446  22343734.6724   22343733.3244
 11  8  2  1 29  0.0000000  0  9G17G02G04G09G25G27G12G10G05

  12701896.18447   9910434.14445  23173033.1564                   23173031.1684
  13882162.42647  10829744.62247  20678656.2894                   20678651.9654
  13527407.34048  10554431.02546  21588884.1954   21588882.5234   32020152.79347
  24962704.50044  23659346.9844   23659346.5314                   45219255.28146
  35248044.19743  24398380.6954   24398381.3094   25119649.86746  19585252.78043
  23898792.9454                   23898794.3404   24725624.63347  19278302.18546
  21598794.0474   21598791.6214   18848932.99248  14699105.48146  20987053.7034
  20987051.4884   30643577.66047  23890801.03046  22319422.2814   22319420.5594
 11  8  2  1 29 30.0000000  0  9G17G02G04G09G25G27G12G10G05

  12721363.37947   9925603.36645  23176738.0004                   23176735.7704
  13844780.24648  10800615.64947  20671542.6804                   20671538.0634
  13568437.60248  10586402.64946  21596692.2274   21596690.2544   32064832.60247
  24997519.88844  23667849.0084   23667849.2344                   45084709.63346
  35143203.53843  24372777.1724   24372777.8834   25149475.36746  19608493.35844
  23904468.8204                   23904470.0904   24629790.42647  19203626.19346
  21580557.4844   21580554.9264   18805312.30148  14665115.34746  20978752.4774
  20978750.6524   30516061.89547  23791438.17446  22295156.1484   22295155.5084
 11  8  2  1 30  0.0000000  0  9G17G02G04G09G25G27G12G10G05

  12740973.20347   9940883.73045  23180469.7584                   23180466.8984
  13807694.89848  10771717.98647  20664485.4924                   20664481.4534
  13609628.07448  10618499.08946  21604530.4454   21604528.3714   32109696.27047
  25032478.55244  23676386.6804   23676386.0824                   44950307.98046
  35038475.00043  24347200.9924   24347202.6524   25179383.50846  19631798.26144
  23910160.2274                   23910161.2344   24534362.72347  19129266.94946
  21562398.3364   21562395.3914   18762308.55948  14631605.94646  20970569.5004
  20970567.1564   30388805.35947  23692277.30946  22270940.2194   22270938.9774
 11  8  2  1 30 30.0000000  0  9G17G02G04G09G25G27G12G10G05

  12760729.57447   9956278.29144  23184228.8674                   23184226.6094
  13770909.14848  10743053.76147  20657485.5314                   20657481.2584
  13650979.91048  10650721.28745  21612399.7974   21612397.2974   32154743.93447
  25067580.56544  23684958.5784   23684958.9774                   44816056.34047
  34933863.34344  24321654.2424   24321654.8364   25209375.01246  19655168.21144
  23915867.9454                   23915868.4964   24439347.58647  19055229.20346
  21544317.6174   21544315.0234   18719925.85548  14598580.48746  20962504.3914
  20962502.1524   30261814.64147  23593323.56346  22246774.7734   22246773.3754
 11  8  2  1 31  0.0000000  0  9G17G02G04G09G25G27G12G10G05

  12780634.24647   9971788.39844  23188016.2894                   23188014.0514
  13734422.48448  10714622.59047  20650542.2584                   20650538.1214
  13692492.02348  10683068.36545  21620298.7344   21620297.1954   32199972.91847
  25102823.85144  23693565.2734   23693565.9414                   44681958.17247
  34829371.32844  24296136.1254   24296137.0314   25239448.11746  19678601.68743
  23921590.1484                   23921591.7074   24344748.24647  18981515.45346
  21526315.8054   21526313.1884   18678165.86748  14566040.24346  20954557.7664
  20954555.3404   30135093.56647  23494579.92046  22222660.3984   22222658.9964
 11  8  2  1 31 30.0000000  0  9G17G02G04G09G25G27G12G10G05

  12800686.75047   9987413.70344  23191832.4064                   23191830.0084
  13698233.55548  10686423.42447  20643656.0234                   20643651.4454
  13734161.69548  10715538.22845  21628228.2424   21628226.5164   32245379.14147
  25138205.24944  23702205.5394   23702206.6254                   44548015.26247
  34725000.25244  24270647.7424   24270648.7154   25269599.07446  19702095.84744
  23927328.0704                   23927329.4104   24250565.85547  18908126.60246
  21508393.4144   21508390.7234   18637028.15248  14533984.89546  20946729.5394
  20946727.3244   30008644.07047  23396047.91446  22198598.0394   22198596.8164
 11  8  2  1 32  0.0000000  0  9G17G02G04G09G25G27G12G10G05

  12820892.72747  10003158.58644  23195677.5004                   23195675.4454
  13662346.28948  10658459.32147  20636826.5554                   20636822.0554
  13775991.98048  10748133.24945  21636188.7034   21636186.3134   32290964.38347
  25173726.15244  23710880.6954   23710880.8364                   44414235.46547
  34620756.25044  24245190.6334   24245191.3794   25299830.40646  19725652.66144
  23933081.3134                   23933082.0784   24156808.09447  18835068.61846
  21490551.4924   21490549.3554   18596518.35948  14502418.85246  20939020.9844
  20939018.5204   29882474.08647  23297733.69146  22174588.5944   22174587.4304
 11  8  2  1 32 30.0000000  0  9G17G02G04G09G25G27G12G10G05

  12841250.15647  10019021.49144  23199551.6954                   23199549.2424
  13626756.82048  10630727.26347  20630054.1954                   20630049.9344
  13817978.16048  10780849.74845  21644178.1884   21644176.3484   32336722.71547
  25209381.93444  23719588.7424   23719588.6764                   44280618.70347
  34516639.33244  24219764.1414   24219765.1054   25330136.90246  19749267.97544
  23938848.0634                   23938849.1294   24063474.74248  18762341.36346
  21472790.9304   21472788.6134   18556634.64548  14471340.64346  20931430.9614
  20931428.5744   29756584.41048  23199637.87846  22150632.2034   22150631.1374
 11  8  2  1 33  0.0000000  0  9G17G02G04G09G25G27G12G10G05

  12861756.92647  10035000.78844  23203453.6334                   23203451.2814
  13591461.34848  10603224.30647  20623337.7974                   20623333.5554
  13860115.60548  10813684.10645  21652196.8284   21652194.8754   32382648.03947
  25245167.86344  23728327.9534   23728328.1484                   44147164.82047
  34412649.29244  24194368.6254   24194368.8404   25360513.02346  19772937.57144
  23944628.4454                   23944629.2544   23970565.54348  18689944.60446
  21455111.2504   21455108.1484   18517374.75048  14440748.52746  20923960.0474
  20923958.3554   29630975.09047  23101760.53846  22126729.6644   22126728.6334
 11  8  2  1 33 30.0000000  0  9G17G02G04G09G25G27G12G10G05

  12882417.45747  10051099.85144  23207385.0944                   23207382.3324
  13556462.91848  10575952.79047  20616677.7974                   20616673.4184
  13902405.77748  10846637.45246  21660244.2664   21660242.6804   32428740.62547
  25281084.08044  23737099.1094   23737099.2304                   44013880.15647
  34308791.13244  24169004.8984   24169006.3484   25390959.79747  19796662.24344
  23950422.7814                   23950423.7664   23878086.52347  18617883.04446
  21437513.1254   21437510.0594   18478742.96548  14410645.86446  20916608.7034
  20916606.4534   29505652.83247  23004106.86346  22102881.4454   22102880.4774
 11  8  2  1 34  0.0000000  0  9G17G02G04G09G25G27G12G10G05

  12903230.76247  10067317.97044  23211346.0084                   23211344.3244
  13521759.22348  10548910.95347  20610073.8204                   20610069.2734
  13944845.55548  10879707.39945  21668320.3594   21668318.2344   32474995.78547
  25317126.99244  23745901.5704   23745901.5784                   43880766.09047
  34205065.89644  24143674.5234   24143675.2734   25421473.36746  19820438.92544
  23956228.7274                   23956230.1214   23786038.55147  18546157.37846
  21419996.8834   21419993.9654   18440738.48448  14381031.99546  20909376.7664
  20909374.8984   29380619.08647  22906678.02946  22079088.5944   22079087.2854
 11  8  2  1 34 30.0000000  0  9G17G02G04G09G25G27G12G10G05

  12924197.73847  10083655.85445  23215335.7894                   23215334.1484
  13487348.88347  10522097.69247  20603525.9454                   20603521.4384
  13987433.37948  10912892.70545  21676424.6414   21676423.0474   32521410.53947
  25353294.25244  23754733.3834   23754733.4964                   43747825.62547
  34101475.94144  24118376.9304   24118377.2934   25452051.15246  19844265.68644
  23962047.4774                   23962049.0664   23694424.57048  18474769.89246
  21402563.1884   21402560.7934   18403361.89848  14351907.40046  20902264.3674
  20902262.6214   29255877.35547  22809476.74046  22055351.0634   22055349.5784
 11  8  2  1 35  0.0000000  0  9G17G02G04G09G25G27G12G10G05

  12945320.12547  10100114.83245  23219355.2034                   23219354.4224
  13453233.02348  10495513.91547  20597033.6644                   20597029.2814
  14030168.53548  10946192.81146  21684556.8054   21684554.8524   32567982.62947
  25389584.11744  23763595.7974   23763595.9774                   43615062.69947
  33998024.34744  24093112.7114   24093113.5474   25482691.51246  19868141.18743
  23967878.9614                   23967880.1564   23603247.92248  18403723.17246
  21385212.8594   21385210.4694   18366615.23848  14323273.65146  20895271.5164
  20895269.4844   29131431.47747  22712505.98846  22031669.4844   22031668.0474
 11  8  2  1 35 30.0000000  0  9G17G02G04G09G25G27G12G10G05

  12966601.86347  10116697.97645  23223405.3364                   23223403.7034
  13419413.32048  10469160.89947  20590598.0394                   20590593.5044
  14073052.18048  10979608.63745  21692717.0234   21692715.6294   32614712.23047
  25425996.72144  23772488.3054   23772488.1294                   43482483.16447
  33894715.66944  24067883.9384   24067884.3914   25513395.18046  19892065.98543
  23973721.8054                   23973722.2234   23512514.53548  18333021.86046
  21367946.7734   21367943.8984   18330502.19948  14295133.64346  20888399.4304
  20888397.0634   29007287.83247  22615770.72546  22008045.9384   22008044.2734
 11  8  2  1 36  0.0000000  0  9G17G02G04G09G25G27G12G10G05

  12988035.22347  10133399.25945  23227483.8054                   23227482.9924
  13385880.59048  10443031.51247  20584217.2034                   20584212.4734
  14116074.05948  11013132.15045  21700903.9614   21700902.2504   32661587.53546
  25462522.85144  23781408.0864   23781408.5204                   43350081.42647
  33791545.50644  24042688.5004   24042689.1374   25544151.28946  19916031.71043
  23979574.6334                   23979574.8444   23422217.96548  18262660.91546
  21350763.9694   21350761.3014   18295014.65247  14267481.02846  20881646.4774
  20881643.8484   28883441.04747  22519266.79446  21984478.5944   21984477.1644
 11  8  2  1 36 30.0000000  0  9G17G02G04G09G25G27G12G10G05

  13009625.10947  10150222.55345  23231592.8674                   23231591.0864
  13352638.12148  10417128.28446  20577891.0784                   20577886.4414
  14159236.93448  11046765.53945  21709117.9844   21709115.9454   32708609.60947
  25499163.36144  23790356.6414   23790356.3244                   43217864.66846
  33688519.52444  24017529.2274   24017528.7584   25574961.39546  19940039.46343
  23985437.0234                   23985438.7464   23332365.03948  18192645.66546
  21333665.3754   21333662.7114   18260157.61747  14240319.71746  20875013.3364
  20875010.9574   28759898.69947  22423000.07346  21960969.2274   21960967.7034
 11  8  2  1 37  0.0000000  0  9G17G02G04G09G25G27G12G10G05

  13031370.23447  10167166.80545  23235730.6174                   23235729.1174
  13319683.02047  10391448.98547  20571619.9844                   20571615.5234
  14202536.94548  11080505.79745  21717357.5474   21717355.6764   32755773.34847
  25535914.27944  23799331.4844   23799332.1644                   43085833.57047
  33585638.23044  23992404.0784   23992404.1994   25605820.82846  19964085.67643
  23991309.5944                   23991310.6954   23242956.49648  18122976.68646
  21316651.6094   21316648.5944   18225929.14547  14213648.20646  20868499.7424
  20868497.4924   28636661.58647  22326971.19646  21937517.6094   21937516.0784
 11  8  2  1 37 30.0000000  0  9G17G02G04G09G25G27G12G10G05

  13053268.02347  10184230.00645  23239897.3754                   23239896.0434
  13287011.02047  10365990.28246  20565402.7114                   20565398.3634
  14245968.69148  11114348.70646  21725622.5634   21725620.7034   32803072.06647
  25572770.34544  23808332.3364   23808332.5594                   42953987.62147
  33482901.22843  23967313.7894   23967314.1484   25636723.70746  19988165.70343
  23997191.0784                   23997191.0514   23153990.93048  18053652.88546
  21299722.0004   21299719.4064   18192326.56647  14187464.39546  20862105.2814
  20862102.9024   28513729.30947  22231179.85846  21914124.6804   21914123.2114
 11  8  2  1 38  0.0000000  0  9G17G02G04G09G25G27G12G10G05

  13075330.32447  10201421.39145  23244095.9224                   23244094.4304
  13254632.69948  10340760.43646  20559241.3364                   20559236.9494
  14289541.95348  11148301.87845  21733913.9454   21733912.2114   32850513.87946
  25609737.91044  23817359.6564   23817360.1914                   42822341.02047
  33380319.46743  23942262.2584   23942262.6334   25667678.85246  20012286.49343
  24003081.3284                   24003082.5864   23065482.27048  17984685.11146
  21282879.2504   21282876.6644   18159361.80147  14161777.57446  20855832.4774
  20855830.0004   28391116.41047  22135637.38146  21890792.2584   21890790.6414
 11  8  2  1 38 30.0000000  0  9G17G02G04G09G25G27G12G10G05

  13097548.94147  10218734.56144  23248323.5314                   23248322.0664
  13222538.24648  10315751.77247  20553134.1644                   20553129.6134
  14333246.14848  11182357.08345  21742230.6024   21742228.8324   32898086.90247
  25646807.72744  23826412.7894   23826413.4534                   42690887.73047
  33277888.41943  23917247.8754   23917247.7814   25698674.91446  20036439.14043
  24008979.5004                   24008981.2384   22977424.11748  17916068.37546
  21266122.4614   21266119.8364   18127026.16048  14136580.99846  20849678.9454
  20849676.9534   28268817.15647  22040339.31446  21867518.9384   21867517.2544
 11  8  2  1 39  0.0000000  0  9G17G02G04G09G25G27G12G10G05

  13119929.12547  10236173.64645  23252582.0394                   23252580.8524
  13190731.41448  10290967.23347  20547081.1564                   20547076.6294
  14377084.23848  11216516.61345  21750572.5944   21750570.8834   32945792.68447
  25683980.98744  23835491.1804   23835491.8874                   42559635.31647
  33175613.89843  23892271.2734   23892271.3834   25729714.17646  20060625.48043
  24014886.1094                   24014887.1884   22889823.97348  17847808.52846
  21249452.5474   21249449.8284   18095324.77048  14111878.63346  20843646.6094
  20843644.4024   28146839.21147  21945291.61946  21844307.3444   21844305.8674
 11  8  2  1 39 30.0000000  0  9G17G02G04G09G25G27G12G10G05

  13142461.70347  10253731.50244  23256869.7424                   23256868.7344
  13159201.12148  10266398.18246  20541081.5474                   20541076.8284
  14421044.12948  11250771.06045  21758938.2504   21758936.4344   32993617.73847
  25721247.17644  23844591.8054   23844592.5664                   42428576.45747
  33073490.20344  23867331.5314   23867331.8674   25760783.78946  20084835.40443
  24020798.3594                   24020800.0744   22802673.40648  17779899.00846
  21232868.1334   21232866.0004   18064247.79748  14087662.83946  20837732.7814
  20837730.7704   28025175.53547  21850488.80146  21821155.5084   21821153.6994
 11  8  2  1 40  0.0000000  0  9G17G02G04G09G25G27G12G10G05

  13165154.37147  10271414.06944  23261188.6484                   23261187.3984
  13127953.46948  10242049.36647  20535135.3754                   20535130.6214
  14465131.47348  11285124.82945  21767327.5704   21767325.6684   33041565.92247
  25758609.33744  23853716.8134   23853717.0314                   42297721.01247
  32971525.00844  23842430.6024   23842431.4184   25791888.46945  20109072.72043
  24026717.3834                   24026719.2464   22715981.92648  17712347.20246
  21216371.5784   21216369.2464   18033802.62948  14063939.33446  20831938.8284
  20831937.1454   27903835.53547  21755938.21046  21798065.3054   21798063.8954
 11  8  2  1 40 30.0000000  0  9G17G02G04G09G25G27G12G10G05

  13188004.55947  10289219.42444  23265536.7584                   23265535.1724
  13096984.71148  10217917.86447  20529242.0704                   20529237.5664
  14509341.55548  11319574.23545  21775740.5784   21775738.6604   33089631.16047
  25796062.66744  23862863.0164   23862862.9654                   42167068.94947
  32869718.25444  23817568.6254   23817569.0984   25823022.64546  20133332.99343
  24032642.7424                   24032643.9534   22629749.04348  17645152.76146
  21199962.1644   21199959.1374   18003986.44947  14040705.95846  20826265.2424
  20826262.9654   27782820.11747  21661640.54046  21775037.2424   21775035.1804
 11  8  2  1 41  0.0000000  0  9G17G02G04G09G25G27G12G10G05

  13211012.82047  10307147.92444  23269914.8984                   23269913.5164
  13066293.32048  10194002.49147  20523401.7034                   20523397.1644
  14553672.00048  11354117.43345  21784176.3524   21784174.5594   33137809.87947
  25833604.46244  23872031.6804   23872031.8014                   42036622.70747
  32768071.91444  23792744.8054   23792745.4104   25854183.39145  20157614.03643
  24038572.8284                   24038574.0434   22543976.92648  17578317.34646
  21183640.1024   21183637.4304   17974799.09048  14017962.57746  20820711.2974
  20820708.9534   27662131.80148  21567597.73846  21752070.3984   21752068.9884
 11  8  2  1 41 30.0000000  0  9G17G02G04G09G25G27G12G10G05

  13234181.84447  10325201.69344  23274323.5634                   23274322.4224
  13035880.47348  10170304.18747  20517614.0554                   20517609.8594
  14598123.42248  11388754.89645  21792635.2894   21792633.3634   33186101.10946
  25871233.91844  23881220.6954   23881221.3284                   41906387.23447
  32666589.77444  23767962.0164   23767962.6844   25885370.32046  20181915.39543
  24044507.4224                   24044509.4184   22458670.46148  17511844.77246
  21167407.0314   21167404.0204   17946243.00048  13995711.08046  20815277.2114
  20815275.0984   27541775.66447  21473813.77546  21729167.3594   21729165.5274
 11  8  2  1 42  0.0000000  0  9G17G02G04G09G25G27G12G10G05

  13257512.93847  10343381.70444  23278763.8134                   23278762.5634
  13005746.17648  10146822.92647  20511879.7734                   20511875.3284
  14642694.55548  11423485.62145  21801116.8134   21801115.1174   33234502.12547
  25908948.92844  23890431.2114   23890432.1954                   41776365.80547
  32565274.43644  23743219.7504   23743220.9694   25916581.24646  20206235.45243
  24050447.1094                   24050448.0084   22373831.32048  17445736.34346
  21151262.4614   21151259.4734   17918318.72748  13973951.92646  20809963.5554
  20809961.1644   27421754.91448  21380291.15846  21706328.2814   21706326.7424
 11  8  2  1 42 30.0000000  0  9G17G02G04G09G25G27G12G10G05

  13281003.22347  10361685.80544  23283233.9224                   23283232.2934
  12975885.75048  10123555.06446  20506197.8594                   20506192.9024
  14687380.45348  11458305.78545  21809620.1414   21809618.5274   33283006.49246
  25946744.48044  23899661.1804   23899661.9264                   41646558.03947
  32464125.59644  23718517.6954   23718518.6334   25947810.50446  20230569.85743
  24056389.6174                   24056390.7584   22289458.91048  17379991.59946
  21135206.9844   21135204.0164   17891023.36348  13952682.82746  20804769.2814
  20804766.9414   27302069.46147  21287029.80846  21683553.1414   21683551.2894
 11  8  2  1 43  0.0000000  0  9G17G02G04G09G25G27G12G10G05

  13304652.01647  10380113.41944  23287734.1644                   23287732.8484
  12946296.89848  10100498.82446  20500566.9844                   20500562.4104
  14732178.27048  11493213.15845  21818144.7814   21818143.2114   33331609.69946
  25984617.01043  23908910.2034   23908911.1764                   41516965.41047
  32363144.40844  23693857.4384   23693857.9454   25979054.34846  20254915.56243
  24062335.3444                   24062336.4454   22205554.36748  17314611.43946
  21119240.5394   21119237.7504   17864355.48448  13931902.67746  20799694.4384
  20799692.2424   27182720.87547  21194030.96146  21660841.7034   21660839.9694
 11  8  2  1 43 30.0000000  0  9G17G02G04G09G25G27G12G10G05

  13328460.64147  10398665.57745  23292265.5784                   23292263.3794
  12916979.55548  10077654.14046  20494987.9694                   20494983.6094
  14777086.83648  11528206.82145  21826690.9064   21826689.2464   33380309.46147
  26022564.85044  23918177.2504   23918178.4304                   41387591.60547
  32262333.68644  23669238.2114   23669238.7934   26010310.88746  20279271.20144
  24068283.7974                   24068285.0204   22122120.60948  17249598.12446
  21103363.5704   21103360.8594   17838315.91848  13911612.11946  20794739.4844
  20794737.0234   27063712.88348  21101297.49746  21638195.3834   21638193.6054
 11  8  2  1 44  0.0000000  0  9G17G02G04G09G25G27G12G10G05

  13352433.34047  10417345.56345  23296827.1804                   23296825.7274
  12887936.23448  10055022.99246  20489461.3594                   20489456.6564
  14822108.03948  11563288.28045  21835258.0784   21835256.3244   33429106.05146
  26060588.05444  23927463.3914   23927463.8594                   41258442.73847
  32161698.26544  23644662.1254   23644662.2344   26041580.90246  20303637.34243
  24074234.1094                   24074235.0164   22039163.17248  17184955.95946
  21087577.0784   21087574.6024   17812908.51648  13891814.16046  20789904.4064
  20789902.1914   26945051.89148  21008834.43246  21615614.2814   21615613.5234
 11  8  2  1 44 30.0000000  0  9G17G02G04G09G25G27G12G10G05

  13376569.05147  10436152.59545  23301420.2194                   23301418.2664
  12859164.61748  10032603.56646  20483986.3754                   20483981.3914
  14867238.66448  11598454.97945  21843846.5004   21843845.0004   33477994.64846
  26098682.98244  23936766.1954   23936766.4574                   41129520.31647
  32061239.24644  23620129.2734   23620130.3094   26072860.43446  20328010.83544
  24080186.2734                   24080187.6644   21956683.11348  17120685.78246
  21071882.1334   21071879.1414   17788131.41448  13872507.35146  20785189.4614
  20785187.1804   26826739.21147  20916642.79146  21593100.3914   21593098.9064
 11  8  2  1 45  0.0000000  0  9G17G02G04G09G25G27G12G10G05

  13400871.68847  10455089.66445  23306044.9454                   23306042.9964
  12830666.71548  10010397.42047  20478563.5864                   20478558.9454
  14912480.28148  11633708.17445  21852455.4454   21852453.4694   33526975.62147
  26136849.84544  23946087.6174   23946087.2424                   41000830.33247
  31960961.41244  23595640.0784   23595640.8404   26104150.13746  20352392.33643
  24086140.4844                   24086141.9104   21874685.56348  17056791.57946
  21056277.9454   21056275.2464   17763987.58248  13853693.98446  20780595.0004
  20780592.7504   26708780.98448  20824727.33146  21570654.1724   21570652.1294
 11  8  2  1 45 30.0000000  0  9G17G02G04G09G25G27G12G10G05

  13425331.78147  10474149.44645  23310699.2664                   23310697.8284
  12802431.51648   9988395.96546  20473190.3364                   20473186.0554
  14957821.10248  11669038.65645  21861083.3134   21861081.5354   33576035.48447
  26175078.20244  23955423.5634   23955423.6684                   40872365.55547
  31860859.01644  23571193.5084   23571194.6054   26135437.55146  20376772.01243
  24092094.6094                   24092095.8714   21793162.77748  16993267.33946
  21040764.7114   21040762.3364   17740467.19548  13835366.41646  20776119.1804
  20776117.1804   26591170.19947  20733082.61046  21548273.3054   21548271.2584
 11  8  2  1 46  0.0000000  0  9G17G02G04G09G25G27G12G10G05

  13449952.47347  10493334.36344  23315384.3914                   23315382.4844
  12774460.55148   9966600.40147  20467867.5474                   20467863.2074
  15003261.99248  11704447.11345  21869730.7894   21869729.3324   33625173.50846
  26213367.53844  23964773.9454   23964774.5904                   40744131.35947
  31760936.28944  23546791.3754   23546792.9024   26166722.57446  20401149.87844
  24098048.0554                   24098048.9264   21712119.62548  16930116.83646
  21025343.0704   21025340.5394   17717572.49247  13817526.40446  20771762.6954
  20771760.1684   26473912.05947  20641712.68846  21525959.6484   21525957.7664
 11  8  2  1 46 30.0000000  0  8G17G02G04G09G25G12G10G05

  13474739.70746  10512649.05044  23320100.5234                   23320099.4264
  12746758.34448   9945014.26246  20462596.1564                   20462591.3094
  15048807.03548  11739936.74645  21878396.8914   21878395.5704   33674392.14147
  26251719.63644  23974139.9534   23974140.8674                   40616136.10247
  31661199.74344  23522434.7114   23522435.4534   21631563.51248  16867345.84146
  21010013.6254   21010011.2154   17695308.85548  13800178.12846  20767525.7734
  20767524.0084   26357015.09447  20550624.18446  21503714.7274   21503712.9264
 11  8  2  1 47  0.0000000  0  8G17G02G04G09G25G12G10G05

  13499694.53147  10532094.32945  23324849.8444                   23324848.6804
  12719324.04348   9923636.89446  20457375.5554                   20457370.5434
  15094454.90647  11775506.48745  21887083.8754   21887082.6764   33723688.77047
  26290132.48144  23983521.5234   23983522.3324                   40488382.91047
  31561651.87044  23498124.3524   23498125.6914   21551496.77348  16804956.18646
  20994777.5164   20994774.9184   17673676.77048  13783321.97546  20763409.4304
  20763407.0824   26240482.53547  20459819.64746  21481539.3054   21481537.6954
 11  8  2  1 47 30.0000000  0  8G17G02G04G09G25G12G10G05

  13524824.26647  10551675.91644  23329631.6644                   23329630.7074
  12692163.43448   9902472.79946  20452207.0864                   20452202.4694
  15140210.32447  11811160.00445  21895790.7034   21895788.8094   33773066.78947
  26328608.76344  23992917.6564   23992917.6414                   40360881.35247
  31462299.99644  23473861.5864   23473862.6644   21471928.32048  16742954.79646
  20979636.0634   20979633.4184   17652682.43047  13766962.75846  20759414.4144
  20759412.1484   26124323.85947  20369306.42346  21459434.9614   21459433.3204
 11  8  2  1 48  0.0000000  0  8G17G02G04G09G25G12G10G05

  15125552.07046  11798996.24744  23634239.9844                   23634238.4144
  14240700.33648  11109124.93046  20746883.7274                   20746879.2114
  16761493.98048  13074497.93245  22204310.8204   22204309.4694   35397944.93047
  27594747.44843  24302121.5474   24302122.4964                   41809061.93047
  32590752.43444  23749441.3834   23749441.4614   22968286.67248  17908948.32246
  21264383.6174   21264380.8054   19207750.12148  14978703.83346  21055333.8364
  21055331.4224   27583969.23447  21506692.47846  21737196.3754   21737194.7344
 11  8  2  1 48 30.0000000  0  8G17G02G04G09G25G12G10G05

  15151031.62946  11818850.39644  23639088.7034                   23639087.3714
  14214083.24648  11088384.35047  20741818.6094                   20741814.0434
  16807458.48048  13110314.41345  22213057.6484   22213056.1914   35447474.78547
  27633342.08443  24311547.0314   24311547.0944                   41682070.57047
  32491798.13344  23725275.4844   23725276.5474   22889719.88748  17847727.46546
  21249432.9694   21249430.4264   19188029.59448  14963337.19546  21051581.2114
  21051578.9774   27468565.58248  21416767.61546  21715235.7734   21715234.0514
 11  8  2  1 49  0.0000000  0  8G17G02G04G09G25G12G10G05

  15176685.42647  11838840.33744  23643970.3204                   23643969.1684
  14187734.37548  11067852.77046  20736804.6564                   20736800.0314
  16853523.89147  13146209.51345  22221823.9774   22221822.5234   35497074.23846
  27671990.93444  24320985.8364   24320986.2624                   41555337.07047
  32393044.75144  23701159.3204   23701159.3914   22811655.43448  17786898.02546
  21234578.0394   21234574.8914   19168943.84447  14948465.20146  21047948.9144
  21047947.2154   27353542.16448  21327139.01846  21693347.5234   21693345.3714
 11  8  2  1 49 30.0000000  0  8G17G02G04G09G25G12G10G05

  15202510.02746  11858963.34344  23648884.8444                   23648883.6334
  14161649.21148  11047526.66347  20731840.8284                   20731836.4024
  16899684.41447  13182178.74245  22230608.0944   22230606.3404   35546736.50046
  27710688.64844  24330435.6954   24330436.8134                   41428860.37947
  32294491.52044  23677091.2894   23677091.5664   22734091.29748  17726458.45446
  21219817.9224   21219815.3204   19150488.79748  14934084.65546  21044437.6414
  21044435.0274   27238897.82847  21237805.82446  21671531.4844   21671529.4344
 11  8  2  1 50  0.0000000  0  8G17G02G04G09G25G12G10G05

  15228503.49246  11879217.96444  23653831.2814                   23653830.0744
  14135824.21548  11027403.30146  20726926.6644                   20726922.0044
  16945936.30547  13218219.15845  22239409.1174   22239408.0664   35596455.82847
  27749430.92944  24339897.4224   24339898.1054                   41302640.96147
  32196138.71344  23653072.5704   23653072.8204   22657027.47747  17666408.72946
  21205152.8284   21205150.0164   19132661.79747  14920193.49846  21041045.1094
  21041042.6024   27124633.00048  21148768.34346  21649787.2814   21649785.8444
 11  8  2  1 50 30.0000000  0  8G17G02G04G09G25G12G10G05

  15254665.99247  11899604.29244  23658809.7664                   23658808.2854
  14110257.87148  11007481.46747  20722061.4614                   20722056.9654
  16992277.29347  13254328.98345  22248227.7584   22248226.5984   35646228.57447
  27788214.75944  24349369.2504   24349369.9964                   41176681.11347
  32097988.21144  23629103.1724   23629103.5664   22580465.28548  17606749.89946
  21190583.6954   21190580.9574   19115461.94147  14906791.02746  21037771.7194
  21037769.5164   27010749.92648  21060028.34446  21628116.4844   21628114.2034
 11  8  2  1 51  0.0000000  0  8G17G02G04G09G25G12G10G05

  15280992.96947  11920118.79244  23663820.1414                   23663817.9964
  14084944.35248  10987756.64147  20717244.4064                   20717240.0434
  17038700.87547  13290503.19145  22257061.5704   22257060.2974   35696046.75047
  27827034.01144  24358848.9224   24358849.6254                   41050978.72347
  32000038.31144  23605182.6484   23605183.2034   22504401.76648  17547479.64046
  21176109.1954   21176106.6374   19098883.89148  14893873.07846  21034616.9144
  21034614.9534   26897246.52748  20971584.18446  21606517.2424   21606515.4574
 11  8  2  1 51 30.0000000  0  8G17G02G04G09G25G12G10G05

  15307489.92247  11940765.74744  23668862.1804                   23668860.1994
  14059887.10948  10968231.52247  20712476.0784                   20712471.4614
  17085210.08647  13326744.12545  22265912.5704   22265910.5784   35745912.12547
  27865890.05343  24368338.1644   24368339.1804                   40925541.20747
  31902294.81344  23581313.0084   23581312.9964   22428843.38748  17488602.99246
  21161731.0004   21161728.1884   19082931.86747  14881442.94346  21031581.4534
  21031579.5084   26784130.23448  20883441.67346  21584991.9144   21584990.2234
 11  8  2  1 52  0.0000000  0  8G17G02G04G09G25G12G10G05

  15334156.53947  11961544.91744  23673937.1954                   23673934.5004
  14035084.68448  10948904.96547  20707756.3444                   20707752.4184
  17131803.04747  13363050.31045  22274778.9454   22274777.1094   35795821.08647
  27904780.07543  24377835.9454   24377836.3524                   40800370.88347
  31804759.50444  23557493.6564   23557494.2974   22353791.91848  17430121.33946
  21147448.9064   21147445.9104   19067604.33648  14869499.42446  21028664.7894
  21028663.0004   26671403.03148  20795602.34346  21563540.4144   21563538.6724
 11  8  2  1 52 30.0000000  0  8G17G02G04G09G25G12G10G05

  15360986.62047  11982451.47444  23679042.0394                   23679040.0084
  14010529.19148  10929770.82047  20703083.3444                   20703079.3794
  17178471.23447  13399415.12645  22283659.2584   22283657.3594   35845763.57047
  27943696.18244  24387339.7974   24387340.0474                   40675463.78547
  31707429.30944  23533724.8834   23533724.7974   22279242.19948  17372030.66046
  21133262.8364   21133259.8014   19052894.39148  14858037.14446  21025865.6644
  21025863.6954   26559061.10248  20708063.23446  21542162.2664   21542160.4654
 11  8  2  1 53  0.0000000  0  8G17G02G04G09G25G12G10G05

  15387984.56347  12003488.78544  23684179.6724                   23684178.3054
  13986223.86748  10910831.61347  20698458.2584                   20698454.1054
  17225217.28547  13435840.60745  22292554.8914   22292553.1844   35895740.52047
  27982639.19744  24396849.8754   24396850.1604                   40550826.81647
  31610309.62844  23510006.9924   23510007.2464   22205200.33248  17314335.70346
  21119173.2664   21119170.6134   19038805.76648  14847058.99146  21023184.3834
  21023182.2154   26447111.25048  20620829.62546  21520858.9774   21520856.6954
 11  8  2  1 53 30.0000000  0  8G17G02G04G09G25G12G10G05

  15415151.99247  12024658.17144  23689350.0474                   23689348.4104
  13962168.62948  10892087.27947  20693880.8914                   20693876.2894
  17272040.73047  13472326.39445  22301465.1484   22301463.5314   35945750.11346
  28021607.59143  24406365.7274   24406366.9574                   40426463.87147
  31513403.46744  23486341.4614   23486342.4144   22131669.59448  17257039.02946
  21105180.2424   21105177.7304   19025338.72748  14836565.20146  21020621.7504
  21020619.6844   26335557.11748  20533904.38046  21499630.9774   21499629.1644
 11  8  2  1 54  0.0000000  0  8G17G02G04G09G25G12G10G05

  15442492.11346  12045962.14744  23694552.4384                   23694550.3954
  13938364.90248  10873538.92347  20689351.0864                   20689346.4694
  17318942.56647  13508873.26845  22310389.9534   22310388.4614   35995791.64546
  28060600.90544  24415888.5314   24415889.5664                   40302380.41847
  31416715.05744  23462729.4224   23462729.8364   22058654.28948  17200143.99446
  21091285.8524   21091283.3874   19012495.49648  14826557.49846  21018178.2504
  21018175.7384   26224404.08248  20447291.66546  21478478.9844   21478477.1804
 11  8  2  1 54 30.0000000  0  8G17G02G04G09G25G12G10G05

  15469998.34446  12067395.52344  23699786.7034                   23699785.5474
  13914804.47348  10855180.15746  20684867.5634                   20684863.1334
  17365914.23447  13545474.54545  22319328.3284   22319326.5354   36045854.89546
  28099611.13944  24425416.0864   24425416.7774                   40178572.01247
  31320241.03544  23439169.2274   23439169.6684   21986148.63348  17143646.09546
  21077488.6884   21077486.6294   19000268.15247  14817029.70846  21015851.0944
  21015848.9574   26113647.69948  20360988.02946  21457402.7274   21457400.6094
 11  8  2  1 55  0.0000000  0  8G17G02G04G09G25G12G10G05

  15497678.14846  12088964.17644  23705053.1884                   23705053.0394
  13891493.53548  10837015.79246  20680432.0234                   20680427.5594
  17412961.27747  13582134.58745  22328281.5234   22328279.5704   36095943.98446
  28138641.44944  24434947.1644   24434948.6724                   40055048.53947
  31223989.00844  23415663.1414   23415663.9344   21914161.74648  17087552.41846
  21063790.0164   21063787.6094   18988663.20748  14807986.91446  21013643.1094
  21013640.5354   26003297.87948  20275001.21146  21436404.0394   21436402.1294
 11  8  2  1 55 30.0000000  0  8G17G02G04G09G25G12G10G05

  15525526.15647  12110663.92644  23710353.5314                   23710352.2194
  13868425.39848  10819040.62746  20676042.1484                   20676037.8094
  17460076.52047  13618847.76645  22337246.9614   22337245.1644   36146049.86346
  28177684.93443  24444482.3594   24444482.9614                   39931807.21147
  31127956.81144  23392211.2664   23392211.8594   21842690.09448  17031860.22146
  21050189.2504   21050187.0084   18977674.35947  14799424.19146  21011551.6644
  21011549.3164   25893351.51648  20189328.75646  21415481.8594   21415480.1914
 11  8  2  1 56  0.0000000  0  8G17G02G04G09G25G12G10G05

  15553541.19946  12132493.79844  23715684.2424                   23715683.2034
  13845597.53948  10801252.68447  20671698.1334                   20671693.7774
  17507256.64547  13655611.50945  22346225.0164   22346223.2624   36196168.12146
  28216738.01043  24454019.9774   24454020.1374                   39808849.10247
  31032145.32045  23368813.4614   23368814.1214   21771733.71548  16976569.54246
  21036686.7974   21036684.2974   18967299.54348  14791339.93246  21009577.4064
  21009575.1994   25783809.32448  20103971.24346  21394636.6174   21394634.8984
 11  8  2  1 56 30.0000000  0  8G17G02G04G09G25G12G10G05

  15581725.73446  12154455.71944  23721047.9304                   23721046.6684
  13823010.68048  10783652.53647  20667399.6644                   20667395.4184
  17554502.35947  13692426.34245  22355215.6724   22355214.1094   36246297.68046
  28255799.89943  24463558.7664   24463560.1724                   39686179.13347
  30936558.35345  23345470.3984   23345470.3834   21701296.39848  16921683.32846
  21023283.0704   21023280.4614   18957539.80948  14783734.96346  21007720.2274
  21007717.7894   25674676.06348  20018932.37346  21373869.1254   21373867.2384
 11  8  2  1 57  0.0000000  0  8G17G02G04G09G25G12G10G05

  15610083.65246  12176552.77744  23726443.8524                   23726442.8404
  13800667.10248  10766241.96247  20663148.1804                   20663143.7154
  17601815.56647  13729293.76445  22364218.9224   22364217.2034   36296438.67646
  28294870.75843  24473100.2974   24473101.8404                   39563803.39547
  30841200.65845  23322182.5234   23322183.0824   21631383.12948  16867205.45846
  21009978.9224   21009976.2584   18948397.39548  14776611.00146  21005980.7894
  21005978.1724   25565957.76248  19934216.85446  21353181.0784   21353179.1134
 11  8  2  1 57 30.0000000  0  8G17G02G04G09G25G12G10G05

  15638614.69146  12198784.70844  23731873.2034                   23731872.4964
  13778564.98448  10749019.54346  20658942.2584                   20658937.6294
  17649194.09047  13766212.09245  22373235.1804   22373233.5704   36346587.51346
  28333947.58943  24482644.0084   24482645.2814                   39441723.94147
  30746073.85545  23298951.7734   23298952.1884   21561994.89847  16813136.70746
  20996774.8674   20996772.5514   18939870.96547  14769967.02846  21004358.2504
  21004355.8364   25457656.35948  19849826.19246  21332572.0704   21332569.6174
 11  8  2  1 58  0.0000000  0  8G17G02G04G09G25G12G10G05

  15667314.84047  12221148.42044  23737334.8054                   23737333.6214
  13756699.31648  10731981.37046  20654781.3444                   20654777.0204
  17696632.01647  13803176.67745  22382262.1334   22382260.3444   36396737.10246
  28373025.08543  24492186.7584   24492188.8324                   39319939.33247
  30651176.79945  23275776.7664   23275777.0744   21493129.50848  16759475.37346
  20983670.4534   20983667.5784   18931955.46947  14763799.11846  21002852.1804
  21002849.2624   25349770.27348  19765759.16046  21312041.3284   21312039.6134
 11  8  2  1 58 30.0000000  0  8G17G02G04G09G25G12G10G05

  15696183.16046  12243643.22444  23742828.7664                   23742826.1644
  13735067.28548  10715125.25247  20650664.7274                   20650660.3094
  17744126.66047  13840185.47345  22391300.4534   22391298.1844   36446882.63746
  28412099.39743  24501729.6024   24501730.1994                   39198450.77347
  30556510.43545  23252658.0084   23252658.7464   21424787.12147  16706221.57446
  20970665.1564   20970662.6524   18924648.81647  14758105.63346  21001461.3444
  21001459.2544   25242300.32848  19682016.39346  21291590.7974   21291589.0204
 11  8  2  1 59  0.0000000  0  8G17G02G04G09G25G12G10G05

  15725229.48047  12266276.67344  23748355.1564                   23748354.3054
  13713677.31648  10698457.75247  20646594.6484                   20646590.1254
  17791685.98447  13877244.67945  22400350.5474   22400348.5824   36497030.71546
  28451175.75343  24511272.2894   24511274.0634                   39077270.69547
  30462084.42345  23229598.2504   23229598.3484   21356978.72347  16653383.86446
  20957761.6724   20957759.0594   18917959.31347  14752893.05046  21000188.5084
  21000186.5864   25135258.78948  19598607.45046  21271221.4534   21271219.4494
 11  8  2  1 59 30.0000000  0  7G17G02G04G25G12G10G05

  15754448.85247  12289044.99544  23753915.5394                   23753914.0824
  13692522.96548  10681973.85546  20642568.6024                   20642564.7504
  17839303.25047  13914349.03745  22409411.6334   22409409.8244   38956396.46947
  30367896.76445  23206596.4144   23206596.8094   21289700.60948  16600959.37446
  20944959.0704   20944956.5394   18911880.87547  14748156.61146  20999031.9774
  20999029.2974   25028642.69148  19515530.01746  21250932.8754   21250931.0634
 11  8  2  2  0  0.0000000  0  7G17G02G04G25G12G10G05

  15783843.39147  12311949.81744  23759509.7114                   23759507.8914
  13671605.18448  10665674.29046  20638588.2734                   20638584.2114
  17886978.83247  13951498.82245  22418483.9144   22418482.3164   38835832.57847
  30273950.93045  23183654.2274   23183654.1724   21222955.98448  16548950.58246
  20932257.9454   20932255.2854   18906414.04747  14743896.73246  20997991.3364
  20997989.3954   24922456.28548  19432787.40646  21230726.6254   21230724.2664
 11  8  2  2  0 30.0000000  0  7G17G02G04G25G12G10G05

  15813416.27347  12334993.57744  23765137.2194                   23765135.3054
  13650925.51648  10649560.27646  20634653.2894                   20634648.8164
  17934713.77347  13988694.87045  22427567.6804   22427565.9264   38715584.48447
  30180251.14645  23160771.4304   23160771.8054   21156749.52048  16497361.14546
  20919659.5474   20919656.5784   18901560.95747  14740115.10446  20997068.1644
  20997065.3364   24816704.88748  19350383.76246  21210602.5234   21210600.6054
 11  8  2  2  1  0.0000000  0  7G17G02G04G25G12G10G05

  15843172.26247  12358180.03744  23770799.5474                   23770798.1134
  13630487.30548  10633634.41047  20630764.0234                   20630759.6374
  17982511.44147  14025939.77245  22436662.9924   22436661.9804   38595659.53947
  30086803.20345  23137950.2584   23137950.8444   21091086.82048  16446195.41746
  20907164.1564   20907161.3284   18897325.13747  14736814.49046  20996262.0004
  20996259.4304   24711395.41048  19268324.47746  21190562.3524   21190560.4144
 11  8  2  2  1 30.0000000  0  7G17G02G04G25G12G10G05

  15873111.31347  12381509.12344  23776496.4924                   23776495.1724
  13610288.93848  10617895.44346  20626920.1334                   20626915.8794
  18030369.64147  14063231.84345  22445770.3284   22445768.6884   38476059.79747
  29993608.61845  23115191.1804   23115192.2704   21025969.19548  16395454.42246
  20894772.7734   20894769.7664   18893704.53547  14733993.25146  20995572.7584
  20995570.8014   24606530.07848  19186611.28146  21170607.4304   21170605.4344
 11  8  2  2  2  0.0000000  0  7G17G02G04G25G12G10G05

  15903234.18447  12404981.50344  23782229.1644                   23782226.9344
  13590330.18448  10602343.16747  20623122.2974                   20623117.9884
  18078287.76247  14100570.57645  22454888.5944   22454887.0944   38356788.69147
  29900670.13445  23092494.4534   23092495.0394   20961399.00048  16345139.99946
  20882485.3674   20882482.5164   18890699.08247  14731651.34046  20995000.8834
  20994998.6094   24502111.84848  19105246.46746  21150737.3134   21150735.4924
 11  8  2  2  2 30.0000000  0  7G17G02G04G25G12G10G05

  15933533.40647  12428591.28644  23787994.8134                   23787992.3444
  13570601.73048  10586970.37947  20619368.1644                   20619363.6994
  18126256.29347  14137948.64645  22464017.2734   22464015.7544   38237841.00047
  29807983.70045  23069859.8594   23069860.1844   20897369.63748  16295246.99646
  20870301.2034   20870297.9024   18888299.44148  14729781.49646  20994544.3524
  20994541.8794   24398134.94148  19024225.54246  21130951.1174   21130949.2114
 11  8  2  2  3  0.0000000  0  7G17G02G04G25G12G10G05

  15964005.73046  12452335.95543  23793792.8134                   23793790.3594
  13551098.98048  10571773.44946  20615656.9774                   20615652.3794
  18174270.37147  14175362.19145  22473153.6254   22473152.4454   38119215.78147
  29715548.52345  23047286.4694   23047286.4384   20833878.90647  16245773.71946
  20858219.1954   20858215.9804   18886500.94147  14728380.06746  20994202.1174
  20994199.5044   24294598.06348  18943547.50046  21111248.7894   21111246.9064
 11  8  2  2  3 30.0000000  0  7G17G02G04G25G12G10G05

  15994653.63746  12476217.39344  23799625.5784                   23799623.0704
  13531823.23848  10556753.40046  20611989.2974                   20611984.5274
  18222331.02347  14212812.03645  22482299.4144   22482297.6914   38000918.26647
  29623368.69145  23024775.0554   23024775.2584   20770930.67647  16196723.16846
  20846240.5004   20846237.8984   18885304.96547  14727448.15946  20993974.6094
  20993972.0634   24191506.36748  18863216.34546  21091630.7034   21091629.1684
 11  8  2  2  4  0.0000000  0  7G17G02G04G25G12G10G05

  16025479.43846  12500237.48844  23805491.6174                   23805489.5474
  13512775.12948  10541910.73846  20608364.0864                   20608359.7154
  18270438.28947  14250298.20645  22491453.7114   22491452.1564   37882952.72347
  29531447.51745  23002327.0004   23002326.7384   20708528.00448  16148097.73146
  20834365.7424   20834363.0234   18884711.98848  14726986.10846  20993861.6884
  20993859.3244   24088863.69948  18783235.07846  21072098.8364   21072096.8204
 11  8  2  2  4 30.0000000  0  7G17G02G04G25G12G10G05

  16056477.46146  12524391.74744  23811390.3984                   23811388.7384
  13493947.73848  10527240.04647  20604781.2974                   20604776.7034
  18318585.50447  14287815.48845  22500615.5394   22500614.6294   37765316.18847
  29439782.73045  22979941.2114   22979941.4574   20646666.61347  16099894.06746
  20822593.7344   20822590.7074   18884714.98447  14726988.45346  20993862.1334
  20993859.8754   23986666.78948  18703601.15646  21052651.3204   21052649.1414
 11  8  2  2  5  0.0000000  0  7G17G02G04G25G12G10G05

  16087650.65646  12548682.52544  23817321.4694                   23817321.1214
  13475342.53548  10512742.50246  20601240.9774                   20601236.1484
  18366773.57047  14325364.60444  22509786.4384   22509784.5784   37648013.87147
  29348378.36145  22957619.3364   22957619.9264   20585350.59048  16052115.35546
  20810925.8984   20810922.6294   18885315.26248  14727456.20746  20993976.4144
  20993973.8714   23884920.25848  18624318.17846  21033289.4304   21033287.3554
 11  8  2  2  5 30.0000000  0  7G17G02G04G25G12G10G05

  16118998.05546  12573109.08544  23823287.4304                   23823286.1454
  13456957.16448  10498416.25346  20597741.9454                   20597737.4964
  18414999.99247  14362943.62544  22518963.5314   22518961.2934   37531047.20347
  29257235.53745  22935361.4534   22935361.7544   20524579.86348  16004761.55146
  20799361.2194   20799358.5904   18886510.33648  14728387.45046  20994203.8134
  20994201.3524   23783625.04348  18545386.88246  21014013.3444   21014011.6374
 11  8  2  2  6  0.0000000  0  7G17G02G04G25G12G10G05

  16150525.82846  12597676.16544  23829287.0394                   23829286.2854
  13438796.76248  10484265.30946  20594286.2114                   20594281.7344
  18463269.38347  14400556.13845  22528149.0394   22528147.2034   37414424.89147
  29166361.04745  22913168.9384   22913168.8714   20464361.66848  15957838.30146
  20787902.2274   20787899.3324   18888305.03548  14729785.92046  20994545.3524
  20994542.8014   23682790.24648  18466814.34146  20994825.3984   20994823.2504
 11  8  2  2  6 30.0000000  0  7G17G02G04G25G12G10G05

  16182229.71946  12622380.49744  23835320.2344                   23835319.0314
  13420855.56348  10470285.17247  20590872.0164                   20590867.5744
  18511575.94147  14438197.61445  22537341.1024   22537339.3954   37298145.23447
  29075753.54045  22891041.5164   22891041.3634   20404693.09048  15911343.32246
  20776547.5944   20776545.0704   18890693.47348  14731647.06046  20994999.6174
  20994997.4384   23582413.12148  18388598.44446  20975724.1954   20975722.2304
 11  8  2  2  7  0.0000000  0  7G17G02G04G25G12G10G05

  16214105.97746  12647219.12744  23841385.9384                   23841384.2114
  13403128.35248  10456471.76947  20587499.1484                   20587494.3094
  18559914.13347  14475863.69844  22546539.5474   22546537.9264   37182206.68047
  28985411.84645  22868979.0944   22868979.2504   20345571.13348  15865274.27546
  20765297.0704   20765294.2584   18893670.39848  14733966.76146  20995566.4694
  20995563.6374   23482492.00048  18310737.86446  20956709.7814   20956707.8594
 11  8  2  2  7 30.0000000  0  7G17G02G04G25G12G10G05

  16246161.34846  12672197.31644  23847485.8524                   23847484.0204
  13385620.68048  10442829.43546  20584167.1484                   20584162.6484
  18608289.39547  14513558.71344  22555745.2894   22555742.9734   37066618.55547
  28895343.19745  22846983.4144   22846983.5514   20287003.87948  15819637.46746
  20754152.2274   20754149.7704   18897240.79748  14736748.89646  20996246.0474
  20996243.0944   23383035.69548  18233239.48546  20937783.7344   20937782.0044
 11  8  2  2  8  0.0000000  0  7G17G02G04G25G12G10G05

  16278392.34046  12697312.31844  23853619.2274                   23853617.8914
  13368327.84848  10429354.51346  20580876.5864                   20580872.0554
  18656696.58247  14551278.58344  22564956.8524   22564954.5824   36951379.64147
  28805546.66445  22825054.3284   22825054.7854   20228988.89148  15774430.99146
  20743112.1724   20743109.3284   18901399.52748  14739989.46146  20997036.8204
  20997034.4614   23284042.43448  18156101.90546  20918946.0944   20918944.0864
 11  8  2  2  8 30.0000000  0  7G17G02G04G25G12G10G05

  16310803.38746  12722567.65744  23859786.9384                   23859786.2154
  13351252.43848  10416049.00546  20577627.0164                   20577622.6724
  18705138.57447  14589025.58344  22574174.7734   22574173.0354   36836496.68447
  28716027.50345  22803192.6644   22803193.0664   20171531.09848  15729658.70146
  20732177.9924   20732175.4264   18906149.14148  14743690.46646  20997940.8594
  20997938.2034   23185518.63348  18079330.16046  20900197.6564   20900195.3094
 11  8  2  2  9  0.0000000  0  7G17G02G04G25G12G10G05

  16343391.00046  12747960.62244  23865988.2664                   23865987.1764
  13334390.23048  10402909.64646  20574418.5784                   20574414.1024
  18753610.55947  14626795.95544  22583398.8364   22583396.7074   36721968.97747
  28626785.13745  22781398.9224   22781399.1374   20114628.57448  15685319.08146
  20721350.2034   20721347.2384   18911484.81348  14747848.15146  20998956.2504
  20998953.8164   23087463.02748  18002923.22246  20881538.3284   20881535.8674
 11  8  2  2  9 30.0000000  0  7G17G02G04G25G12G10G05

  16376154.02746  12773490.21444  23872222.9924                   23872220.9924
  13317738.63348  10389934.37646  20571249.8444                   20571245.4924
  18802109.47747  14664587.34044  22592627.7974   22592626.0744   36607797.60247
  28537820.43445  22759672.6254   22759672.7274   20058280.53548  15641411.52346
  20710627.6254   20710624.6764   18917403.55548  14752460.18346  21000082.3134
  21000079.6764   22989876.22748  17926881.58746  20862967.6724   20862966.1524
 11  8  2  2 10  0.0000000  0  7G17G02G04G25G12G10G05

  16409094.78946  12799158.35344  23878490.9224                   23878489.4774
  13301298.44948  10377123.86246  20568121.3444                   20568116.7504
  18850636.51247  14702400.59044  22601862.0084   22601860.5944   36493987.17247
  28449137.00245  22738015.0784   22738015.6564   20002490.61748  15597938.87146
  20700010.9844   20700008.3524   18923905.91448  14757526.97546  21001319.7734
  21001317.2274   22892762.54748  17851208.63246  20844487.8054   20844485.7274
 11  8  2  2 10 30.0000000  0  7G17G02G04G25G12G10G05

  16442213.75846  12824965.33044  23884793.3914                   23884792.1914
  13285068.90248  10364477.47646  20565032.7424                   20565028.1484
  18899190.36747  14740234.76644  22611101.4614   22611099.5704   36380540.73047
  28360737.18745  22716426.9144   22716427.1254   19947260.22748  15554902.20146
  20689501.3054   20689498.2894   18930990.71948  14763047.60546  21002668.0474
  21002665.3954   22796124.46948  17775906.25646  20826098.4844   20826096.1094
 11  8  2  2 11  0.0000000  0  7G17G02G04G25G12G10G05

  16475511.24647  12850911.43544  23891130.1094                   23891129.4104
  13269049.03148  10351994.47646  20561984.4774                   20561979.5554
  18947770.04747  14778089.05244  22620345.9384   22620344.4964   36267460.88347
  28272623.01245  22694908.3284   22694908.4924   19892589.98048  15512302.03246
  20679097.8524   20679094.7114   18938656.48448  14769020.93346  21004126.3524
  21004124.2624   22699964.20748  17700976.22146  20807799.8364   20807797.3874
 11  8  2  2 11 30.0000000  0  7G17G02G04G25G12G10G05

  18084405.61747  14104595.36244  24197292.4774                   24197291.2974
  14828657.76248  11567274.02147  20858768.0394   20858763.5164   20571792.31647
  16043560.91844                  22929386.9064   22929385.2194   37730173.53547
  29412399.10045  22973253.4144   22973253.5704   21413902.51648  16697740.37046
  20968594.1024   20968590.9344   20522321.01248  16003045.24446  21305487.8834
  21305485.7154   24179706.59048  18854022.25446  21089385.4224   21089382.8834
 11  8  2  2 12  0.0000000  0  7G17G02G04G25G12G10G05

  18118062.46146  14130821.47644  24203696.2424                   24203694.9734
  14813056.27748  11555117.02646  20855799.2194   20855794.8714   20620422.17247
  16081454.29544                  22938641.2424   22938638.9844   37617836.93447
  29324864.08845  22951876.6804   22951876.9654   21360358.84048  16656018.02846
  20958404.8914   20958402.0354   20531146.24648  16009922.06746  21307167.1644
  21307164.8054   24084510.24648  18779843.32546  21071270.0554   21071267.6454
 11  8  2  2 12 30.0000000  0  7G17G02G04G25G12G10G05

  18151894.66847  14157184.17043  24210134.6954                   24210133.4774
  14797657.69548  11543118.13746  20852868.7194   20852864.3674   20669070.53547
  16119362.11944                  22947898.3054   22947897.4224   37505871.13347
  29237618.01845  22930570.0944   22930571.0084   21307375.49248  16614732.31546
  20948322.1414   20948319.4574   20540543.98048  16017244.99746  21308955.3834
  21308952.9574   23989794.07048  18706038.54546  21053245.8754   21053243.7194
 11  8  2  2 13  0.0000000  0  7G17G02G04G25G12G10G05

  18185905.96147  14183686.47844  24216607.2584                   24216605.4534
  14782464.46948  11531279.26846  20849978.0784   20849973.2664   20717739.64547
  16157286.05844                  22957160.1334   22957158.5394   37394282.38747
  29150665.75245  22909335.6954   22909336.0634   21254956.76648  16573886.55747
  20938347.3134   20938344.6644   20550516.00448  16025015.41046  21310853.5704
  21310850.9734   23895564.03948  18632612.57946  21035314.6174   21035311.8754
 11  8  2  2 13 30.0000000  0  7G17G02G04G25G12G10G05

  18220092.85947  14210325.60244  24223113.0554                   24223110.9494
  14767471.66848  11519596.57247  20847124.5634   20847120.1524   20766424.78547
  16195222.51844                  22966424.8834   22966422.8404   37283069.53547
  29064006.39245  22888172.3594   22888172.8204   21203099.99248  16533478.68546
  20928479.3524   20928476.8014   20561057.04348  16033229.20946  21312859.3134
  21312856.9064   23801818.32448  18559564.00646  21017475.3754   21017472.9264
 11  8  2  2 14  0.0000000  0  7G17G02G04G25G12G10G05

  18254459.70346  14237104.94543  24229652.2894                   24229650.4694
  14752682.38748  11508072.47147  20844310.2194   20844305.8134   20815128.89847
  16233173.78144                  22975692.6804   22975691.0864   37172239.34847
  28977645.23945  22867082.1484   22867082.8674   21151810.41848  16493512.79546
  20918719.5004   20918716.8134   20572169.84847  16041888.55046  21314974.0234
  21314971.6684   23708563.09448  18486897.62546  20999729.6954   20999727.0474
 11  8  2  2 14 30.0000000  0  7G17G02G04G25G12G10G05

  18289004.81346  14264023.23043  24236225.7664                   24236224.5044
  14738094.25448  11496705.10546  20841534.2664   20841529.5594   20863849.00447
  16271137.47244                  22984963.8674   22984962.3054   37061792.65647
  28891582.90445  22846064.8834   22846065.5704   21101086.95348  16453988.01147
  20909067.1724   20909064.0984   20583850.99248  16050990.74646  21317196.8524
  21317194.6334   23615798.72748  18414613.73046  20982076.8594   20982074.6414
 11  8  2  2 15  0.0000000  0  7G17G02G04G25G12G10G05

  18323731.97746  14291083.34443  24242834.1254                   24242832.7774
  14723709.80148  11485496.45046  20838797.2424   20838792.4964   20912587.70347
  16309115.65744                  22994238.6954   22994237.1884   36951735.79347
  28805824.32745  22825122.3284   22825122.7034   21050934.88348  16414908.48146
  20899523.1564   20899520.3444   20596102.43848  16060537.31946  21319528.5084
  21319525.7664   23523530.85948  18342716.72546  20964518.9774   20964516.4964
 11  8  2  2 15 30.0000000  0  7G17G02G04G25G12G10G05

  18358637.45746  14318282.39943  24249476.9384                   24249475.5204
  14709523.96548  11474442.55746  20836097.6724   20836092.8834   20961340.05147
  16347104.48744                  23003515.7814   23003514.6644   36842067.40247
  28720368.46745  22804252.7034   22804252.6684   21001351.31348  16376271.93446
  20890087.8834   20890085.0984   20608918.37148  16070523.76646  21321966.8054
  21321964.3954   23431757.63348  18271205.14847  20947055.2974   20947052.5004
 11  8  2  2 16  0.0000000  0  7G17G02G04G25G12G10G05

  18393720.00846  14345619.47343  24256152.4534                   24256151.3014
  14695533.89548  11463541.19846  20833435.3594   20833430.8094   21010103.21947
  16385101.76144                  23012794.7424   23012793.5664   36732788.37147
  28635215.99045  22783457.6954   22783457.9774   20952334.50048  16338077.03446
  20880760.2424   20880757.3954   20622295.64848  16080947.63246  21324512.5314
  21324509.6524   23340479.29348  18200079.19946  20929685.3754   20929683.3444
 11  8  2  2 16 30.0000000  0  7G17G02G04G25G12G10G05

  18428981.70346  14373096.17343  24262863.1024                   24262860.7584
  14681740.75048  11452793.29446  20830810.6254   20830806.0394   21058878.02747
  16423108.09344                  23022076.4454   23022075.1844   36623903.21947
  28550370.44345  22762737.7114   22762737.7154   20903887.65248  16300326.24546
  20871541.2194   20871538.2664   20636234.09448  16091808.74646  21327164.9694
  21327163.0204   23249699.63348  18129341.83046  20912410.6644   20912408.3444
 11  8  2  2 17  0.0000000  0  7G17G02G04G25G12G10G05

  18464424.27046  14400713.68443  24269607.5394                   24269605.6094
  14668145.28148  11442199.43746  20828223.4924   20828219.3834   21107665.23847
  16461124.12044                  23031360.6094   23031358.9924   36515416.40648
  28465835.30945  22742093.4064   22742093.4804   20856013.64548  16263021.82346
  20862431.0084   20862428.1054   20650733.99247  16103107.37946  21329924.3524
  21329921.8634   23159422.48448  18058996.04246  20895231.2974   20895229.1724
 11  8  2  2 17 30.0000000  0  7G17G02G04G25G12G10G05

  18500047.12546  14428471.75143  24276386.5084                   24276384.6214
  14654745.84048  11431758.31846  20825673.7734   20825669.0354   21156463.08247
  16499148.39744                  23040646.4614   23040645.3324   36407329.80947
  28381612.02645  22721524.5554   22721525.2624   20808712.60948  16226163.87746
  20853429.9534   20853427.1024   20665792.96147  16114841.62046  21332789.8914
  21332787.7154   23069649.25048  17989042.89946  20878148.0084   20878145.8164
 11  8  2  2 18  0.0000000  0  6G02G04G25G12G10G05

  14641541.12148  11421468.92946  20823160.8754   20823156.4804   21205270.35547
  16537180.05244                  23049934.4694   23049931.9454   36299645.75847
  28297702.43545  22701033.0164   22701033.2624   20761985.32848  16189752.99847
  20844538.1884   20844535.5704   20681408.95747  16127009.94246  21335761.4454
  21335758.6214   22980381.51248  17919483.64247  20861160.9064   20861158.4774
 11  8  2  2 18 30.0000000  0  6G02G04G25G12G10G05

  14628529.57848  11411330.06346  20820684.9384   20820680.2344   21254085.43847
  16575217.76044                  23059222.9534   23059221.7894   36192366.16847
  28214107.99445  22680618.4064   22680618.8754   20715831.77048  16153789.19946
  20835755.3834   20835752.4804   20697579.31647  16139610.22946  21338838.9534
  21338835.9964   22891620.53948  17850319.28047  20844270.1484   20844267.9734
 11  8  2  2 19  0.0000000  0  6G02G04G25G12G10G05

  14615718.31648  11401347.26446  20818246.9224   20818242.5744   21302915.10546
  16613266.88044                  23068515.6724   23068513.8054   36085501.75847
  28130837.06645  22660282.8284   22660283.2894   20670260.83248  16118279.38346
  20827083.3444   20827080.5124   20714310.53547  16152647.53546  21342022.4774
  21342020.0354   22803376.38748  17781557.63747  20827477.7504   20827475.5124
 11  8  2  2 19 30.0000000  0  6G02G04G25G12G10G05

  14603111.07048  11391523.43546  20815847.7504   20815843.3054   21351763.32046
  16651330.43244                  23077810.7504   23077809.5904   35979059.64547
  28047895.18245  22640027.4614   22640027.6294   20625277.88348  16083227.73946
  20818523.4224   20818520.5084   20731605.46148  16166124.09346  21345313.4384
  21345311.4104   22715655.49248  17713203.71047  20810785.2114   20810783.0744
 11  8  2  2 20  0.0000000  0  6G02G04G25G12G10G05

  14590701.55148  11381853.68846  20813486.1414   20813481.6844   21400623.63346
  16689403.41844                  23087108.5944   23087107.3204   35873037.11747
  27965280.27045  22619851.8054   22619851.9804   20580878.49248  16048630.81046
  20810074.4304   20810071.8364   20749456.85247  16180034.27246  21348710.5164
  21348708.1484   22628454.44948  17645254.88547  20794191.5864   20794189.1374
 11  8  2  2 20 30.0000000  0  6G02G04G25G12G10G05

  14578482.29747  11372332.19546  20811161.1414   20811156.4414   21449488.58246
  16727480.01944                  23096406.5004   23096406.0274   35767430.10547
  27882989.14245  22599755.7344   22599755.4454   20537057.19547  16014484.35947
  20801735.7344   20801733.0434   20767855.99647  16194371.25446  21352211.8984
  21352209.2114   22541768.31348  17577707.27847  20777695.6174   20777693.2854
 11  8  2  2 21  0.0000000  0  6G02G04G25G12G10G05

  14566451.04347  11362957.20446  20808871.6094   20808867.2344   21498355.72346
  16765558.31244                  23105706.6094   23105705.1564   35662239.87948
  27801022.74345  22579738.5314   22579738.6724   20493812.60247  15980787.27746
  20793506.1564   20793503.7304   20786799.85247  16209132.71046  21355816.9774
  21355814.2664   22455597.82848  17510561.47047  20761297.7814   20761295.3484
 11  8  2  2 21 30.0000000  0  6G02G04G25G12G10G05

  14554604.12547  11353725.84046  20806617.3204   20806612.7194   21547221.83646
  16803635.77444                  23115005.4534   23115004.1094   35557466.35247
  27719381.07845  22559800.7034   22559801.3634   20451142.84047  15947538.12446
  20785386.6884   20785384.0164   20806284.19147  16224315.30546  21359524.2584
  21359521.9304   22369942.06648  17443816.74647  20744997.8674   20744995.7814
 11  8  2  2 22  0.0000000  0  6G02G04G25G12G10G05

  14542943.81348  11344639.89546  20804398.3134   20804393.4344   21596088.96546
  16841714.06644                  23124304.3984   23124303.1214   35453115.22747
  27638068.53545  22539943.0784   22539943.9064   20409052.36348  15914740.35846
  20777377.2114   20777374.1414   20826309.92247  16239919.77546  21363335.0554
  21363332.7464   22284806.14148  17377477.09547  20728797.2034   20728794.7234
 11  8  2  2 22 30.0000000  0  6G02G04G25G12G10G05

  14531471.03147  11335700.06646  20802215.0554   20802210.8244   21644957.93046
  16879793.76544                  23133603.8914   23133603.4224   35349190.75447
  27557088.45245  22520167.1254   22520167.2704   20367543.22348  15882395.58847
  20769478.2344   20769475.4964   20846876.93447  16255946.00946  21367248.9144
  21367246.9024   22200193.55948  17311545.23947  20712695.7584   20712693.6604
 11  8  2  2 23  0.0000000  0  6G02G04G25G12G10G05

  14520182.44548  11326903.77846  20800067.0944   20800063.0824   21693825.01246
  16917872.00544                  23142902.8204   23142901.6954   35245692.79347
  27476440.71245  22500472.0394   22500472.2274   20326613.47348  15850502.30046
  20761689.4224   20761686.6804   20867980.93047  16272390.67546  21371264.8914
  21371262.9774   22116103.23448  17246020.33947  20696694.0004   20696691.9924
 11  8  2  2 23 30.0000000  0  6G02G04G25G12G10G05

  14509073.78948  11318247.69446  20797953.0864   20797948.5704   21742686.35246
  16955945.76844                  23152201.3984   23152199.5164   35142620.81347
  27396124.91345  22480857.8204   22480858.5594   20286260.53148  15819058.44746
  20754010.7664   20754007.7894   20889616.64847  16289249.66246  21375382.2584
  21375379.9184   22032533.89148  17180901.40947  20680791.3204   20680788.8324
 11  8  2  2 24  0.0000000  0  6G02G04G25G12G10G05

  14498147.44148  11309733.66546  20795873.7664   20795869.2424   21791544.43446
  16994017.02144                  23161498.6254   23161497.4454   35039980.56647
  27316145.51245  22461326.4144   22461326.8754   20246488.29348  15788067.10446
  20746442.4924   20746439.4924   20911785.36347  16306523.98246  21379600.5084
  21379598.4064   21949490.68048  17116192.43147  20664988.7274   20664986.3484
 11  8  2  2 24 30.0000000  0  6G02G04G25G12G10G05

  14487400.31348  11301359.28246  20793828.6484   20793824.1954   21840396.09846
  17032083.22444                  23170795.0234   23170793.3674   34937772.37547
  27236502.78645  22441877.1954   22441877.3914   20207295.35248  15757527.15646
  20738983.9144   20738981.5084   20934482.72747  16324210.24146  21383919.9774
  21383917.6684   21866973.01248  17051892.98647  20649285.8914   20649284.0354
 11  8  2  2 25  0.0000000  0  6G02G04G25G12G10G05

  14476829.60248  11293122.36246  20791817.1564   20791812.7154   21889238.89847
  17070142.53544                  23180089.0944   23180087.3874   34835996.79747
  27157197.14345  22422509.7114   22422510.0784   20168680.05148  15727437.32947
  20731635.7584   20731632.6684   20957704.86748  16342305.40746  21388339.0944
  21388336.4454   21784980.56648  16988002.78747  20633683.3914   20633681.3524
 11  8  2  2 25 30.0000000  0  6G02G04G25G12G10G05

  14466436.96548  11285024.21946  20789839.5474   20789835.1644   21938074.10947
  17108195.95144                  23189382.1024   23189380.1214   34734658.77347
  27078232.46845  22403225.7424   22403225.6134   20130645.37148  15697799.92147
  20724398.1564   20724395.3914   20981452.35947  16360809.94146  21392857.8134
  21392855.3714   21703517.64848  16924525.22447  20618181.5864   20618179.3324
 11  8  2  2 26  0.0000000  0  6G02G04G25G12G10G05

  14456220.73048  11277063.52946  20787895.4774   20787891.2424   21986900.50047
  17146242.46844                  23198673.6644   23198671.6604   34633760.16847
  26999610.19445  22384024.8134   22384025.1454   20093191.43448  15668615.03847
  20717270.8674   20717267.8284   21005722.72347  16379721.90545  21397476.2894
  21397474.3714   21622585.20348  16861461.01047  20602780.5784   20602778.2894
 11  8  2  2 26 30.0000000  0  6G02G04G25G12G10G05

  14446180.52048  11269239.99346  20785984.9304   20785980.7624   22035717.24247
  17184281.46644                  23207962.5394   23207961.5164   34533303.59847
  26921332.36045  22364908.8524   22364909.1214   20056318.43848  15639882.84447
  20710254.1564   20710251.3954   21030513.95347  16399039.73946  21402194.1724
  21402191.7154   21542184.85948  16798811.42247  20587480.5704   20587478.4304
 11  8  2  2 27  0.0000000  0  6G02G04G25G12G10G05

  14436314.33248  11261552.05546  20784107.3134   20784102.9494   22084522.25446
  17222311.30344                  23217250.5394   23217249.1374   34433290.24247
  26843399.88845  22345876.7814   22345876.9694   20020026.09048  15611603.10447
  20703348.1254   20703345.1454   21055822.75047  16418760.89046  21407010.2114
  21407007.9384   21462317.28548  16736576.97147  20572282.4224   20572279.8284
 11  8  2  2 27 30.0000000  0  6G02G04G25G12G10G05

  14426621.16048  11253998.95546  20782262.5704   20782258.3524   22133315.10946
  17260331.72344                  23226535.6414   23226533.5824   34333722.72747
  26765814.83245  22326930.2894   22326930.3634   19984314.74248  15583776.09146
  20696552.0784   20696549.1844   21081647.23847  16438883.87646  21411924.4844
  21411922.2074   21382983.97348  16674758.83547  20557185.4924   20557183.4494
 11  8  2  2 28  0.0000000  0  6G02G04G25G12G10G05

  14417099.24648  11246579.29046  20780450.6174   20780446.1684   22182094.08647
  17298341.27644                  23235817.4454   23235816.0204   34234602.35547
  26688578.19545  22308068.0234   22308068.0904   19949183.61348  15556401.18946
  20689867.0704   20689863.9304   21107984.18847  16459406.16546  21416936.0164
  21416933.6524   21304185.35548  16613357.34747  20542190.8594   20542188.8054
 11  8  2  2 28 30.0000000  0  6G02G04G25G12G10G05

  14407751.17248  11239295.07846  20778671.9534   20778667.5164   22230861.66447
  17336341.97544                  23245098.1564   23245096.3914   34135935.17247
  26611694.68345  22289292.2194   22289292.5474   19914636.64548  15529481.48646
  20683292.8984   20683289.8404   21134834.88747  16480328.78446  21422045.4534
  21422043.0594   21225926.89548  16552376.75647  20527298.9534   20527296.2664
 11  8  2  2 29  0.0000000  0  6G02G04G25G12G10G05

  14398571.89148  11232142.40746  20776925.1724   20776920.4884   22279612.89147
  17374329.93244                  23254375.1884   23254373.7344   34037719.26647
  26535162.85045  22270602.1954   22270602.8594   19880670.27048  15503014.17546
  20676829.1414   20676826.7234   21162193.15247  16501646.89946  21427251.7504
  21427249.5164   21148205.33648  16491814.52347  20512508.7194   20512506.2034
 11  8  2  2 29 30.0000000  0  6G02G04G25G12G10G05

  14389564.10548  11225123.36746  20775211.0784   20775206.7234   22328350.54747
  17412307.28544                  23263649.3284   23263647.9344   33939960.52348
  26458987.23445  22251998.9454   22251999.7384   19847287.74648  15477001.83946
  20670476.9384   20670473.8634   21190060.05947  16523361.38745  21432554.6094
  21432552.3714   21071026.19148  16431674.96047  20497821.9774   20497819.7774
 11  8  2  2 30  0.0000000  0  7G29G02G04G25G12G10G05
  48668729.46156  37934023.06253  24244802.2504                   24244799.7384

  14380724.44148  11218235.32446  20773528.9774   20773524.1844   22377071.28547
  17450271.48843                  23272920.3134   23272919.2304   33842658.60247
  26383167.56246  22233483.8364   22233483.6374   19814486.95348  15451442.78547
  20664235.0084   20664231.9494   21218430.61347  16545468.31646  21437953.1954
  21437951.3444   20994387.96548  16371956.88347  20483238.1484   20483235.6484
 11  8  2  2 30 30.0000000  0  7G29G02G04G25G12G10G05
  48553575.67246  37844292.78443  24222888.7584                   24222887.1644

  14372042.73848  11211470.36146  20771876.9384   20771872.4964   22425765.11347
  17488214.72544                  23282186.5084   23282185.3674   33745806.75847
  26307698.64146  22215053.1644   22215053.5904   19782259.03548  15426330.12147
  20658102.1724   20658099.5634   21247294.06347  16567959.31345  21443445.6094
  21443443.5984   20918283.19148  16312654.48947  20468755.8364   20468753.6524
 11  8  2  2 31  0.0000000  0  7G29G02G04G25G12G10G05
  48438348.33646  37754505.30643  24200962.2424                   24200960.9734

  14363516.27748  11204826.38046  20770254.3444   20770249.6564   22474429.38747
  17526134.89444                  23291447.3284   23291445.6414   33649405.32847
  26232580.67245  22196708.7734   22196708.9614   19750602.18848  15401662.45147
  20652078.1954   20652074.7774   21276645.98447  16590830.93645  21449031.3834
  21449029.3014   20842711.21148  16253767.26247  20454375.0394   20454372.7624
 11  8  2  2 31 30.0000000  0  7G29G02G04G25G12G10G05
  48323053.80146  37664665.39643  24179022.0314                   24179021.8754

  14355150.05548  11198307.25946  20768662.1254   20768657.6054   22523069.06647
  17564035.91244                  23300703.7894   23300701.9654   33553462.30947
  26157819.89745  22178451.1334   22178451.2304   19719522.45748  15377444.47946
  20646163.8134   20646161.0434   21306489.96547  16614086.00046  21454710.4534
  21454707.9264   20767678.69148  16195300.38547  20440097.0944   20440094.6374
 11  8  2  2 32  0.0000000  0  7G29G02G04G25G12G10G05
  48207689.92646  37574771.47444  24157069.4304                   24157068.8204

  14346939.88348  11191909.73846  20767099.9774   20767095.2974   22571680.20347
  17601914.68244                  23309953.4774   23309951.9574   33457976.82848
  26083415.66846  22160280.9384   22160281.1214   19689016.80948  15353673.84346
  20640358.8984   20640355.9024   21336820.28147  16637720.01445  21460482.2974
  21460479.7304   20693184.19548  16137252.75947  20425920.9534   20425918.7584
 11  8  2  2 32 30.0000000  0  7G29G02G04G25G12G10G05
  48092262.35247  37484827.94344  24135104.5394                   24135104.0124

  14338889.92248  11185637.04346  20765568.0554   20765563.4774   22620267.12147
  17639774.58344                  23319199.6804   23319197.6134   33362956.00847
  26009373.51846  22142198.7504   22142199.1954   19659089.78948  15330354.09446
  20634663.7664   20634661.0394   21367639.73447  16661735.17545  21466346.6254
  21466344.8094   20619233.62948  16079628.96547  20411848.7194   20411846.5084
 11  8  2  2 33  0.0000000  0  7G29G02G04G25G12G10G05
  47976777.02346  37394839.44844  24113127.5234                   24113127.4774

  14331003.96548  11179492.16146  20764067.2974   20764062.9734   22668833.65247
  17677618.60544                  23328441.5704   23328440.5204   33268406.89847
  25935698.91246  22124206.9454   22124206.9454   19629746.84048  15307489.44746
  20629080.4844   20629077.2274   21398951.01647  16686133.56845  21472305.0084
  21472303.1804   20545833.38748  16022433.99247  20397881.1094   20397878.8594
 11  8  2  2 33 30.0000000  0  7G29G02G04G25G12G10G05
  47861235.08646  37304806.81644  24091140.8834                   24091140.0984

  14323281.56348  11173474.70646  20762597.9614   20762593.2114   22717379.54347
  17715446.57244                  23337679.3754   23337678.2974   33174332.03948
  25862393.86346  22106304.9454   22106305.1524   19600988.14548  15285080.08846
  20623607.5864   20623604.8404   21430751.85247  16710913.45745  21478356.4064
  21478354.7384   20472985.09848  15965669.12547  20384018.6094   20384016.2154
 11  8  2  2 34  0.0000000  0  7G29G02G04G25G12G10G05
  47745633.61747  37214727.79944  24069142.6644                   24069142.0744

  14315718.34048  11167581.29946  20761158.6564   20761154.2154   22765900.44546
  17753255.03144                  23346912.4224   23346911.9224   33080730.08248
  25789457.30046  22088493.3754   22088493.2814   19572810.09848  15263123.16146
  20618245.3984   20618242.3714   21463036.20347  16736070.08645  21484500.3594
  21484498.1484   20400686.43848  15909332.53647  20370260.4844   20370258.1724
 11  8  2  2 34 30.0000000  0  7G29G02G04G25G12G10G05
  47629972.41846  37124602.29744  24047132.9064                   24047132.1764

  14308312.40248  11161810.43346  20759749.3444   20759744.9534   22814394.34046
  17791042.44644                  23356140.8524   23356139.5204   32987601.85948
  25716889.89346  22070771.4614   22070771.7664   19545211.34848  15241617.65046
  20612993.5944   20612990.6484   21495800.47347  16761600.71345  21490735.2504
  21490732.8594   20328936.92648  15853423.84547  20356607.1884   20356604.4304
 11  8  2  2 35  0.0000000  0  7G29G02G04G25G12G10G05
  49089682.12946  38262038.47544  24324905.9064                   24324905.4184
  15876489.01248  12383766.24646  21058163.6724                   21058158.7544
                                  24438285.32446  19056412.00844  23665156.9304
                                  23665155.1684   34470378.82047  26872300.53646
                  22352934.6254   22352934.7384   21093619.09448  16448169.14446
  20907645.4694   20907642.7234   23104467.68447  18015107.62445  21796854.1724
  21796851.7424   21833166.47348  17025550.78747  20642852.4454   20642849.8284
 11  8  2  2 35 30.0000000  0  7G29G02G04G25G12G10G05
  48973914.88346  38171830.31644  24302876.3054                   24302875.4694
  15869405.62548  12378246.73946  21056815.2424                   21056810.9344
                                  24486734.37947  19094164.48044  23674376.4454
                                  23674375.7814   34378215.61748  26800485.09046
                  22335396.2034   22335396.5084   21067190.14148  16427575.15647
  20902616.5314   20902613.7734   23138196.19947  18041389.60345  21803272.6484
  21803270.2734   21762530.30548  16970509.64647  20629410.8284   20629408.4414
 11  8  2  2 36  0.0000000  0  7G29G02G04G25G12G10G05
  48858092.15246  38081578.90344  24280835.8054                   24280835.2384
  15862478.26248  12372848.79546  21055496.9064                   21055492.5824
                                  24535155.97347  19131895.55444  23683590.5164
                                  23683589.9654   34286534.16448  26729045.02646
                  22317949.8674   22317949.7464   21041341.87948  16407433.65846
  20897697.8444   20897694.9804   23172399.29748  18068041.37645  21809781.2424
  21809778.3014   21692448.44148  16915900.42947  20616074.8204   20616072.2034
 11  8  2  2 36 30.0000000  0  7G29G02G04G25G12G10G05
  48742219.15646  37991288.32144  24258786.3204                   24258786.0744
  15855710.52048  12367575.23646  21054209.4144                   21054204.6954
                                  24583553.88747  19169608.17244  23692800.5634
                                  23692798.9964   34195340.94548  26657985.42746
                  22300596.1334   22300596.2544   21016078.53948  16387747.94446
  20892890.4384   20892887.6764   23207078.95347  18095064.48945  21816380.2814
  21816378.5434   21622926.57048  16861727.56947  20602844.7814   20602842.4344
 11  8  2  2 37  0.0000000  0  7G29G02G04G25G12G10G05
  48626294.24246  37900957.25344  24236726.0784                   24236726.0514
  15849099.05148  12362423.44546  21052951.2344                   21052946.6414
                                  24631924.73047  19207299.75244  23702005.2664
                                  23702003.6524   34104635.44548  26587305.83846
                  22283335.6644   22283335.6764   20991397.47348  16368515.94846
  20888193.4774   20888190.6644   23242229.72747  18122454.70745  21823069.5234
  21823066.7854   21553962.99248  16807989.74747  20589721.5234   20589718.8634
 11  8  2  2 37 30.0000000  0  7G29G02G04G25G12G10G05
  48510318.20346  37810586.39944  24214656.8444                   24214656.3914
  15842642.84848  12357392.63746  21051722.7734                   21051717.7934
                                  24680267.62547  19244969.51444  23711205.0474
                                  23711203.0864   34014419.64848  26517007.85746
                  22266168.1954   22266168.4494   20967298.32448  16349737.39646
  20883607.5704   20883604.6804   23277849.46947  18150210.35245  21829848.1884
  21829845.3754   21485558.35548  16754687.45447  20576704.8054   20576702.0044
 11  8  2  2 38  0.0000000  0  7G29G02G04G25G12G10G05
  48394291.00047  37720175.66644  24192577.3834                   24192577.2504
  15836340.24248  12352481.53246  21050523.5084                   21050518.4964
                                  24728581.30147  19282616.49443  23720398.2114
                                  23720396.4344   33924694.80148  26447092.42146
                  22249094.1174   22249094.0554   20943780.35248  16331411.70446
  20879132.6414   20879129.8874   23313934.67247  18178328.69845  21836714.7734
  21836712.0164   21417713.50047  16701821.36747  20563794.0084   20563791.6214
 11  8  2  2 38 30.0000000  0  7G29G02G04G25G12G10G05
  48278213.34047  37629725.56844  24170488.8984                   24170487.9654
  15830190.12548  12347689.22946  21049352.9064                   21049348.4844
                                  24776864.67647  19320239.89843  23729586.1414
                                  23729584.5864   33835462.53948  26377560.80646
                  22232114.1094   22232113.6644   20920842.66448  16313538.19146
  20874767.4844   20874764.8984   23350482.56647  18206807.58145  21843669.5004
  21843666.9304   21350428.68448  16649391.66647  20550990.2894   20550987.7274
 11  8  2  2 39  0.0000000  0  7G29G02G04G25G12G10G05
  48162089.10247  37539239.20144  24148391.2814                   24148390.0394
  15824194.73048  12343017.50346  21048212.3444                   21048207.5744
                                  24825119.98446  19357841.41043  23738768.6884
                                  23738767.3594   33746727.79348  26308416.89346
                  22215227.8134   22215228.1454   20898488.07848  16296119.04646
  20870513.3914   20870510.7584   23387493.61747  18235647.37845  21850712.2194
  21850710.1884   21283707.71548  16597401.33447  20538293.8444   20538291.2384
 11  8  2  2 39 30.0000000  0  7G29G02G04G25G12G10G05
  48045916.84846  37448715.42144  24126284.1644                   24126282.5594
  15818350.67648  12338463.70746  21047099.9694                   21047095.2894
                                  24873344.23847  19395418.74543  23747945.3674
                                  23747943.8594   33658490.29748  26239660.42546
                  22198436.9064   22198437.1724   20876713.75048  16279152.03747
  20866370.2894   20866367.0634   23424963.23447  18264844.46745  21857842.2894
  21857840.0554   21217549.34448  16545849.37847  20525704.1334   20525701.3324
 11  8  2  2 40  0.0000000  0  7G29G02G04G25G12G10G05
  47929696.44946  37358154.18444  24104168.1884                   24104167.0234
  15812656.16848  12334026.42546  21046016.9534                   21046011.9884
                                  24921535.59047  19432970.43343  23757116.0234
                                  23757114.6804   33570750.55948  26171291.84646
                  22181740.6644   22181740.8244   20855518.09048  16262635.94546
  20862336.6884   20862333.8524   23462887.28147  18294395.67545  21865059.3984
  21865057.3674   21151952.95347  16494735.33247  20513221.5164   20513218.9884
 11  8  2  2 40 30.0000000  0  7G29G02G04G25G12G10G05
  47813427.87546  37267555.31444  24082042.7664                   24082041.4454
  15807109.21147  12329704.12946  21044960.8524                   21044956.1564
                                  24969692.53947  19470495.30943  23766280.6564
                                  23766277.6484   33483510.02348  26103312.23146
                  22165139.1884   22165139.6334   20834900.32848  16246570.16246
  20858413.3364   20858410.1054   23501262.76647  18324298.64845  21872361.8054
  21872359.6564   21086918.91447  16444059.49047  20500845.9144   20500843.7074
 11  8  2  2 41  0.0000000  0  7G29G02G04G25G12G10G05
  47697114.50846  37176921.58244  24059908.8364                   24059907.5514
  15801711.57847  12325498.20246  21043933.5554                   21043928.8284
                                  25017816.75847  19507994.73343  23775438.3134
                                  23775436.6844   33396772.56348  26035724.63846
                  22148633.2274   22148633.7154   20814861.80948  16230955.75046
  20854599.9304   20854596.8054   23540089.16847  18354552.99245  21879750.3364
  21879748.0904   21022450.09447  16393824.06647  20488577.7974   20488575.4734
 11  8  2  2 41 30.0000000  0  7G29G02G04G25G12G10G05
  47580760.62146  37086256.23144  24037767.1024                   24037766.3404
  15796465.66047  12321410.48046  21042935.0234                   21042930.4804
                                  25065910.70347  19545470.50343  23784590.2894
                                  23784588.6804   33310543.44948  25968533.15646
                  22132224.6334   22132225.0704   20795405.48448  16215794.97946
  20850897.6644   20850894.7664   23579367.25047  18385159.28145  21887224.5164
  21887222.5744   20958550.75847  16344032.41547  20476418.2664   20476415.5044
 11  8  2  2 42  0.0000000  0  7G29G02G04G25G12G10G05
  47464364.21146  36995557.78743  24015617.8524                   24015616.7814
  15791367.80147  12317438.14246  21041965.6564                   21041960.5634
                                  25113971.14147  19582920.22743  23793735.5234
                                  23793734.2974   33224821.77748  25901737.08546
                  22115912.2034   22115912.3244   20776528.21148  16201085.43046
  20847305.1334   20847301.9804   23619091.43447  18416113.18445  21894783.9774
  21894781.3484   20895218.74248  16294682.81047  20464366.4304   20464364.1844
 11  8  2  2 42 30.0000000  0  7G29G02G04G25G12G10G05
  47347921.60246  36904823.38543  23993458.8674                   23993458.4494
  15786412.69548  12313577.01846  21041022.3054                   21041017.7974
                                  25161993.05147  19620339.88543  23802874.1484
                                  23802871.8014   33139605.03148  25835334.44946
                  22099696.2814   22099696.2624   20758225.05948  16186823.23146
  20843822.1724   20843819.1684   23659254.78947  18447409.29745  21902426.3674
  21902424.6804   20832450.46148  16245772.48647  20452422.1024   20452419.6564
 11  8  2  2 43  0.0000000  0  7G29G02G04G25G12G10G05
  47231433.64146  36814053.56643  23971292.2734                   23971291.0904
  15781599.13748  12309826.19446  21040106.3984                   21040101.8134
                                  25209975.45347  19657728.74043  23812004.8444
                                  23812003.5354   33054894.63348  25769326.38246
                  22083576.1804   22083576.2074   20740495.15648  16173007.73446
  20840447.9924   20840445.2584   23699854.25847  18479045.23945  21910152.4064
  21910150.4614   20770246.23448  16197301.68847  20440584.9774   20440582.4304
 11  8  2  2 43 30.0000000  0  7G29G02G04G25G12G10G05
  47114904.80146  36723251.86743  23949118.2584                   23949116.1884
  15776929.42648  12306187.47046  21039217.9694                   21039212.7704
                                  25257920.75447  19695088.72643  23821128.4064
                                  23821127.0084   32970695.49248  25703716.70146
                  22067553.6414   22067553.9774   20723340.96548  16159640.83746
  20837183.6954   20837181.0354   23740890.39547  18511021.47045  21917961.3524
  21917959.1294   20708609.74648  16149273.28647  20428855.8134   20428853.5784
 11  8  2  2 44  0.0000000  0  7G29G02G04G25G12G10G05
  46998334.50446  36632417.98043  23926934.8984                   23926934.3634
  15772401.66448  12302659.35846  21038356.3284                   21038351.1604
                                  25305826.93447  19732418.19443  23830244.6484
                                  23830243.1954   32887007.84848  25638505.58646
                  22051628.3204   22051628.5554   20706760.52048  16146721.00946
  20834028.9534   20834025.8164   23782359.25847  18543334.86645  21925852.9384
  21925850.4454   20647539.92248  16101686.44447  20417234.8134   20417232.3134
 11  8  2  2 44 30.0000000  0  7G29G02G04G25G12G10G05
  46881725.19546  36541553.61044  23904745.3524                   23904743.7234
  15768016.59048  12299242.42646  21037521.6724                   21037516.9844
                                  25353695.09447  19769718.03743  23839354.3984
                                  23839352.8444   32803835.46948  25573695.97846
                  22035801.2504   22035801.2894   20690755.57448  16134249.62146
  20830983.4534   20830980.4064   23824259.84847  18575984.67645  21933826.0864
  21933823.6804   20587039.91448  16054543.59947  20405721.9844   20405719.1564
 11  8  2  2 45  0.0000000  0  7G29G02G04G25G12G10G05
  46765078.89547  36450660.48244  23882547.5084                   23882546.4844
  15763774.07048  12295936.57446  21036714.0394                   21036709.4494
                                  25401525.73446  19806988.65243  23848455.9844
                                  23848454.0864   32721180.85548  25509289.82046
                  22020072.6954   22020072.6764   20675325.33648  16122226.06946
  20828046.9454   20828044.3484   23866590.41447  18608969.54545  21941881.6724
  21941879.0554   20527110.91848  16007845.71047  20394317.9224   20394315.1914
 11  8  2  2 45 30.0000000  0  7G29G02G04G25G12G10G05
  46648398.02047  36359740.36244  23860344.6254                   23860343.5234
  15759674.87548  12292742.40046  21035934.2814                   21035929.7624
                                  25449319.66047  19844230.61843  23857550.7194
                                  23857549.5984   32639047.01248  25445289.46946
                  22004443.0474   22004442.8524   20660471.32048  16110651.50747
  20825220.3284   20825217.2034   23909349.70747  18642288.47745  21950018.3594
  21950015.3634   20467754.83248  15961594.24447  20383022.8284   20383020.3364
 11  8  2  2 46  0.0000000  0  7G29G02G04G25G12G10G05
  46531685.57447  36268795.65344  23838135.0164                   23838133.8054
  15755720.12948  12289660.78246  21035181.7584                   21035176.9804
                                  25497078.05146  19881444.91743  23866638.1884
                                  23866637.9454   32557437.74648  25381697.86746
                  21988913.4224   21988913.3444   20646194.68048  16099526.85146
  20822503.6644   20822500.6374   23952537.14547  18675941.02145  21958236.2894
  21958233.8364   20408974.26248  15915791.22647  20371837.1174   20371834.6524
 11  8  2  2 46 30.0000000  0  7G29G02G04G25G12G10G05
  46414937.93447  36177823.51344  23815918.1334                   23815918.2274
  15751904.39148  12286687.48446  21034455.7034                   21034450.7344
                                  25544795.43846  19918627.25643  23875719.5234
                                  23875717.4024   32476349.84048  25318512.53146
                  21973482.6174   21973482.5944   20632489.36348  16088847.39746
  20819895.6414   20819892.6954   23996145.03947  18709921.20545  21966534.5554
  21966532.8674   20350764.74648  15870433.19747  20360760.0704   20360757.7034
 11  8  2  2 47  0.0000000  0  7G29G02G04G25G12G10G05
  46298158.19147  36086826.36944  23793695.8204                   23793694.8404
  15748229.16048  12283823.67946  21033756.2274                   21033751.4064
                                  25592473.72746  19955779.16543  23884791.8754
                                  23884790.6524   32395787.32448  25255736.57746
                  21958152.1094   21958152.3284   20619357.48048  16078614.75746
  20817396.7584   20817393.4344   24040172.76247  18744228.52745  21974913.3834
  21974911.0984   20293129.01648  15825522.25547  20349792.5164   20349789.8954
 11  8  2  2 47 30.0000000  0  7G29G02G04G25G12G10G05
  46181345.03547  35995803.17344  23771467.5784                   23771465.8524
  15744691.19948  12281066.83446  21033082.9614                   21033078.2704
                                  25640109.98446  19992898.32143  23893856.8594
                                  23893855.6684   32315749.30548  25193369.32846
                  21942921.3364   21942921.4144   20606795.50048  16068826.19646
  20815006.2424   20815003.1214   24084615.10947  18778858.93745  21983370.3444
  21983367.6094   20236065.35948  15781057.09347  20338933.7584   20338931.2384
 11  8  2  2 48  0.0000000  0  7G29G02G04G25G12G10G05
  46064497.43847  35904753.17644  23749232.0784                   23749230.8324
  15741287.36748  12278414.50646  21032435.1954                   21032430.6054
                                  25687701.24646  20029982.37543  23902913.2194
                                  23902911.6094   32236235.24248  25131410.35146
                  21927790.5554   21927790.5744   20594800.48048  16059479.41846
  20812723.9774   20812720.7504   24129467.61747  18813808.94145  21991905.3594
  21991902.6954   20179571.70348  15737036.08647  20328183.1174   20328180.9384
 11  8  2  2 48 30.0000000  0  7G29G02G04G25G12G10G05
  45947621.02347  35813680.68845  23726990.7114                   23726990.0554
  15738021.66448  12275869.82046  21031813.6174                   21031809.1884
                                  25735251.78546  20067034.65343  23911961.2664
                                  23911960.1214   32157251.44148  25069864.57246
                  21912759.8204   21912760.7584   20583376.35548  16050577.50846
  20810549.8674   20810546.8754   24174732.03947  18849079.93845  22000518.9694
  22000516.0904   20123652.97348  15693463.07647  20317542.0704   20317539.8284
 11  8  2  2 49  0.0000000  0  7G29G02G04G25G12G10G05
  45830718.66847  35722588.00645  23704744.8444                   23704743.7704
  15734894.80547  12273433.31846  21031218.5704                   21031214.1524
                                  25782762.72346  20104056.13144  23921002.4224
                                  23921001.5984   32078801.02348  25008734.41546
                  21897831.3674   21897831.4304   20572523.80948  16042120.97346
  20808484.4924   20808481.6764   24220407.18447  18884670.96945  22009210.8054
  22009207.6414   20068311.92248  15650340.20447  20307011.1414   20307008.6334
 11  8  2  2 49 30.0000000  0  7G29G02G04G25G12G10G05
  45713782.62547  35631469.09144  23682492.2734                   23682491.3324
  15731897.61748  12271097.85146  21030648.1254                   21030643.8954
                                  25830225.05146  20141039.73743  23930034.2034
                                  23930033.4024   32000877.02348  24948014.46346
                  21883003.1334   21883002.9804   20562233.36348  16034102.44346
  20806526.1724   20806523.2114   24266481.62547  18920573.15245  22017977.9844
  22017975.5004   20013539.85948  15607660.68947  20296588.4304   20296585.8364
 11  8  2  2 50  0.0000000  0  7G29G02G04G25G12G10G05
  45596822.63347  35540331.50344  23660236.4144                   23660235.2274
  15729038.27348  12268869.79346  21030104.2814                   21030099.8524
                                  25877646.82046  20177991.70843  23939058.2114
                                  23939058.1484   31923489.77748  24887712.73946
                  21868276.9774   21868276.8094   20552513.10248  16026528.20946
  20804676.6414   20804674.0784   24312961.73047  18956791.41845  22026822.7194
  22026820.1134   19959346.28148  15565431.95247  20286275.3594   20286273.2974
 11  8  2  2 50 30.0000000  0  7G29G02G04G25G12G10G05
  45479840.98847  35449177.02944  23637974.8594                   23637974.3364
  15726316.37547  12266748.84746  21029586.3364                   21029581.3554
                                  25925028.26646  20214912.37543  23948075.0084
                                  23948074.3404   31846641.39548  24827830.89346
                  21853652.8754   21853653.1644   20543362.62548  16019397.96046
  20802935.3204   20802932.5634   24359845.37147  18993324.12545  22035744.6954
  22035742.3914   19905731.75048  15523654.41547  20276073.3754   20276070.7734
 11  8  2  2 51  0.0000000  0  7G29G02G04G25G12G10G05
  45362832.34847  35358001.54344  23615708.6024                   23615707.5704
  15723725.15248  12264729.72946  21029093.1954                   21029088.6174
                                  25972362.68047  20251796.18943  23957082.9304
                                  23957081.5864   31770326.99248  24768365.17046
                  21839130.5784   21839130.7304   20534774.52748  16012705.93246
  20801301.1564   20801297.9924   24407123.27047  19030164.03745  22044740.9774
  22044739.0234   19852690.27348  15482323.41747  20265979.7194   20265977.5394
 11  8  2  2 51 30.0000000  0  7G29G02G04G25G12G10G05
  45245801.65247  35266808.85844  23593439.3134                   23593437.6724
  15721267.88748  12262814.97846  21028625.6094                   21028621.2304
                                  26019653.40646  20288646.16043  23966081.7114
                                  23966080.7624   31694552.24648  24709319.92946
                  21824711.4844   21824710.8914   20526752.20348  16006454.76146
  20799774.6724   20799771.5824   24454796.69947  19067312.16545  22053813.9064
  22053811.3914   19800226.19948  15441442.33347  20255995.8444   20255993.4104
 11  8  2  2 52  0.0000000  0  7G29G02G04G25G12G10G05
  45128745.44147  35175596.30844  23571163.9614                   23571162.1564
  15718939.20748  12261000.44046  21028182.6094                   21028178.0274
                                  26066895.49247  20325458.12643  23975072.0944
                                  23975071.0514   31619313.78148  24650692.57546
                  21810393.9144   21810393.7114   20519289.87148  16000639.95646
  20798354.4924   20798351.8404   24502858.10947  19104762.63045  22062959.0704
  22062956.5704   19748334.93048  15401007.59147  20246121.4224   20246118.9494
 11  8  2  2 52 30.0000000  0  7G29G02G04G25G12G10G05
  45011666.20347  35084365.85344  23548883.9614                   23548883.0704
  15716739.33648  12259286.27146  21027764.0394                   21027759.2934
                                  26114089.53946  20362232.66043  23984052.8524
                                  23984050.5474   31544614.37948  24592485.28546
                  21796179.0234   21796178.7854   20512387.84848  15995261.74946
  20797040.9064   20797038.2464   24551305.85947  19142514.12545  22072178.3054
  22072175.7704   19697018.30148  15361020.63647  20236356.1484   20236353.6054
 11  8  2  2 53  0.0000000  0  7G29G02G04G25G12G10G05
  44894567.90647  34993120.48744  23526600.6024                   23526600.1134
  15714670.85948  12257674.49546  21027370.0234                   21027365.4494
                                  26161238.27747  20398971.92443  23993024.6254
                                  23993023.3634   31470458.38748  24534701.41046
                  21782067.7664   21782067.5394   20506047.41048  15990321.14246
  20795834.6334   20795831.5394   24600140.23447  19180566.87145  22081470.9924
  22081469.0474   19646279.32848  15321483.78647  20226700.9304   20226698.0474
 11  8  2  2 53 30.0000000  0  7G29G02G04G25G12G10G05
  44777448.53147  34901858.70644  23504313.9454                   23504312.5084
  15712729.78548  12256161.97846  21027000.9224                   21026996.4574
                                  26208337.89146  20435672.89443  24001987.3754
                                  24001986.0354   31396843.93848  24477339.52246
                  21768059.1254   21768059.0554   20500264.69948  15985815.13746
  20794734.0864   20794731.2234   24649355.53547  19218916.44045  22090836.4064
  22090834.1994   19596114.94148  15282394.66747  20217154.9924   20217152.5944
 11  8  2  2 54  0.0000000  0  7G29G02G04G25G12G10G05
  44660313.19947  34810584.47344  23482024.4144                   23482022.4804
  15710918.98848  12254750.98346  21026656.0084                   21026652.0204
                                  26255391.40647  20472337.99443  24010941.4534
                                  24010938.7154   31323776.10948  24420403.58346
                  21754155.0474   21754155.0474   20495042.35548  15981745.77246
  20793740.3284   20793737.4694   24698952.31347  19257563.28145  22100274.4454
  22100271.8404   19546528.89848  15243756.21547  20207718.8524   20207716.3874
 11  8  2  2 54 30.0000000  0  7G29G02G04G25G12G10G05
  44543159.96947  34719296.30544  23459729.9304                   23459728.8524
  15709234.83248  12253438.67346  21026335.8134                   21026331.1644
                                  26302395.78146  20508964.74743  24019885.5634
                                  24019885.1334   31251253.31348  24363892.32746
                  21740354.2894   21740354.5084   20490376.28548  15978109.87946
  20792852.3524   20792849.4064   24748925.30147  19296503.27345  22109784.1644
  22109782.1994   19497518.21948  15205566.10247  20198392.2274   20198389.9534
 11  8  2  2 55  0.0000000  0  7G29G02G04G25G12G10G05
  44425989.68047  34627994.90044  23437433.0704                   23437431.7074
  15707676.49248  12252224.39546  21026039.2034                   21026034.6414
                                  26349350.26646  20545552.65243  24028820.7664
                                  24028819.8874   31179276.54748  24307806.56746
                  21726657.5234   21726657.2544   20486265.05548  15974906.32446
  20792069.8914   20792067.0944   24799271.28947  19335733.91445  22119364.5234
  22119362.4964   19449082.96148  15167824.36647  20189175.3204   20189173.0354
 11  8  2  2 55 30.0000000  0  7G29G02G04G25G12G10G05
  44308800.60247  34536678.79344  23415133.0314                   23415131.5434
  15706240.28148  12251105.29746  21025765.6414                   21025761.2464
                                  26396251.25846  20582098.88643  24037746.0554
                                  24037744.3714   31107843.99248  24252144.84946
                  21713064.3834   21713064.1604   20482704.52048  15972131.89546
  20791392.5704   20791389.3984   24849983.85247  19375250.19945  22129014.5474
  22129012.4344   19401219.96548  15130528.55147  20180067.6334   20180065.1134
 11  8  2  2 56  0.0000000  0  7G29G02G04G25G12G10G05
  44191597.05547  34445351.43544  23392829.9694                   23392828.1054
  15704928.48848  12250083.13346  21025516.1094                   21025511.8914
                                  26443101.54346  20618605.59643  24046661.3914
                                  24046660.3674   31036960.12148  24196910.68646
                  21699575.6254   21699575.1684   20479696.44547  15969787.93446
  20790820.0554   20790817.2664   24901063.55947  19415052.55245  22138735.4614
  22138732.5824   19353932.46548  15093681.16947  20171069.0634   20171066.4774
 11  8  2  2 56 30.0000000  0  7G29G02G04G25G12G10G05
  44074385.07847  34354017.47544  23370524.5314                   23370523.5314
  15703745.16048  12249161.07346  21025290.8444                   21025286.7934
                                  26489905.24246  20655075.95943  24055568.3914
                                  24055566.7974   30966630.81648  24142108.63946
                  21686192.5704   21686192.1094   20477244.21948  15967877.12046
  20790353.1804   20790350.6644   24952512.35947  19455142.52545  22148525.6564
  22148523.0044   19307225.29748  15057285.99247  20162181.1484   20162178.4304
 11  8  2  2 57  0.0000000  0  7G29G02G04G25G12G10G05
  43957167.11347  34262678.85144  23348219.1724                   23348217.4804
  15702690.83648  12248339.53246  21025090.5314                   21025085.8984
                                  26536663.37146  20691510.73343  24064464.9924
                                  24064465.0864   30896858.62948  24087740.71246
                  21672915.0004   21672914.8984   20475348.03148  15966399.56046
  20789992.4384   20789989.5864   25004328.64847  19495518.86345  22158385.8134
  22158383.1414   19261099.53148  15021343.86247  20153403.4924   20153401.1214
 11  8  2  2 57 30.0000000  0  7G29G02G04G25G12G10G05
  43839937.92647  34171331.50644  23325910.8754                   23325910.0204
  15701758.54748  12247613.09646  21024913.0634                   21024908.1134
                                  26583369.27346  20727904.91643  24073353.1484
                                  24073353.2274   30827638.36748  24033802.86546
                  21659742.8834   21659742.5744   20474000.20748  15965349.30346
  20789736.0944   20789733.2274   25056503.04747  19536174.22245  22168314.4224
  22168311.5824   19215548.74648  14985849.76947  20144735.2424   20144733.1994
 11  8  2  2 58  0.0000000  0  7G29G02G04G25G12G10G05
  45298122.46547  35307579.26145  23603394.6724                   23603392.7624
  17276367.64548  13474581.23846  21324550.9774                   21324546.6524
                                  28205440.63746  21991856.64243  24382023.3754
                                  24382021.9184   32334393.43848  25207897.74246
                  21946468.8444   21946468.3244   22048619.57048  17192325.43046
  21089376.3444   21089373.1524   26684451.22747  20804705.27145  22478102.6724
  22478099.8364   20745994.45348  16178404.89347  20435969.5394   20435967.1134
 11  8  2  2 58 30.0000000  0  7G29G02G04G25G12G10G05
  45180874.62547  35216217.34745  23581083.1254                   23581081.5004
  17275677.71948  13474043.64546  21324420.1174                   21324415.1604
                                  28252040.68046  22028168.30043  24390890.7894
                                  24390890.4264   32266280.71548  25154822.91146
                  21933507.3914   21933507.2074   22048364.57448  17192126.74546
  21089327.6484   21089324.7624   26737333.96947  20845912.59145  22488165.9924
  22488162.9774   20701593.44148  16143806.72947  20427520.4224   20427517.6844
 11  8  2  2 59  0.0000000  0  7G29G02G04G25G12G10G05
  45063619.43447  35124849.70545  23558770.7584                   23558768.8594
  17275108.07448  13473599.78246  21324311.4844                   21324306.7934
                                  28298587.41446  22064438.33643  24399749.2114
                                  24399747.7704   32198723.46148  25102180.91546
                  21920651.6024   21920651.5164   22048653.97748  17192352.25946
  21089382.6174   21089379.6024   26790566.56647  20887392.52145  22498295.7194
  22498293.0434   20657767.25848  16109656.47447  20419180.2504   20419177.9734
 11  8  2  2 59 30.0000000  0  7G29G02G04G25G12G10G05
  44946361.96547  35033480.31044  23536456.4774                   23536454.7934
  17274661.67648  13473251.95646  21324226.3524                   21324222.0864
                                  28345084.23446  22100669.63043  24408595.8134
                                  24408596.3284   32131726.56648  25049975.56546
                  21907902.2894   21907902.1954   22049490.23048  17193003.88746
  21089541.8674   21089538.6954   26844149.75847  20929145.67645  22508492.2344
  22508489.5904   20614519.49248  16075956.93947  20410950.7734   20410947.9104
 11  8  2  3  0  0.0000000  0  7G29G02G04G25G12G10G05
  44829100.33647  34942107.64644  23514142.4384                   23514140.5744
  17274334.99648  13472997.41746  21324164.2584                   21324159.9184
                                  28391527.45346  22136859.08243  24417435.8674
                                  24417434.2344   32065287.95748  24998205.24246
                  21895259.7274   21895259.5164   22050868.77348  17194078.06846
  21089804.2424   21089801.3284   26898077.62147  20971167.39045  22518754.1094
  22518751.4304   20571846.74648  16042705.46947  20402830.3914   20402827.6374
 11  8  2  3  0 30.0000000  0  7G29G02G04G25G12G10G05
  44711840.59047  34850736.44344  23491828.4614                   23491826.9224
  17274131.94948  13472839.19846  21324125.4844                   21324121.0204
                                  28437921.38746  22173010.22144  24426263.4304
                                  24426262.6414   31999413.33248  24946874.38046
                  21882723.8984   21882723.8834   22052792.97748  17195577.45546
  21090170.3444   21090167.7544   26952351.96147  21013459.06745  22529082.3364
  22529080.0944   20529753.50048  16009905.56147  20394820.2274   20394817.9384
 11  8  2  3  1  0.0000000  0  7G29G02G04G25G12G10G05
  44594574.10546  34759360.03144  23469513.0784                   23469511.9414
  17274042.10248  13472769.19246  21324108.6334                   21324104.2704
                                  28484255.92247  22209114.96743  24435080.7584
                                  24435078.9844   31934093.86348  24895976.11446
                  21870294.4534   21870294.1724   22055251.51248  17197493.19446
  21090638.0944   21090635.2584   27006960.21947  21056010.95345  22539473.7734
  22539471.7424   20488229.76248  15977549.42847  20386918.4774   20386915.8014
 11  8  2  3  1 30.0000000  0  7G29G02G04G25G12G10G05
  44477310.82446  34667986.10244  23447198.7734                   23447197.8914
  17274073.03948  13472793.31246  21324114.4304                   21324109.4614
                                  28530539.22347  22245179.87844  24443888.2274
                                  24443886.1374   31869339.02348  24845517.82346
                  21857971.9454   21857971.5824   22058251.06648  17199830.50746
  21091209.4144   21091205.8834   27061907.79347  21098827.22144  22549929.9534
  22549927.5474   20447283.46948  15945643.24147  20379126.4614   20379123.9654
 11  8  2  3  2  0.0000000  0  6G29G02G25G12G10G05
  44360051.02347  34576614.89844  23424884.8524                   23424883.6844
  17274223.67248  13472910.68646  21324143.2034                   21324138.2274
                                                  31805148.92648  24795499.58446
                  21845756.6484   21845756.8444   22061789.16448  17202587.46246
  21091882.4304   21091879.5474   27117191.01247  21141905.04645  22560450.2194
  22560447.9104   20406913.89548  15914186.45547  20371444.5394   20371441.9924
 11  8  2  3  2 30.0000000  0  6G29G02G25G12G10G05
  44242797.25847  34485248.37745  23402572.4454                   23402570.8674
  17274494.32048  13473121.59046  21324194.5474                   21324189.9414
                                                  31741525.73048  24745923.07946
                  21833649.5164   21833649.1524   22065865.98448  17205764.20646
  21092658.0474   21092655.1914   27172808.00847  21185242.94645  22571033.5784
  22571031.2464   20367121.74248  15883179.59747  20363872.5084   20363869.7424
 11  8  2  3  3  0.0000000  0  6G29G02G25G12G10G05
  44125554.37147  34393890.34145  23380261.5864                   23380260.2734
  17274887.93448  13473428.31146  21324269.1334                   21324264.6134
                                                  31678473.85248  24696791.76946
                  21821651.3594   21821651.2704   22070483.21948  17209362.05446
  21093536.8834   21093533.5634   27228759.93447  21228841.85144  22581681.1484
  22581678.1884   20327909.92248  15852624.95447  20356410.6254   20356407.5354
 11  8  2  3  3 30.0000000  0  6G29G02G25G12G10G05
  44008326.78147  34302544.25445  23357953.7734                   23357952.4964
  17275407.01248  13473832.79446  21324368.4224                   21324363.4804
                                                  31615997.23048  24648108.70546
                  21809762.6804   21809762.4884   22075642.34048  17213382.13846
  21094518.2504   21094515.5554   27285046.33647  21272701.35344  22592391.8914
  22592389.3754   20289281.16848  15822524.65647  20349059.9614   20349056.9494
 11  8  2  3  4  0.0000000  0  6G29G02G25G12G10G05
  43891115.51647  34211210.90445  23335649.4694                   23335648.0704
  17276051.00848  13474334.61046  21324490.8834                   21324485.7664
                                                  31554096.63348  24599874.49046
                  21797983.5944   21797982.8714   22081341.87948  17217823.33846
  21095602.7424   21095600.1644   27341664.33247  21316819.26044  22603166.3754
  22603163.9694   20251235.30948  15792878.54747  20341819.7274   20341817.0634
 11  8  2  3  4 30.0000000  0  6G29G02G25G12G10G05
  43773920.24647  34119890.01545  23313347.8364                   23313346.0744
  17276817.11748  13474931.58146  21324636.6024                   21324631.9224
                                                  31492770.81648  24552088.15346
                  21786313.2274   21786313.2814   22087577.93848  17222682.60046
  21096789.8834   21096786.8324   27398609.14147  21361191.81645  22614002.5314
  22613999.8364   20213769.44148  15763684.38547  20334690.4144   20334687.9104
 11  8  2  3  5  0.0000000  0  6G29G02G25G12G10G05
  43656735.61747  34028577.37345  23291048.0394                   23291046.7814
  17277698.22747  13475618.15646  21324804.0784                   21324799.6334
                                                  31432014.12148  24504745.29946
                  21774751.5704   21774751.4064   22094342.32448  17227953.54246
  21098076.8054   21098074.3404   27455871.29346  21405811.65244  22624898.7034
  22624896.5084   20176876.90648  15734936.97347  20327669.9924   20327667.2424
 11  8  2  3  5 30.0000000  0  6G29G02G25G12G10G05
  43539565.71147  33937276.26445  23268751.4064                   23268750.1804
  17278696.55948  13476396.07346  21324994.1414                   21324989.6094
                                                  31371830.04348  24457848.62946
                  21763298.9614   21763298.8674   22101636.03148  17233636.93646
  21099464.8754   21099461.7734   27513450.75447  21450678.75044  22635856.2344
  22635853.3554   20140559.96948  15706638.09047  20320759.0864   20320756.4224
 11  8  2  3  6  0.0000000  0  6G29G02G25G12G10G05
  43422409.54747  33845985.84244  23246457.5634                   23246455.3634
  17279809.03548  13477262.95946  21325205.6024                   21325200.9964
                                                  31312216.80948  24411396.78246
                  21751954.7194   21751954.4924   22109454.77748  17239729.46646
  21100952.8754   21100950.1764   27571341.84447  21495788.69344  22646872.4064
  22646869.7664   20104815.43048  15678785.21547  20313957.2034   20313954.1484
 11  8  2  3  6 30.0000000  0  6G29G02G25G12G10G05
  43305266.91047  33754705.94345  23224165.6254                   23224164.0204
  17281033.59448  13478217.16846  21325438.8204                   21325433.8284
                                                  31253173.77048  24365389.22446
                  21740719.6564   21740719.3484   22117795.43048  17246228.66246
  21102540.0474   21102537.5664   27629540.32047  21541138.12445  22657947.2344
  22657944.3794   20069641.23048  15651376.77047  20307263.7894   20307260.9414
 11  8  2  3  7  0.0000000  0  6G29G02G25G12G10G05
  43188137.53947  33663436.38544  23201876.7274                   23201874.6484
  17282367.66448  13479256.70646  21325692.8134                   21325688.4064
                                                  31194699.83248  24319825.13246
                  21729592.1954   21729591.8284   22126654.65248  17253131.94946
  21104225.6094   21104222.9964   27688041.43847  21586723.41044  22669079.5004
  22669077.4654   20035035.21148  15624411.07147  20300678.4384   20300675.1054
 11  8  2  3  7 30.0000000  0  6G29G02G25G12G10G05
  43071023.69547  33572178.91744  23179590.7344                   23179588.6684
  17283812.01647  13480382.19046  21325967.4844                   21325962.7584
                                                  31136796.62148  24274705.75846
                  21718573.6334   21718573.7154   22136031.60248  17260438.65246
  21106010.0394   21106007.0634   27746843.38347  21632543.09544  22680269.5164
  22680266.9844   20000997.60248  15597888.28247  20294201.0704   20294198.2894
 11  8  2  3  8  0.0000000  0  6G29G02G25G12G10G05
  42953922.37146  33480931.22945  23157307.5314                   23157305.2384
  17285361.75048  13481589.77746  21326262.5634                   21326257.8954
                                                  31079460.47348  24230028.24146
                  21707662.6644   21707662.4104   22145920.38748  17268144.18046
  21107892.2034   21107888.9884   27805938.89847  21678591.54044  22691514.1024
  22691512.0904   19967523.82848  15571804.83947  20287831.1414   20287828.3794
 11  8  2  3  8 30.0000000  0  6G29G02G25G12G10G05
  42836843.17247  33389700.75645  23135027.3054                   23135025.5474
  17287024.30147  13482885.27346  21326578.8834                   21326574.2274
                                                  31022700.00448  24185799.32646
                  21696861.5864   21696861.2734   22156326.90648  17276253.16046
  21109872.3754   21109869.5514   27865332.82847  21724872.47944  22702817.2274
  22702814.5704   19934620.92648  15546166.23447  20281570.0784   20281566.8054
 11  8  2  3  9  0.0000000  0  6G29G02G25G12G10G05
  42719784.09047  33298485.96445  23112751.4224                   23112749.8954
  17288795.82448  13484265.69446  21326915.9454                   21326910.9344
                                                  30966512.60548  24142016.95446
                  21686169.7344   21686169.2194   22167245.84848  17284761.41646
  21111949.8594   21111947.2664   27925018.93047  21771381.12644  22714175.2274
  22714172.5864   19902285.10248  15520969.51647  20275416.6094   20275414.0354
 11  8  2  3  9 30.0000000  0  6G29G02G25G12G10G05
  42602748.86347  33207289.77445  23090480.5944                   23090479.1914
  17290677.53948  13485731.97246  21327274.1564                   21327269.2934
                                                  30910900.81648  24098683.10946
                  21675587.1254   21675586.8984   22178677.80148  17293669.42146
  21114125.6644   21114122.6374   27984996.44547  21818116.82344  22725588.3834
  22725586.3404   19870517.43048  15496215.49847  20269371.6094   20269368.6054
 11  8  2  3 10  0.0000000  0  6G29G02G25G12G10G05
  42485734.45747  33116109.77745  23068213.4454                   23068211.3204
  17292664.98048  13487280.62446  21327652.0554                   21327647.2584
                                                  30855860.95348  24055794.91446
                  21665113.5704   21665112.9024   22190616.26648  17302972.10846
  21116397.4454   21116394.6914   28045258.46946  21865074.22444  22737055.4224
  22737053.4774   19839313.09848  15471900.46247  20263433.2034   20263430.7544
 11  8  2  3 10 30.0000000  0  7G29G02G26G25G12G10G05
  42368744.97347  33024949.21345  23045950.8054                   23045949.4964
  17294760.28548  13488913.32446  21328050.5314                   21328045.8634
  51927678.25056  40474830.98753  24443068.2424                   24443067.1254
                                                  30801396.10948  24013354.79446
                  21654748.9304   21654748.6094   22203062.12948  17312670.17646
  21118765.7344   21118763.0554   28105804.70746  21912253.10644  22748577.0704
  22748575.0004   19808674.02348  15448025.87747  20257603.0234   20257599.9534
 11  8  2  3 11  0.0000000  0  7G29G02G26G25G12G10G05
  42251783.68847  32933810.61945  23023694.2344                   23023692.2734
  17296964.65647  13490631.02346  21328470.4064                   21328465.6294
  51797711.75446  40373558.44943  24418337.0234                   24418334.6294
                                                  30747508.82848  23971364.72546
                  21644494.5004   21644494.5664   22216015.47348  17322763.69346
  21121230.8984   21121227.6644   28166633.86746  21959652.42244  22760152.1954
  22760150.9734   19778601.48848  15424592.74147  20251880.6724   20251877.5434
 11  8  2  3 11 30.0000000  0  7G29G02G26G25G12G10G05
  42134843.99247  32842688.85045  23001441.1564                   23001439.4574
  17299269.49247  13492426.99746  21328909.3054                   21328904.6644
  51667670.83646  40272227.95543  24393590.3054                   24393588.7424
                                                  30694191.23448  23929818.56146
                  21634348.4304   21634348.2544   22229465.87148  17333244.52346
  21123790.4454   21123787.3324   28227734.89546  22007263.56044  22771780.0474
  22771777.6454   19749086.27048  15401593.89347  20246263.9384   20246261.3014
 11  8  2  3 12  0.0000000  0  7G29G02G26G25G12G10G05
  42017923.31347  32751581.90245  22979191.7034                   22979190.3014
  17301669.85947  13494297.44046  21329365.8594                   21329361.1524
  51537554.29346  40170838.47843  24368829.6644                   24368828.5554
                                                  30641439.57448  23888713.38146
                  21624310.2974   21624309.7854   22243407.48848  17344108.11146
  21126443.3834   21126440.4614   28289100.67646  22055080.99444  22783457.9614
  22783455.3284   19720123.41448  15379025.45747  20240752.1564   20240749.4224
 11  8  2  3 12 30.0000000  0  7G29G02G26G25G12G10G05
  41901028.63347  32660495.18245  22956947.2034                   22956945.2854
  17304171.09447  13496246.45046  21329842.1954                   21329837.4144
  51407370.92246  40069396.97143  24344056.5784                   24344055.4024
                                                  30589260.00448  23848054.00146
                  21614380.8204   21614380.2384   22257843.94148  17355357.27946
  21129190.4534   21129187.7734   28350734.05546  22103107.01144  22795186.0474
  22795183.6214   19691717.93048  15356891.33347  20235347.0554   20235344.2194
 11  8  2  3 13  0.0000000  0  7G29G02G26G25G12G10G05
  41784161.96146  32569430.30545  22934708.6334                   22934706.6604
  17306773.03548  13498273.93946  21330337.1024                   21330332.2704
  51277124.15646  39967906.06043  24319271.8054                   24319270.5944
                                                  30537653.22348  23807840.94346
                  21604560.2974   21604559.7114   22272773.38748  17366990.60446
  21132031.5944   21132028.6054   28412632.23847  22151339.36544  22806964.8594
  22806962.6844   19663869.19948  15335191.03147  20230047.5554   20230044.8874
 11  8  2  3 13 30.0000000  0  7G29G02G26G25G12G10G05
  41667327.72746  32478390.72545  22912475.6564                   22912473.5044
  17309478.28148  13500381.93246  21330852.0634                   21330847.0354
  51146819.96946  39866370.37843  24294475.7194                   24294474.2194
                                                  30486622.60948  23768076.85146
                  21594849.4614   21594849.0784   22288196.80948  17379008.84946
  21134966.5084   21134964.0314   28474795.45747  22199778.22544  22818794.3444
  22818791.8014   19636579.27048  15313926.16347  20224854.7194   20224851.5164
 11  8  2  3 14  0.0000000  0  7G29G02G26G25G12G10G05
  41550533.27047  32387382.12045  22890250.2584                   22890247.9774
  17312292.16047  13502574.57146  21331387.1254                   21331382.4184
  51016467.38746  39764797.05043  24269669.4844                   24269668.8834
                                                  30436174.30148  23728766.49046
                  21585249.5234   21585248.8984   22304118.08248  17391415.02946
  21137996.1954   21137993.4574   28537226.57446  22248425.82144  22830674.3674
  22830672.2114   19609853.20748  15293100.68647  20219768.8674   20219765.2894
 11  8  2  3 14 30.0000000  0  7G29G02G26G25G12G10G05
  41433777.26247  32296403.44045  22868032.2344                   22868030.1564
  17315211.65648  13504849.50046  21331942.7194                   21331937.8634
  50886067.07846  39663186.50743  24244855.9064                   24244854.4104
                                                  30386305.95748  23689908.06046
                  21575759.9774   21575759.4384   22320532.46148  17404205.45046
  21141119.6484   21141116.7814   28599919.95747  22297277.78244  22842604.5394
  22842601.9804   19583686.87148  15272711.32847  20214789.2344   20214786.2734
 11  8  2  3 15  0.0000000  0  7G29G02G26G25G12G10G05
  41317059.97347  32205454.98145  22845821.6484                   22845819.5984
  17318234.89848  13507205.28146  21332518.3204                   21332513.5514
  50755620.51646  39561539.85943  24220032.3594                   24220030.8134
                                                  30337016.51648  23651500.73746
                  21566380.2034   21566379.9064   22337436.71548  17417377.58946
  21144336.5004   21144333.6414   28662871.52347  22346330.93944  22854583.8284
  22854581.5274   19558078.46548  15252756.74647  20209916.2504   20209913.4654
 11  8  2  3 15 30.0000000  0  7G29G02G26G25G12G10G05
  41200381.73847  32114536.91345  22823617.9614                   22823616.4494
  17321359.98848  13509640.42846  21333112.7424                   21333108.0904
  50625129.84446  39459858.91243  24195201.4384                   24195199.6134
                                                  30288304.96548  23613543.70446
                  21557110.6094   21557110.2194   22354827.00848  17430928.45446
  21147645.7034   21147643.0204   28726077.00847  22395581.96644  22866611.5864
  22866608.9654   19533025.74248  15233235.15447  20205148.7584   20205145.8324
 11  8  2  3 16  0.0000000  0  7G29G02G26G25G12G10G05
  41083748.31347  32023653.74645  22801423.5474                   22801422.0634
  17324590.78948  13512157.93746  21333727.7344                   21333722.3714
  50494601.94546  39358148.94543  24170362.1884                   24170361.0784
                                                  30240175.60248  23576040.32546
                  21547951.9614   21547951.6024   22372705.12548  17444859.45046
  21151048.1024   21151044.9654   28789537.26647  22445031.50344  22878687.7114
  22878685.2544   19508531.77048  15214148.95047  20200487.7274   20200484.7154
 11  8  2  3 16 30.0000000  0  7G29G02G26G25G12G10G05
  40967160.73847  31932806.31845  22779238.3134                   22779236.0274
  17327926.20748  13514756.97046  21334362.4694                   21334357.4414
  50364039.66846  39256412.22843  24145516.8054                   24145515.7584
                                                  30192628.12948  23538990.35946
                  21538903.9304   21538903.8054   22391069.00048  17459168.95846
  21154542.4384   21154539.4694   28853249.30547  22494677.22044  22890811.7974
  22890808.9454   19484595.14148  15195497.03847  20195932.9534   20195929.8484
 11  8  2  3 17  0.0000000  0  7G29G02G26G25G12G10G05
  40850618.15247  31841993.97345  22757059.8674                   22757058.4384
  17331363.42648  13517435.32746  21335016.3444                   21335011.5704
  50233443.69546  39154649.17843  24120666.0474                   24120664.5274
                                                  30145660.41048  23502392.14646
                  21529966.3204   21529966.0554   22409914.33648  17473853.64146
  21158128.4454   21158125.7544   28917207.82446  22544515.00344  22902982.5004
  22902980.0164   19461212.27748  15177276.63747  20191483.0314   20191480.2344
 11  8  2  3 17 30.0000000  0  7G29G02G26G25G12G10G05
  40734123.07047  31751218.63045  22734892.1804                   22734890.5274
  17334902.80148  13520193.28646  21335689.8594                   21335685.0744
  50102818.29746  39052863.25543  24095808.2894                   24095806.8054
                                                  30099273.45748  23466246.47746
                  21521139.4064   21521138.8874   22429239.20348  17488911.96446
  21161805.8754   21161802.9184   28981410.67247  22594543.20144  22915199.4844
  22915196.9024   19438383.24248  15159487.79447  20187138.8444   20187136.0664
 11  8  2  3 18  0.0000000  0  7G29G02G26G25G12G10G05
  40617681.23047  31660484.78845  22712733.6724                   22712732.1134
  17338548.03948  13523033.73346  21336383.4614                   21336378.6884
  49972170.54346  38951059.87943  24070946.8914                   24070945.9494
                                                  30053471.52748  23430556.68146
                  21512423.4534   21512423.1174   22449045.97748  17504345.80846
  21165574.8204   21165572.2074   29045859.07047  22644762.71244  22927463.9224
  22927461.8914   19416110.72748  15142132.59747  20182900.6724   20182897.7774
 11  8  2  3 18 30.0000000  0  7G29G02G26G25G12G10G05
  40501291.99247  31569791.90445  22690585.8834                   22690583.9804
  17342296.84448  13525954.88546  21337096.8754                   21337092.1994
  49841501.60546  38849240.02544  24046081.0394                   24046080.2234
                                                  30008252.62148  23395321.18246
                  21503818.1884   21503818.1374   22469329.99248  17520151.54646
  21169435.1334   21169431.9144   29110548.16047  22695169.77044  22939773.5554
  22939771.7774   19394391.52748  15125208.55647  20178767.3984   20178764.7664
 11  8  2  3 19  0.0000000  0  7G29G02G26G25G12G10G05
  40384952.25847  31479137.61445  22668447.2504                   22668445.6024
  17346143.87548  13528952.58046  21337829.0234                   21337824.1844
  49710809.93046  38747402.44744  24021211.7344                   24021210.4344
                                                  29963611.81648  23360536.14546
                  21495323.7974   21495322.7624   22490084.21948  17536323.64746
  21173384.5784   21173381.3874   29175470.05147  22745758.25444  22952127.8984
  22952125.5234   19373219.54748  15108710.91347  20174738.5554   20174735.8754
 11  8  2  3 19 30.0000000  0  7G29G02G26G25G12G10G05
  40268664.27347  31388523.63745  22646318.1174                   22646316.3554
  17350089.53548  13532027.11946  21338579.6884                   21338575.0944
  49580099.40247  38645550.19744  23996338.3524                   23996337.1214
                                                  29919550.02048  23326202.28546
                  21486938.7974   21486938.5664   22511307.21548  17552861.04446
  21177423.0314   21177420.1094   29240622.59047  22796526.42644  22964526.5394
  22964524.4494   19352594.56648  15092639.51447  20170814.1174   20170811.2664
 11  8  2  3 20  0.0000000  0  7G29G02G26G25G12G10G05
  40152438.56647  31297958.19045  22624201.2734                   22624199.7234
  17354141.88348  13535184.79946  21339350.9774                   21339346.3134
  49449381.93046  38543692.51843  23971463.3524                   23971462.2974
                                                  29876075.89148  23292326.35246
                  21478666.0314   21478665.8054   22533005.57448  17569768.85446
  21181551.7194   21181549.1174   29306011.96147  22847479.17044  22976969.1414
  22976967.1604   19332524.16448  15077000.24747  20166994.2814   20166991.7274
 11  8  2  3 20 30.0000000  0  7G29G02G26G25G12G10G05
  40036272.52347  31207439.25545  22602095.5554                   22602093.4344
  17358296.63748  13538422.28546  21340141.5474                   21340136.5354
  49318656.56646  38441828.69343  23946586.9614                   23946585.6684
                                                  29833185.41448  23258905.20646
                  21470504.5314   21470503.8014   22555172.76648  17587041.98446
  21185770.1334   21185767.2154   29371630.79747  22898610.74744  22989455.9384
  22989453.9224   19313002.88348  15061788.87247  20163279.6254   20163276.8484
 11  8  2  3 21  0.0000000  0  7G29G02G26G25G12G10G05
  41495592.05547  32344571.41345  22879794.9844                   22879792.7344
  18937973.64148  14769339.43946  21640744.4144                   21640739.1914
  50763351.29746  39567564.91943  24221502.7424                   24221502.6214
  31366300.24248  24453540.14746  21762246.1804   21762246.0164   24153225.77748
  18832278.07346  21489869.7114   21489866.8594   31012894.38347  24177517.43044
                                  23301779.0314   23301776.4184   20869450.76648
  16274605.42347                  20459461.7344                   20459459.1134
 11  8  2  3 21 30.0000000  0  7G29G02G26G25G12G10G05
  41379547.87947  32254147.42145  22857712.4224                   22857710.2934
  18942329.59048  14772733.68946  21641572.9454                   21641568.0664
  50632617.84846  39465694.81143  24196624.6884                   24196624.0394
  31324574.46948  24421026.56446  21754306.1094   21754305.7344   24176320.87948
  18850274.25646  21494264.4304   21494261.9494   31078961.35547  24228998.18144
                                  23314350.2584   23314347.6844   20851021.98448
  16260245.33447                  20455954.8674                   20455951.7774
 11  8  2  3 22  0.0000000  0  7G29G02G26G25G12G10G05
  41263570.18447  32163775.26045  22835642.2344                   22835639.9384
  18946788.41448  14776208.10746  21642421.5474                   21642417.0554
  50501887.82446  39363827.32743  24171748.0084                   24171746.5554
  31283433.87148  24388968.96046  21746477.0944   21746477.2384   24199879.78948
  18868631.84046  21498747.8134   21498744.8244   31145251.03546  24280652.45544
                                  23326964.9144   23326963.0124   20833140.42248
  16246311.67347                  20452552.2664                   20452549.5084
 11  8  2  3 22 30.0000000  0  7G29G02G26G25G12G10G05
  41147657.46547  32073453.71045  22813584.5864                   22813582.9414
  18951346.89848  14779760.16546  21643288.8444                   21643284.0084
  50371161.64546  39261962.89243  24146871.0004                   24146870.4344
  31242875.17248  24357364.78146  21738759.1804   21738759.1804   24223896.89148
  18887346.45746  21503318.0474   21503315.2934   31211757.25846  24332475.45144
                                  23339620.6644   23339618.0984   20815801.63748
  16232800.93947                  20449252.9534                   20449250.2664
 11  8  2  3 23  0.0000000  0  7G29G02G26G25G12G10G05
  41031808.81347  31983182.08945  22791539.6484                   22791537.7274
  18956002.14548  14783387.63146  21644174.9454                   21644170.2894
  50240440.10946  39160101.99843  24121996.0164                   24121995.3484
  31202895.76648  24326212.00346  21731151.7974   21731151.3834   24248367.03147
  18906414.09446  21507974.2274   21507971.8554   31278474.66847  24384463.02344
                                  23352316.5004   23352314.5234   20799002.03148
  16219710.34647                  20446055.6414                   20446053.1024
 11  8  2  3 23 30.0000000  0  7G29G02G26G25G12G10G05
  40916030.94547  31892965.63045  22769507.7734                   22769505.5234
  18960758.43448  14787093.83946  21645080.0864                   21645075.2344
  50109731.27746  39058251.07043  24097123.0234                   24097122.2034
  31163500.29748  24295514.24546  21723654.5944   21723654.3984   24273292.79348
  18925836.76246  21512717.7194   21512714.9264   31345405.28147  24436616.76244
                                  23365053.2974   23365050.9774   20782744.93848
  16207042.50147                  20442962.2194                   20442959.4454
 11  8  2  3 24  0.0000000  0  7G29G02G26G25G12G10G05
  40800323.98447  31802804.43845  22747489.4534                   22747487.5984
  18965613.70748  14790877.15846  21646003.6174                   21645999.3674
  49979036.80547  38956411.27344  24072252.3674                   24072251.0354
  31124686.98048  24265270.10546  21716268.9304   21716268.3484   24298670.22348
  18945611.37746  21517546.7974   21517543.8954   31412544.86747  24488933.28143
                                  23377829.5314   23377827.0864   20767027.62948
  16194795.25347                  20439971.2584                   20439968.7034
 11  8  2  3 24 30.0000000  0  7G29G02G26G25G12G10G05
  40684682.89547  31712694.56245  22725483.6414                   22725481.3524
  18970561.35548  14794732.46846  21646945.4064                   21646940.7344
  49848353.60247  38854580.29343  24047384.2274                   24047382.4734
  31086449.05148  24235474.32446  21708992.5554   21708992.2034   24324490.15648
  18965730.79846  21522460.6094   21522457.2854   31479883.77347  24541405.17244
                                  23390643.9534   23390641.7034   20751842.01248
  16182962.31747                  20437081.7274                   20437078.7814
 11  8  2  3 25  0.0000000  0  7G29G02G26G25G12G10G05
  40569118.40247  31622644.38245  22703492.1724                   22703489.5984
  18975610.02048  14798666.49546  21647905.8834                   21647901.2234
  49717693.91447  38752767.56643  24022520.8284                   24022519.1414
  31048795.14148  24206133.63346  21701826.9064   21701826.9104   24350759.34048
  18986200.28146  21527458.8524   21527456.2274   31547428.06647  24594037.09544
                                  23403497.0864   23403494.2544   20737195.57448
  16171549.52447                  20434294.3754                   20434291.7734
 11  8  2  3 25 30.0000000  0  7G29G02G26G25G12G10G05
  40453630.25047  31532653.66345  22681515.7424                   22681513.4734
  18980757.56348  14802677.57346  21648885.7114                   21648880.8554
  49587059.09447  38650974.32443  23997661.3594                   23997659.8594
  31011723.25848  24177246.45646  21694772.5784   21694772.0514   24377473.64148
  19007016.59946  21532542.5474   21532539.8524   31615173.39547  24646825.63944
                                  23416388.1484   23416386.5204   20723085.26248
  16160554.49147                  20431609.1334                   20431606.6334
 11  8  2  3 26  0.0000000  0  7G29G02G26G25G12G10G05
  40338220.08247  31442723.72245  22659553.8204                   22659551.0744
  18986002.87148  14806764.81346  21649883.5474                   21649878.7234
  49456451.89847  38549202.47743  23972807.9924                   23972806.6214
  30975232.51648  24148812.12646  21687828.4384   21687828.1724   24404629.62548
  19028177.09746  21537710.7974   21537707.5164   31683116.24247  24699768.12244
                                  23429317.0864   23429315.7734   20709508.83648
  16149975.46347                  20429025.9694                   20429022.8164
 11  8  2  3 26 30.0000000  0  7G29G02G26G25G12G10G05
  40222887.94547  31352854.55445  22637607.1174                   22637604.3284
  18991344.53148  14810927.14446  21650900.2274                   21650895.7234
  49325874.40246  38447453.87643  23947959.1174                   23947958.6884
  30939321.18448  24120829.28346  21680994.9064   21680994.2664   24432223.78548
  19049679.03046  21542961.4614   21542958.5124   31751252.18447  24752861.02844
                                  23442282.5004   23442280.8014   20696463.59048
  16139810.34147                  20426543.2504                   20426540.4844
 11  8  2  3 27  0.0000000  0  7G29G02G26G25G12G10G05
  40107636.84847  31263048.57045  22615674.9534                   22615673.0824
  18996783.33248  14815165.15446  21651935.1804                   21651930.3594
  49195331.07846  38345731.87744  23923117.4694                   23923117.3554
  30903990.11748  24093298.59646  21674271.4384   21674271.0904   24460254.68848
  19071521.29046  21548295.4304   21548292.9104   31819579.92247  24806103.41444
                                  23455286.1334   23455284.0234   20683949.15648
  16130058.85247                  20424162.0864                   20424159.1024
 11  8  2  3 27 30.0000000  0  7G29G02G26G25G12G10G05
  39992468.02347  31173306.67645  22593759.6094                   22593756.6564
  19002318.41448  14819478.21146  21652988.5234                   21652983.8444
  49064824.52046  38244038.52944  23898282.8444                   23898281.1484
  30869238.27748  24066219.25846  21667658.3134   21667658.0204   24488719.23048
  19093701.43346  21553711.6954   21553709.2974   31888096.05547  24859492.57044
                                  23468323.8834   23468321.7114   20671963.64548
  16120719.50947                  20421881.2504                   20421878.8094
 11  8  2  3 28  0.0000000  0  7G29G02G26G25G12G10G05
  39877381.82847  31083629.16045  22571859.1484                   22571856.9654
  19007948.44148  14823865.25746  21654059.6174                   21654054.5824
  48934357.10546  38142375.72644  23873456.2274                   23873453.8834
  30835063.98048  24039589.94846  21661155.4774   21661155.0314   24517613.82048
  19116216.69546  21559210.4384   21559207.5704   31956796.16047  24913025.10244
                                  23481397.3204   23481394.8404   20660504.07448
  16111789.98347                  20419700.5004                   20419697.7194
 11  8  2  3 28 30.0000000  0  7G29G02G26G25G12G10G05
  39762382.31347  30994019.19245  22549975.6334                   22549972.5044
  19013674.95348  14828327.47246  21655149.2584                   21655144.6564
  48803934.27346  38040747.58044  23848637.3204                   23848635.8444
  30801469.03148  24013412.07546  21654762.5944   21654762.1994   24546937.53148
  19139066.31346  21564790.5554   21564787.6604   32025679.68047  24966700.56644
                                  23494504.9304   23494503.2504   20649571.46548
  16103271.07847                  20417620.0394                   20417617.0664
 11  8  2  3 29  0.0000000  0  7G29G02G26G25G12G10G05
  39647474.47347  30904480.66145  22528109.3054                   22528106.5904
  19019500.70748  14832867.00346  21656258.0004                   21656253.1054
  48673562.88346  37939159.54944  23823828.0314                   23823827.5554
  30768456.23448  23987687.83446  21648480.0704   21648479.6914   24576691.43448
  19162251.16846  21570452.4774   21570449.7034   32094747.11747  25020519.35944
                                  23507648.0234   23507646.0084   20639167.28148
  16095163.94247                  20415640.2114                   20415637.6134
 11  8  2  3 29 30.0000000  0  7G29G02G26G25G12G10G05
  39532662.81647  30815017.07545  22506260.9924                   22506258.4264
  19025428.27747  14837485.89446  21657385.8364                   21657381.7734
  48543248.35546  37837615.79244  23799030.3914                   23799029.7854
  30736027.55148  23962418.74046  21642309.3284   21642308.8714   24606875.68448
  19185771.34546  21576196.6174   21576193.7974   32163998.25447  25074481.23744
                                  23520826.2424   23520824.3484   20629292.69548
  16087469.46847                  20413761.3364                   20413758.6134
 11  8  2  3 30  0.0000000  0  7G29G02G26G25G12G10G05
  39417944.45747  30725626.20245  22484430.5864                   22484428.4924
  19031452.96548  14842180.45546  21658532.5314                   21658528.0784
  48412989.89546  37736115.82244  23774243.0864                   23774241.3054
  30704177.93848  23937600.86546  21636248.2504   21636248.0864   24637482.85548
  19209621.06646  21582020.9694   21582017.9804   32233425.70347  25128580.55244
                                  23534037.4614   23534035.8634   20619941.36748
  16080182.73447                  20411981.6254                   20411978.9844
 11  8  2  3 30 30.0000000  0  7G29G02G26G25G12G10G05
  39303316.23447  30636305.58045  22462617.7584                   22462615.2974
  19037569.58648  14846946.66546  21659696.4614                   21659692.0234
  48282785.86747  37634658.21044  23749466.2584                   23749464.1054
  30672901.96948  23913229.99346  21630296.3914   21630296.3834   24668505.37548
  19233794.45946  21587924.6484   21587921.4884   32303021.79747  25182811.22343
                                  23547282.0164   23547279.7894   20611106.63348
  16073298.53947                  20410300.4064                   20410297.6684
 11  8  2  3 31  0.0000000  0  7G29G02G26G25G12G10G05
  39188783.95347  30547059.71445  22440822.8914                   22440820.9774
  19043781.89848  14851787.43146  21660878.9064                   21660874.1454
  48152643.81347  37533248.90844  23724700.9384                   23724699.9024
  30642202.96148  23889308.69246  21624455.2034   21624454.8794   24699944.28148
  19258292.28446  21593907.0944   21593904.2934   32372787.62947  25237174.16343
                                  23560558.0474   23560555.4964   20602790.94148
  16066818.79647                  20408718.1174                   20408715.3404
 11  8  2  3 31 30.0000000  0  7G29G02G26G25G12G10G05
  39074353.30147  30457893.03045  22419047.3364                   22419045.0784
  19050093.02348  14856705.18546  21662079.3054                   21662074.9924
  48022570.48047  37431893.09944  23699948.5784                   23699946.7504
  30612083.90648  23865839.30446  21618723.5944   21618723.3794   24731801.06348
  19283115.73946  21599969.3364   21599966.4184   32442724.06346  25291670.08143
                                  23573865.7734   23573864.3284   20594996.25848
  16060745.03447                  20407234.8134                   20407232.0554
 11  8  2  3 32  0.0000000  0  7G29G02G26G25G12G10G05
  38960021.47747  30368803.36345  22397290.6884                   22397288.4844
  19056498.32448  14861696.32546  21663298.5234                   21663293.6254
  47892564.96547  37330590.18344  23675208.8754                   23675208.1764
  30582539.73048  23842817.86446  21613101.6954   21613101.0124   24764068.47748
  19308259.16346  21606109.2274   21606106.4534   32512823.80947  25346293.19443
                                  23587205.7894   23587203.2234   20587716.65248
  16055072.61447                  20405849.4384                   20405846.5474
 11  8  2  3 32 30.0000000  0  7G29G02G26G25G12G10G05
  38845792.19947  30279793.60245  22375553.7734                   22375551.1684
  19062999.52748  14866762.19346  21664535.8444                   21664530.5434
  47762632.61747  37229344.25444  23650484.3524                   23650482.5234
  30553571.84848  23820245.49846  21607589.0234   21607588.8554   24796745.94147
  19333722.11546  21612327.6804   21612325.1054   32583085.96947  25401042.95643
                                  23600576.3284   23600573.2194   20580952.30148
  16049801.72347                  20404562.2584                   20404559.6254
 11  8  2  3 33  0.0000000  0  7G29G02G26G25G12G10G05
  38731666.48047  30190864.52745  22353836.1484                   22353833.7704
  19069595.59048  14871901.98246  21665790.6564                   21665786.0744
  47632775.91047  37128157.26244  23625772.5704                   23625770.8794
  30525178.51248  23798120.82846  21602186.2974   21602185.6484   24829829.71147
  19359501.64946  21618623.6174   21618620.7704   32653507.20747  25455916.65343
                                  23613976.9384   23613974.4574   20574700.53148
  16044930.22647                  20403372.6174                   20403369.6294
 11  8  2  3 33 30.0000000  0  7G29G02G26G25G12G10G05
  38617648.80547  30102019.64545  22332138.9064                   22332136.8444
  19076288.96948  14877117.59946  21667064.8914                   21667059.8054
  47503001.16447  37027034.19744  23601077.1954                   23601075.6484
  30497361.74648  23776445.42146  21596892.2894   21596892.3134   24863319.83247
  19385597.84746  21624996.3754   21624993.0864   32724087.44547  25510914.25543
                                  23627408.5004   23627405.8444   20568962.39148
  16040458.95947                  20402280.6884                   20402277.6884
 11  8  2  3 34  0.0000000  0  7G29G02G26G25G12G10G05
  38503733.68847  30013254.65345  22310461.8834                   22310459.7704
  19083071.96948  14882403.05846  21668355.5004                   21668350.0004
  47373304.14547  36925971.66344  23576396.8364                   23576395.3594
  30470113.50048  23755213.01746  21591707.8914   21591707.1484   24897206.51648
  19412003.03746  21631444.6804   21631441.8714   32794816.34447  25566027.69843
                                  23640867.5634   23640864.4104   20563728.70747
  16036380.77047                  20401284.6644                   20401282.0354
 11  8  2  3 34 30.0000000  0  7G29G02G26G25G12G10G05
  38389928.19547  29924575.07845  22288805.6564                   22288803.4224
  19089949.37548  14887762.07646  21669664.1644                   21669659.1254
  47243693.64847  36824976.52744  23551733.0234                   23551731.1054
  30443437.91048  23734426.85046  21586631.0944   21586631.0164   24931491.57447
  19438718.65546  21637968.6094   21637966.1094   32865696.14547  25621258.68943
                                  23654355.0084   23654352.7974   20559002.54348
  16032698.05547                  20400385.1024                   20400382.4104
 11  8  2  3 35  0.0000000  0  7G29G02G26G25G12G10G05
  38276236.16047  29835983.92745  22267170.4224                   22267168.2194
  19096923.18448  14893196.19146  21670991.0554                   21670986.4264
  47114174.97347  36724052.94944  23527086.3444                   23527084.8794
  30417336.36748  23714087.98446  21581664.4924   21581663.7664   24966174.53547
  19465744.32746  21644568.9694   21644566.5274   32936726.45747  25676606.96044
                                  23667872.0084   23667869.3554   20554784.40648
  16029411.19647                  20399582.6334                   20399579.3754
 11  8  2  3 35 30.0000000  0  7G29G02G26G25G12G10G05
  38162653.17247  29747477.72645  22245556.4534                   22245554.3054
  19103987.10547  14898700.55446  21672335.3524                   21672330.5164
  46984745.60547  36623198.93344  23502457.2894                   23502454.5514
  30391801.83648  23694190.94646  21576805.3364   21576805.0124   25001246.31647
  19493072.97546  21651242.9534   21651240.2274   33007897.79746  25732065.10043
                                  23681414.8754   23681413.5394   20551066.22348
  16026513.92247                  20398874.9844                   20398872.1914
 11  8  2  3 36  0.0000000  0  7G29G02G26G25G12G10G05
  38049184.61347  29659060.70645  22223964.0704                   22223961.8244
  19111144.24247  14904277.53146  21673696.9064                   21673692.4734
  46855412.02347  36522419.55644  23477845.3444                   23477843.2424
  30366836.87148  23674737.72046  21572054.5474   21572054.5744   25036707.93047
  19520705.39246  21657990.5234   21657988.0314   33079211.43446  25787634.16343
                                  23694985.3834   23694983.6764   20547849.90248
  16024007.71547                  20398263.1804                   20398259.9184
 11  8  2  3 36 30.0000000  0  7G29G02G26G25G12G10G05
  37935831.61347  29570733.72545  22202393.6954                   22202391.1804
  19118393.44947  14909926.25546  21675076.6884                   21675072.3874
  46726177.13747  36421717.14344  23453252.2344                   23453251.0394
  30342439.67248  23655726.92546  21567412.0394   21567411.4884   25072555.61747
  19548638.63546  21664812.2734   21664809.7664   33150663.75046  25843311.21743
                                  23708582.4924   23708580.4144   20545132.41448
  16021890.20247                  20397746.1254                   20397743.1174
 11  8  2  3 37  0.0000000  0  7G29G02G26G25G12G10G05
  37822595.84047  29482498.09045  22180845.6414                   22180842.8834
  19125734.43047  14915646.48346  21676473.5554                   21676468.7774
  46597044.20347  36321094.11444  23428679.2274                   23428677.0234
  30318609.12948  23637157.66346  21562877.7734   21562876.6374   25108786.66448
  19576870.60246  21671706.5394   21671704.0984   33222251.31646  25899093.72143
                                  23722205.3674   23722203.8284   20542911.98448
  16020160.00947                  20397323.4304                   20397320.2114
 11  8  2  3 37 30.0000000  0  7G29G02G26G25G12G10G05
  37709481.92647  29394357.41445  22159320.8594                   22159318.5124
  19133169.80547  14921440.29446  21677888.5944                   21677883.5944
  46468019.34847  36220555.31544  23404127.3284                   23404124.3444
  30295346.99248  23619031.33146  21558450.6564   21558450.2464   25145400.17647
  19605400.59146  21678674.3594   21678671.6804   33293974.16446  25954981.60843
                                  23735853.0554   23735851.6684   20541189.23048
  16018817.61547                  20396995.3524                   20396992.4884
 11  8  2  3 38  0.0000000  0  7G29G02G26G25G12G10G05
  37596491.09047  29306312.63545  22137819.0394                   22137816.4344
  19140698.44948  14927306.77146  21679321.6564                   21679316.6724
  46339105.39547  36120102.92844  23379595.6954                   23379593.2734
  30272651.80548  23601346.77046  21554131.8754   21554131.5354   25182393.12547
  19634226.25546  21685713.7424   21685711.8054   33365829.41046  26010972.63443
                                  23749527.4694   23749524.7814   20539961.85248
  16017861.22947                  20396762.0394                   20396758.9384
 11  8  2  3 38 30.0000000  0  7G29G02G26G25G12G10G05
  37483624.05147  29218364.33945  22116341.3054                   22116338.7384
  19148319.36747  14933245.14846  21680771.4844                   21680766.6844
  46210304.75847  36019738.85744  23355084.5004                   23355082.8874
  30250521.41848  23584102.31046  21549920.3754   21549920.0984   25219761.64547
  19663344.56246  21692825.0634   21692822.3914   33437813.27747  26067063.97644
                                  23763225.6954   23763223.2854   20539226.71148
  16017288.40347                  20396622.0234                   20396619.0824
 11  8  2  3 39  0.0000000  0  7G29G02G26G25G12G10G05
  37370881.34447  29130512.90045  22094887.1254                   22094884.4024
  19156030.95747  14939254.17746  21682239.0864                   21682234.1254
  46081619.69547  35919464.80944  23330597.3754                   23330596.1024
  30228953.53147  23567296.16146  21545816.1564   21545815.8714   25257501.32447
  19692752.08746  21700006.9144   21700004.0704   33509921.24647  26123251.99443
                                  23776947.7734   23776945.3404   20538980.50448
  16017096.56847                  20396575.3594                   20396572.1024
 11  8  2  3 39 30.0000000  0  7G29G02G26G25G12G10G05
  37258264.90647  29042759.86546  22073456.5864                   22073453.8204
  19163832.60247  14945333.37146  21683723.8594                   21683718.7854
  45953052.94947  35819282.95744  23306131.8674                   23306129.6844
  30207946.34447  23550926.92646  21541818.7344   21541818.3204   25295609.05147
  19722446.40646  21707258.6564   21707255.6724   33582150.31647  26179534.37943
                                  23790692.1954   23790690.2424   20539221.12948
  16017284.07547                  20396620.9454                   20396617.8324
 11  8  2  3 40  0.0000000  0  7G29G02G26G25G12G10G05
  37145774.22347  28955104.82346  22052050.3834                   22052048.1604
  19171722.14547  14951481.06346  21685225.0084                   21685219.9694
  45824606.19947  35719194.62644  23281689.3364                   23281686.8244
  30187497.06648  23534992.41046  21537927.2894   21537927.0944   25334080.37147
  19752424.03446  21714579.2504   21714576.5394   33654496.02747  26235907.67643
                                  23804459.3984   23804456.7384   20539944.21548
  16017847.53447                  20396758.5394                   20396755.4804
 11  8  2  3 40 30.0000000  0  7G29G02G26G25G12G10G05
  37033421.30147  28867557.12546  22030670.2894                   22030668.0514
  19179708.86348  14957704.48946  21686744.9384                   21686740.3134
  45696292.39547  35619209.90844  23257271.6094                   23257270.0394
  30167613.98448  23519499.10046  21534143.8444   21534143.3524   25372921.35247
  19782689.73146  21721970.4534   21721967.4534   33726965.23046  26292377.17243
                                  23818249.5234   23818247.5004   20541157.29348
  16018792.79747                  20396989.6174                   20396986.2304
 11  8  2  3 41  0.0000000  0  8G29G02G26G15G25G12G10G05
  36921202.13747  28780113.66945  22009315.8674                   22009313.4844
  19187787.50847  14963999.53446  21688281.9304                   21688277.3444
  45568109.85247  35519327.45744  23232879.1804                   23232877.8714
  53372699.19556  41600879.23653  24188708.9064                   24188708.2624
  30148290.80548  23504442.07446  21530466.5554   21530466.3674   25412124.21547
  19813237.40646  21729430.4304   21729427.6954   33799549.89146  26348936.62243
                                  23832062.2344   23832059.4804   20542853.46548
  16020114.50547                  20397312.1174                   20397309.1954
 11  8  2  3 41 30.0000000  0  8G29G02G26G15G25G12G10G05
  36809115.91847  28692773.78846  21987986.2814                   21987984.0704
  19195954.83248  14970363.68146  21689836.1884                   21689831.5164
  45440059.16847  35419547.80144  23208512.5394                   23208509.7894
  53242339.55946  41499300.45543  24163901.4614                   24163901.0204
  30129523.28948  23489818.03946  21526895.1024   21526894.9884   25451682.70347
  19844062.18746  21736958.1174   21736955.3634   33872244.42646  26405581.71743
                                  23845894.5164   23845892.4344   20545027.65248
  16021808.69147                  20397726.1254                   20397722.8484
 11  8  2  3 42  0.0000000  0  8G29G02G26G15G25G12G10G05
  36697159.34847  28605534.95046  21966681.8914                   21966679.4614
  19204205.33247  14976792.63246  21691406.5394                   21691401.8634
  45312138.43447  35319869.37044  23184169.6414                   23184166.7034
  53111894.52046  41397655.07343  24139078.7734                   24139077.6414
  30111304.95748  23475621.93646  21523428.4224   21523428.2114   25491588.82047
  19875157.85146  21744551.8754   21744549.2194   33945040.52746  26462305.94643
                                  23859747.4694   23859745.6024   20547672.43048
  16023869.57147                  20398229.2974                   20398226.0274
 11  8  2  3 42 30.0000000  0  8G29G02G26G15G25G12G10G05
  36585338.14547  28518401.56646  21945403.0784                   21945400.7734
  19212542.90248  14983289.44946  21692993.0944                   21692988.4384
  45184354.90647  35220297.92044  23159853.4694                   23159850.8284
  52981370.02347  41295947.82443  24114241.2504                   24114239.3134
  30093638.46948  23461855.83946  21520066.9064   21520066.0164   25531843.35548
  19906525.00846  21752212.4774   21752209.2074   34017939.38746  26519110.30343
                                  23873619.9304   23873618.2664   20550789.57848
  16026298.53647                  20398822.0864                   20398819.3164
 11  8  2  3 43  0.0000000  0  8G29G02G26G15G25G12G10G05
  36473658.35947  28431378.38246  21924151.3054                   21924148.3444
  19220971.13748  14989856.91845  21694596.5634                   21694591.8794
  45056716.37547  35120839.39544  23135564.1094                   23135561.6054
  52850772.94547  41194183.90543  24089389.9454                   24089387.7114
  30076526.59848  23448521.90846  21516810.6174   21516809.9844   25572447.71548
  19938164.77046  21759938.7734   21759936.3634   34090942.46946  26575995.70543
                                  23887511.0004   23887509.8484   20554381.14548
  16029097.16347                  20399505.9844                   20399502.8404
 11  8  2  3 43 30.0000000  0  8G29G02G26G15G25G12G10G05
  36362122.74648  28344467.52546  21902926.8054                   21902924.2814
  19229490.60948  14996495.46046  21696217.7424                   21696213.2194
  44929226.39147  35021496.56544  23111303.1724                   23111301.6604
  52720106.23446  41092365.77643  24064524.1804                   24064522.0394
  30059968.53948  23435619.52746  21513659.5164   21513659.1054   25613399.18448
  19970075.00246  21767731.7894   21767728.8444   34164047.74246  26632960.89043
                                  23901422.7814   23901420.8634   20558445.30948
  16032264.05547                  20400279.3594                   20400276.2544
 11  8  2  3 44  0.0000000  0  8G29G02G26G15G25G12G10G05
  37826154.07848  29485271.19746  22181522.3524   22181520.1094   20813518.13348
  16230802.62746                  21997648.4534                   21997643.6374
  46377310.27347  36149873.64044  23386864.8754                   23386862.9924
  54164794.17647  42218096.74643  24339439.5394                   24339436.9414
  31619380.82448                  24650745.97746  21810406.0004   21810405.4774
  27230110.62948  21229850.14346  22075381.7974   22075378.9734   35812667.32046
  27917599.48843                  24215145.5234   24215143.1094   22138397.44948
  17263395.60547                  20700934.3754                   20700930.9064
 11  8  2  3 44 30.0000000  0  8G29G02G26G15G25G12G10G05
  37714914.43848  29398590.98346  22160353.9144   22160351.6094   20822221.63747
  16237584.57946                  21999304.5004                   21999299.7464
  46250130.45347  36050772.54144  23362663.4454                   23362661.4184
  54033997.85547  42116177.60044  24314549.6094                   24314547.5514
  31603928.50848                  24638705.21446  21807465.7274   21807464.8134
  27271749.36348  21262295.89646  22083305.4454   22083302.2544   35885970.94546
  27974719.21743                  24229094.5944   24229092.4844   22143403.18848
  17267296.18847                  20701886.8674                   20701883.7034
 11  8  2  3 45  0.0000000  0  8G29G02G26G15G25G12G10G05
  37603826.25048  29312028.77946  22139214.7734   22139212.3834   20831017.41848
  16244438.43646                  22000978.3594                   22000973.5164
  46123111.71947  35951796.98044  23338492.4694                   23338490.6914
  53903141.66847  42014211.85944  24289648.5314                   24289647.1884
  31589027.46148                  24627094.00346  21804629.8524   21804629.2424
  27313727.83248  21295006.38346  22091293.7974   22091290.8164   35959370.18446
  28031913.40344                  24243062.2034   24243060.2894   22148876.77348
  17271561.33147                  20702928.2974                   20702924.7234
 11  8  2  3 45 30.0000000  0  8G29G02G26G15G25G12G10G05
  37492891.33247  29225586.01046  22118104.4924   22118102.1174   20839905.51248
  16251364.23346                  22002669.7424                   22002664.8444
  45996257.35947  35852949.48044  23314352.8524                   23314351.7034
  53772228.04747  41912201.29344  24264736.1024                   24264734.7464
  31574676.63748                  24615911.52946  21801899.0394   21801898.3634
  27356043.25048  21327979.42346  22099346.0864   22099343.0234   36032862.95346
  28089180.48644                  24257046.5394   24257045.3634   22154816.48848
  17276189.68747                  20704058.6564                   20704055.1054
 11  8  2  3 46  0.0000000  0  8G29G02G26G15G25G12G10G05
  37382112.02048  29139264.50446  22097023.8914   22097021.5784   20848886.12948
  16258362.10846                  22004378.3834                   22004373.6994
  45869571.70747  35754233.44144  23290245.2814                   23290244.0474
  53641259.54747  41810147.99844  24239813.9304                   24239812.9064
  31560874.77048                  24605156.82446  21799272.3834   21799271.8914
  27398692.73048  21361212.76546  22107462.0004   22107458.9694   36106446.68846
  28146518.45143                  24271049.9304   24271048.6094   22161220.54348
  17281179.85647                  20705277.1484                   20705274.0784
 11  8  2  3 46 30.0000000  0  8G29G02G26G15G25G12G10G05
  37271493.38748  29053068.18946  22075973.8914   22075971.2194   20857961.98048
  16265434.20745                  22006105.2424                   22006100.8954
  45743060.55947  35655653.38244  23266170.6644                   23266169.1954
  53510241.91047  41708056.43444  24214881.9144                   24214880.4304
  31547623.33648                  24594831.04146  21796750.7974   21796750.8204
  27441676.29348  21394706.43846  22115641.5554   22115638.3164   36180121.46946
  28203927.36644                  24285070.0554   24285067.9654   22168089.39548
  17286532.22047                  20706584.1884                   20706581.2424
 11  8  2  3 47  0.0000000  0  8G29G02G26G15G25G12G10G05
  37161038.58247  28966999.54646  22054955.0864   22054952.4224   20867134.18047
  16272581.37445                  22007850.8134                   22007846.3754
  45616729.02047  35557213.24644  23242131.0784                   23242128.4494
  53379178.91046  41605929.49944  24189941.0164                   24189939.9414
  31534922.13348                  24584933.99146  21794333.8674   21794333.3014
  27484992.07848  21428458.98946  22123884.0394   22123881.2894   36253885.74646
  28261405.97043                  24299106.7034   24299104.2234   22175422.05948
  17292245.98347                  20707979.7114                   20707976.5944
 11  8  2  3 47 30.0000000  0  8G29G02G26G15G25G12G10G05
  37050747.57447  28881058.52046  22033967.0474   22033964.5784   20876400.48847
  16279801.88946                  22009614.3444                   22009609.9024
  45490578.04347  35458913.83944  23218124.7664                   23218123.2934
  53248071.36346  41503767.87044  24164992.1484                   24164990.8444
  31522767.41048                  24575462.77646  21792020.7584   21792020.3954
  27528634.85548  21462466.33446  22132189.0944   22132186.2154   36327735.07846
  28318950.91043                  24313160.7584   24313156.7424   22183214.19148
  17298317.79247                  20709462.1804                   20709459.2584
 11  8  2  3 48  0.0000000  0  8G29G02G26G15G25G12G10G05
  36940620.05547  28795244.90946  22013010.7424   22013007.8914   20885758.48048
  16287093.81646                  22011395.0004                   22011390.2584
  45364609.42647  35360756.50644  23194154.4534                   23194151.6994
  53116919.30946  41401571.53744  24140035.2114                   24140032.9414
  31511155.56348                  24566414.58446  21789811.4384   21789811.0664
  27572599.69148  21496724.63346  22140555.6484   22140552.4384   36401664.72346
  28376558.42143                  24327228.6024   24327225.0904   22191461.46148
  17304744.23747                  20711031.8444                   20711028.7854
 11  8  2  3 48 30.0000000  0  8G29G02G26G15G25G12G10G05
  36830658.17247  28709560.35246  21992085.4614   21992082.8094   20895208.15647
  16294457.20546                  22013193.5314                   22013188.9384
  45238826.53547  35262743.87944  23170218.5084                   23170216.6054
  52985725.52046  41299342.70744  24115069.0864                   24115067.9104
  31500084.98848                  24557788.16046  21787704.6024   21787704.0474
  27616882.83648  21531230.97546  22148981.9304   22148979.4104   36475671.92646
  28434226.36143                  24341311.2424   24341308.5164   22200161.48848
  17311523.47947                  20712687.1414                   20712684.5004
 11  8  2  3 49  0.0000000  0  7G29G02G26G15G25G12G05
  36720867.41047  28624009.12946  21971193.2584   21971190.2704   20904753.07047
  16301894.81445                  22015009.5554                   22015005.0784
  45113236.27347  35164881.38844  23146319.5474                   23146316.8674
  52854496.17246  41197086.12144  24090096.5864                   24090095.4304
  31489557.63748                  24549585.02346  21785701.2194   21785701.1214
  27661485.00448  21565985.89246  22157469.6804   22157467.1024   22209315.91448
  17318656.80047                  20714429.2894                   20714426.3954
 11  8  2  3 49 30.0000000  0  7G29G02G26G15G25G12G05
  36611250.27047  28538593.20346  21950333.6334   21950331.0514   20914393.56347
  16309406.86646                  22016844.3984                   22016839.6054
  44987842.93047  35067172.33444  23122457.5944                   23122455.4534
  52723234.41046  41094804.37444  24065119.6804                   24065117.4734
  31479572.57048                  24541804.45046  21783801.4224   21783800.9574
  27706404.13748  21600987.80346  22166017.4064   22166014.1564   22218922.97348
  17326142.83247                  20716257.6254                   20716254.7274
 11  8  2  3 50  0.0000000  0  7G29G02G26G15G25G12G05
  36501807.46947  28453313.12846  21929507.0944   21929504.1804   20924127.89547
  16316992.06445                  22018696.7344                   22018691.6024
  44862648.55947  34969618.32644  23098634.0394                   23098631.7194
  52591941.54747  40992498.28444  24040134.9304                   24040132.8094
  31470126.64148                  24534443.98246  21782003.9534   21782003.4344
  27751635.43448  21636232.95646  22174624.4844   22174621.6724   22228978.61748
  17333978.39447                  20718171.1564                   20718168.0864
 11  8  2  3 50 30.0000000  0  7G29G02G26G15G25G12G05
  36392555.69147  28368181.91446  21908717.5634   21908714.9614   20933970.86747
  16324661.91745                  22020569.6804                   22020564.7624
  44737671.26247  34872233.46144  23074851.1094                   23074849.4224
  52460634.77346  40890181.40044  24015147.4454                   24015146.0864
  31461232.94948                  24527513.82846  21780311.3674   21780310.8444
  27797190.51648  21671730.41346  22183294.0704   22183291.1724   22239495.45348
  17342173.34846                  20720172.4614                   20720169.4454
 11  8  2  3 51  0.0000000  0  7G29G02G26G15G25G12G05
  36283487.53147  28283193.78146  21887962.3524   21887959.3284   20943913.06347
  16332409.09045                  22022461.4224                   22022457.0664
  44612905.38347  34775013.35244  23051109.0554                   23051106.9574
  52329307.58647  40787848.60244  23990157.5084                   23990155.4804
  31452880.37148                  24521005.33346  21778721.8364   21778721.2854
  27843056.91848  21707470.45546  22192021.7034   22192018.9614   22250461.97348
  17350718.69247                  20722259.2814                   20722256.0394
